GFSSW_925_spd_000.txt.gz
Wind_Speed
24 25 26 24 24 25 25 24 24 24 23 24 24 24 21 24 24 16 7 11 7 16 11 16 11 8 9 3 6 3 3 3 7 8 5 6 4 4 5 10 3 5 6 14 26
25 25 25 25 25 25 26 26 26 25 25 24 23 23 21 21 19 13 29 22 16 14 17 16 7 7 3 4 3 3 2 7 7 6 8 11 8 9 5 9 2 6 15 27 27
27 29 28 25 25 25 25 27 28 29 27 27 24 21 16 16 5 8 8 9 19 20 16 14 7 8 5 3 4 5 6 5 5 7 15 11 8 5 10 6 6 14 19 22 24
26 28 30 29 27 27 27 27 28 29 29 28 26 17 9 5 7 1 2 9 9 23 15 9 5 7 5 6 5 3 8 8 7 8 12 14 9 6 11 6 7 14 20 20 18
28 27 28 30 30 29 29 29 28 27 30 29 24 9 3 0 11 23 20 13 6 20 20 8 7 7 6 5 4 6 4 9 9 11 11 13 7 5 7 4 14 17 18 18 15
29 30 29 29 31 33 33 31 31 29 29 26 16 2 1 5 7 7 11 3 9 21 14 9 8 7 5 4 5 3 3 9 7 8 5 9 5 8 4 13 14 17 17 16 16
30 31 31 31 32 33 33 33 33 31 25 16 4 4 1 18 15 12 16 3 10 16 7 11 4 3 3 1 3 5 6 9 4 4 5 11 2 7 10 16 16 15 14 14 14
32 33 32 33 34 34 34 33 32 26 11 5 7 4 7 9 11 16 11 7 5 17 7 11 9 2 3 1 5 3 5 6 4 7 8 6 6 3 14 17 17 15 14 14 14
34 34 32 34 37 36 36 32 27 6 3 7 4 3 9 8 8 7 9 5 10 10 12 6 7 3 2 5 4 3 7 4 3 6 7 3 4 8 13 14 15 15 15 14 13
35 35 34 36 37 38 36 26 4 1 3 1 0 1 6 3 4 10 5 9 2 6 3 3 4 3 3 4 6 6 6 3 7 9 8 6 4 12 14 13 16 16 14 15 15
36 36 36 38 38 37 25 4 4 2 2 7 5 5 9 12 13 4 4 5 3 4 6 5 4 7 10 9 8 8 7 17 1 3 3 5 5 15 16 13 14 14 14 15 16
35 35 38 37 38 22 8 3 4 0 10 11 19 15 22 1 5 11 4 6 4 6 2 3 9 9 8 6 8 10 7 10 2 4 4 2 3 10 16 18 17 15 15 14 14
36 36 40 37 26 2 20 4 1 13 3 9 7 6 6 14 13 18 9 5 5 7 4 6 4 11 8 5 7 5 10 6 15 5 3 6 3 7 11 8 11 12 12 13 15
39 37 40 41 4 21 11 5 15 2 3 8 5 6 4 8 5 15 15 7 5 12 7 6 7 9 9 11 8 7 8 8 9 9 7 6 5 7 11 17 14 17 15 16 16
40 37 37 25 18 7 2 19 17 3 5 4 4 3 4 7 3 6 10 4 9 6 6 7 5 8 5 8 9 9 8 11 8 8 5 1 2 6 14 12 21 21 19 19 19
41 37 35 13 11 22 10 15 1 4 7 6 3 1 4 2 5 2 6 4 7 6 3 10 4 8 12 5 10 9 7 6 4 4 2 9 9 5 7 24 25 19 20 20 18
45 38 34 16 6 4 9 4 2 4 4 4 2 3 3 5 6 3 8 7 7 7 7 2 7 4 4 5 1 6 6 2 2 2 6 3 4 12 11 16 24 23 24 22 19
47 37 23 20 14 12 4 4 5 5 9 5 4 4 2 5 5 6 5 5 3 5 5 6 6 8 4 8 8 6 9 6 6 5 5 4 8 10 20 13 9 8 19 15 18
43 23 14 4 6 13 4 4 8 7 5 2 5 2 3 4 4 3 4 9 10 10 11 7 8 4 4 5 10 4 4 7 7 2 2 5 8 9 6 7 8 14 13 18 20
30 13 8 10 7 11 3 7 7 6 3 3 2 3 1 3 6 6 3 4 6 11 6 9 1 9 7 3 4 10 9 3 3 5 5 5 4 6 5 11 9 8 16 18 18
9 4 10 2 11 4 4 7 7 8 4 4 4 2 1 2 5 3 6 5 5 5 9 7 5 7 7 12 15 3 4 5 6 5 7 4 6 9 10 12 12 14 19 18 17
5 4 5 5 1 1 3 6 5 4 2 4 1 5 6 6 5 6 9 9 6 6 5 10 10 10 12 4 6 11 11 9 7 6 3 4 7 5 12 6 9 12 15 8 12
4 4 4 2 3 3 5 5 3 3 4 2 4 6 4 6 4 8 8 9 13 7 7 6 5 10 7 5 1 5 5 6 5 4 8 6 6 2 5 7 8 10 10 9 11
3 4 4 3 0 2 5 5 4 5 6 5 5 4 3 5 6 6 4 3 4 3 16 14 6 11 17 15 5 5 7 7 7 5 6 7 7 6 9 9 8 9 8 10 12
2 4 1 4 2 3 2 4 4 4 3 3 4 7 9 7 7 8 10 13 4 3 6 3 12 9 20 9 7 8 7 9 8 7 7 9 10 11 12 13 13 13 7 8 9
3 3 4 4 4 4 2 3 3 4 3 6 6 8 9 9 10 9 9 7 5 3 5 4 6 6 17 13 11 9 8 9 7 3 7 3 8 9 3 5 6 10 10 11 12
4 4 2 4 4 2 3 1 6 11 8 12 8 7 11 8 7 10 7 6 7 7 2 3 1 3 11 7 6 5 16 9 6 6 9 8 13 7 6 9 10 10 12 16 15

GFSSW_925_spd_003.txt.gz
Wind_Speed
20 21 23 24 21 19 20 20 20 20 22 23 22 23 23 23 23 13 8 11 10 14 11 17 7 10 5 3 4 3 2 5 7 9 8 13 9 6 6 12 6 8 7 13 27
24 24 23 22 23 23 22 22 23 22 21 21 23 22 23 20 17 14 19 15 16 21 18 17 9 9 3 2 4 4 3 5 6 9 10 15 12 13 5 12 7 5 10 26 27
25 25 27 24 22 24 24 25 26 26 24 22 21 22 19 13 6 4 9 4 20 24 20 13 10 7 4 4 6 4 8 4 4 9 15 16 12 11 8 13 11 15 19 25 28
26 27 26 27 26 25 25 26 26 27 27 24 22 19 9 4 7 2 2 6 7 21 13 11 9 8 6 8 7 8 8 8 6 10 16 18 15 11 13 6 11 15 23 26 22
27 28 28 26 26 27 27 27 28 26 27 27 21 13 3 2 11 15 12 9 9 27 21 13 15 8 9 7 7 9 9 9 10 15 15 17 17 11 13 4 9 19 23 24 21
27 29 29 28 26 28 29 29 30 29 26 24 15 2 2 9 7 6 1 3 7 22 22 17 12 9 9 6 11 5 6 5 11 13 13 15 9 9 8 8 14 21 24 22 21
29 30 30 30 31 31 29 30 30 29 26 13 5 2 3 18 9 7 8 5 9 19 16 20 7 10 5 5 4 6 4 7 9 16 8 16 7 14 9 13 15 19 20 20 20
31 31 31 31 33 32 31 30 30 25 11 3 7 2 8 7 7 11 11 7 6 12 15 16 5 1 3 2 4 4 5 6 9 15 10 15 13 13 14 17 17 20 19 18 19
31 32 32 32 35 35 34 30 20 4 3 10 4 3 8 5 5 1 8 7 7 10 7 6 6 4 5 6 6 4 8 9 10 12 9 14 6 10 17 17 17 19 19 18 17
32 33 33 33 34 36 33 17 3 3 3 2 3 3 7 2 2 5 4 11 5 9 7 5 4 9 4 10 14 12 9 8 10 12 9 13 8 8 14 17 18 18 17 18 19
33 35 35 35 37 31 20 3 2 2 4 7 5 7 8 6 13 2 6 7 6 5 9 5 9 16 18 16 10 14 14 14 9 11 12 13 12 6 13 15 17 17 17 18 20
34 36 39 36 35 14 10 4 4 2 10 13 21 21 25 10 9 15 8 4 7 10 7 5 16 12 14 14 9 13 17 16 7 11 12 9 14 9 15 19 19 18 18 19 18
35 37 41 36 23 3 14 3 2 6 4 9 6 6 4 13 10 17 15 10 7 11 11 13 6 10 11 12 13 12 17 15 15 9 3 6 13 10 11 17 17 18 18 19 19
36 36 41 39 3 17 5 9 14 3 4 6 4 4 6 6 6 14 20 9 5 15 10 9 9 14 13 17 15 19 15 15 15 12 13 11 12 11 16 17 20 20 21 20 20
37 38 38 23 16 6 2 8 11 3 6 2 3 3 4 6 6 7 15 10 13 9 8 9 11 15 19 19 14 11 9 16 15 16 8 9 6 11 8 16 23 25 24 24 22
37 39 37 12 10 16 11 9 4 3 8 3 3 3 2 6 3 5 10 5 8 11 5 14 3 14 14 14 17 10 10 5 5 9 10 15 13 10 9 15 24 23 24 25 23
42 40 34 15 5 4 7 3 4 6 2 4 3 2 7 3 4 7 15 15 12 15 16 14 16 7 10 16 15 14 11 6 8 7 9 8 11 17 11 19 23 20 26 26 24
44 40 22 18 6 11 3 3 10 6 13 0 3 4 4 2 4 10 12 18 18 15 12 14 14 20 15 17 14 21 21 12 15 10 12 5 11 8 16 18 15 15 17 21 24
42 25 15 3 5 12 4 10 8 9 4 3 2 5 6 1 4 7 11 18 20 20 15 12 17 6 13 8 18 11 14 18 18 1 6 6 6 10 13 14 11 17 15 21 25
26 10 8 9 6 10 5 13 9 7 3 3 7 4 3 1 3 2 7 7 12 19 20 12 7 20 12 16 15 13 13 11 7 19 18 9 6 8 6 12 12 12 19 22 23
9 6 4 2 11 4 7 8 12 12 7 9 10 8 4 2 4 3 3 2 6 16 21 18 14 7 12 20 24 11 11 4 6 8 15 15 14 8 14 15 13 15 19 20 21
6 4 4 6 3 3 6 4 2 6 10 15 6 7 9 7 8 6 7 7 4 11 11 14 11 14 21 3 13 21 21 20 13 12 6 9 13 4 15 16 13 14 11 13 19
6 4 3 3 5 6 4 5 5 7 7 7 14 13 8 6 6 10 9 9 11 2 9 9 7 12 15 18 14 11 20 22 18 14 18 15 13 3 6 12 13 13 9 9 15
4 4 2 1 2 2 4 5 5 4 7 6 6 7 6 7 8 6 4 4 3 6 6 10 8 11 15 19 16 14 13 19 20 16 16 16 18 10 10 13 15 14 13 10 14
2 2 3 4 1 8 3 4 8 5 3 3 5 12 10 9 14 16 15 17 17 11 4 7 6 16 23 25 24 22 21 17 20 25 18 19 18 17 16 16 18 17 9 10 13
3 3 4 6 10 7 4 3 4 4 3 8 6 10 8 6 11 13 12 14 11 3 5 2 1 2 16 22 24 26 24 18 22 23 19 12 12 13 10 10 9 15 13 14 16
2 3 3 6 5 4 4 4 3 7 7 12 10 9 10 10 4 12 13 14 8 4 4 5 2 6 8 10 16 22 25 21 14 14 16 15 10 7 7 11 16 16 14 17 17

GFSSW_925_spd_006.txt.gz
Wind_Speed
22 21 22 21 18 18 20 22 23 22 20 20 20 21 20 22 22 8 10 10 8 12 15 13 12 9 9 7 7 4 6 4 6 4 11 14 10 7 7 12 7 9 7 22 26
23 24 24 21 19 20 20 20 22 23 22 22 21 22 22 20 13 16 14 14 20 18 18 18 13 12 9 7 5 8 7 5 4 1 13 15 11 13 9 12 9 10 9 27 26
23 24 25 25 22 21 22 22 22 23 23 23 22 22 21 13 11 4 1 5 21 21 16 18 12 12 12 9 8 7 11 6 2 1 11 18 12 12 10 12 12 15 17 25 27
25 25 25 25 24 24 25 25 24 24 24 23 23 22 12 4 6 4 4 7 8 17 13 18 14 15 12 12 11 10 10 10 7 7 10 17 16 11 10 4 13 14 20 25 23
26 25 25 25 25 25 27 28 27 26 23 23 23 16 4 8 15 8 9 7 13 20 20 19 19 18 16 11 10 12 12 9 10 8 11 14 15 10 12 9 12 16 21 24 21
26 27 27 28 28 29 28 29 30 29 25 22 17 4 5 16 3 5 7 8 9 22 22 22 15 19 10 12 11 4 7 9 10 9 11 13 11 11 13 13 12 18 22 22 22
27 29 29 28 29 30 29 31 31 30 27 17 8 3 7 18 5 9 9 8 10 21 17 27 22 17 14 11 12 8 11 5 9 12 9 13 11 14 12 13 13 18 19 21 21
30 30 31 32 32 30 30 31 31 24 13 4 6 4 8 4 6 12 13 13 10 16 19 16 27 16 19 6 7 14 13 12 10 15 9 15 12 16 15 16 15 17 18 20 21
29 32 33 33 33 35 33 28 17 5 2 9 4 6 8 4 8 6 12 11 12 13 11 15 18 17 17 15 15 15 14 13 11 14 7 16 6 15 15 16 15 15 18 19 19
32 33 35 36 33 35 28 14 4 3 3 3 6 6 7 6 11 2 7 10 13 15 11 16 12 15 15 17 17 18 17 11 13 15 12 17 9 6 13 16 16 17 17 19 20
31 35 37 37 37 31 17 5 5 6 9 10 7 14 7 6 6 5 8 15 11 18 14 19 19 21 23 22 20 18 15 13 15 14 17 15 13 11 10 14 16 17 18 19 20
32 35 38 37 37 14 11 7 3 5 13 17 24 24 25 14 10 18 16 15 14 18 18 16 23 22 23 22 24 21 18 17 14 9 15 12 14 12 13 16 17 19 19 19 19
33 35 40 37 23 4 11 1 3 9 8 10 10 10 9 19 15 16 24 20 20 21 21 19 19 21 20 22 24 23 21 18 16 11 15 11 14 14 15 15 16 17 20 21 20
34 35 40 43 4 16 3 5 8 7 6 6 7 7 9 6 9 15 29 22 17 23 21 20 19 23 17 24 22 24 23 18 14 12 13 16 12 14 15 15 17 20 21 21 22
35 33 38 25 17 7 3 5 10 4 6 8 8 9 9 9 4 7 20 25 22 19 21 20 23 21 23 23 25 24 22 19 18 15 18 15 11 13 6 14 19 23 24 24 23
39 39 39 13 11 16 13 9 3 7 9 7 9 12 11 13 5 5 14 20 17 20 17 23 16 20 21 22 22 20 18 13 17 15 18 23 15 15 12 14 16 17 22 24 24
42 42 34 15 6 3 5 6 6 10 4 10 10 14 11 7 9 11 18 22 19 20 20 20 21 17 19 22 23 22 18 11 15 15 15 19 19 16 11 12 15 16 17 22 23
46 38 16 15 10 15 8 7 14 5 18 4 5 11 13 9 9 15 17 20 25 22 14 18 20 26 17 28 26 28 26 16 24 15 14 21 17 18 18 18 21 14 14 19 24
43 20 15 8 13 12 8 15 10 16 11 14 14 15 16 14 7 10 19 20 24 25 23 19 25 23 25 18 27 29 26 26 25 20 16 17 14 22 16 15 16 14 13 17 22
25 21 13 8 11 13 10 25 21 16 10 13 17 12 14 17 13 13 16 16 20 25 22 15 14 23 22 20 26 29 22 24 21 26 24 20 19 12 18 18 17 14 15 17 20
14 6 4 4 14 8 15 23 23 25 16 18 19 20 14 15 15 11 8 11 16 20 21 22 13 14 22 27 27 21 24 21 23 23 20 18 19 17 16 15 16 14 14 16 18
8 5 5 8 8 10 17 20 16 19 24 25 18 21 20 16 16 14 12 9 10 17 25 22 15 15 17 27 29 26 26 26 18 27 21 23 20 16 14 18 22 21 16 11 13
5 8 7 10 8 13 16 17 18 23 22 23 28 22 18 18 20 17 17 13 11 11 15 20 19 14 19 18 16 27 32 29 27 21 26 20 18 18 11 13 13 12 14 7 8
5 4 6 7 12 13 17 14 19 17 21 24 21 20 23 23 19 10 13 14 11 17 7 8 19 22 17 21 20 25 26 30 30 23 24 27 22 21 19 17 17 15 15 10 9
5 4 2 5 6 7 13 15 15 15 14 16 22 22 20 20 21 21 17 10 10 8 6 9 16 17 22 22 20 24 28 28 31 32 29 23 29 25 23 21 18 19 17 12 12
5 5 4 9 13 14 12 13 14 15 9 16 17 21 21 20 19 17 21 18 17 14 15 13 12 13 21 23 25 23 26 28 27 28 30 32 31 23 26 24 24 23 20 15 16
5 9 5 8 8 7 11 11 8 9 11 16 14 11 8 8 7 10 10 13 14 12 14 15 13 10 17 18 22 24 27 27 29 27 25 25 27 30 26 22 25 22 19 17 18

GFSSW_925_spd_009.txt.gz
Wind_Speed
23 21 21 21 21 22 24 24 23 21 20 20 22 23 23 24 22 6 11 12 12 13 10 11 16 16 15 16 15 14 6 3 7 18 15 12 13 7 12 14 11 4 19 23 27
24 24 23 23 22 21 23 25 25 24 23 21 21 23 22 23 19 23 20 16 19 17 14 18 15 15 13 14 12 7 7 8 9 21 17 10 13 13 12 14 13 8 24 28 26
24 24 24 23 23 22 25 27 26 26 26 24 22 21 21 18 18 8 12 5 19 23 21 19 18 15 17 16 13 13 14 20 9 8 12 13 11 12 12 13 16 15 21 24 25
25 25 26 25 24 23 25 26 26 27 27 27 24 23 17 7 7 8 4 4 1 18 21 19 19 18 19 16 15 13 8 7 2 10 4 13 14 10 8 14 16 16 21 23 21
25 27 28 28 26 25 26 27 27 26 26 27 26 22 8 10 17 11 6 6 10 17 22 19 21 19 20 17 15 11 11 6 5 9 9 14 14 11 9 9 15 19 21 23 21
26 27 29 29 29 29 28 30 30 28 26 25 23 10 7 19 14 6 7 10 13 19 23 21 17 18 18 21 17 12 12 10 6 10 10 10 14 11 13 11 16 19 21 22 21
27 29 31 32 31 30 31 32 32 29 25 20 15 5 12 19 7 7 12 13 14 18 18 25 24 18 19 20 18 13 12 14 10 8 11 12 14 14 18 14 17 18 19 20 21
28 30 32 33 33 32 35 32 29 24 16 9 5 7 9 13 11 16 15 16 15 17 21 19 24 22 19 18 23 18 18 16 14 13 12 16 17 17 16 18 18 18 18 19 21
31 30 34 33 33 37 38 28 22 13 4 7 6 9 13 7 11 15 18 18 17 16 17 18 14 21 19 18 17 18 17 21 13 15 14 16 9 17 17 18 17 17 18 19 19
32 32 35 34 32 38 33 16 14 3 1 6 11 7 12 14 12 9 10 16 15 14 14 17 13 18 20 19 18 19 21 20 20 17 13 16 6 18 16 17 17 17 18 19 20
35 35 35 37 35 34 22 6 5 7 16 16 9 12 5 10 6 12 11 15 15 17 18 20 18 23 26 26 23 23 21 19 15 24 19 18 15 15 14 14 16 19 18 20 20
36 37 38 38 36 13 9 9 7 8 14 20 27 28 29 20 14 18 15 14 18 19 21 16 24 24 24 26 24 28 23 19 14 17 21 18 19 19 19 15 15 18 20 21 21
36 38 40 40 21 6 16 10 4 14 9 17 26 25 27 24 26 21 22 20 19 22 23 24 21 24 25 25 27 25 25 19 17 27 22 16 17 17 15 20 16 16 18 22 22
37 38 39 41 11 21 7 3 10 11 7 13 10 9 14 13 16 23 27 25 24 23 24 25 21 25 28 28 26 25 25 24 19 12 12 19 15 21 19 20 19 19 19 20 23
37 39 39 27 19 10 9 10 11 7 7 9 11 16 17 18 13 19 27 26 26 22 18 25 25 24 29 30 29 26 24 24 23 17 23 24 17 11 21 21 21 20 21 21 22
37 40 42 17 14 18 16 11 10 7 14 9 11 14 19 21 14 10 17 25 23 22 23 25 21 26 23 27 23 24 23 24 23 18 18 22 17 19 16 18 17 21 22 21 21
39 41 34 22 12 2 7 8 7 12 3 11 16 19 21 18 20 14 18 25 23 24 23 23 28 23 24 24 25 29 24 16 19 18 19 21 19 20 16 16 18 17 20 23 23
40 37 22 17 15 15 12 9 16 12 28 1 17 20 24 19 19 20 17 21 28 24 17 21 20 29 22 28 28 32 28 20 24 18 18 23 23 22 18 12 12 14 12 15 23
38 23 21 18 15 16 10 16 14 22 18 19 13 20 24 23 19 20 22 22 25 26 25 19 25 18 29 26 27 30 29 28 27 24 20 21 26 23 10 17 18 16 18 12 19
28 26 25 15 10 16 12 30 23 31 15 16 24 20 21 24 20 20 20 22 24 27 26 20 18 22 24 25 26 34 24 27 22 28 26 24 23 18 21 19 18 14 17 14 15
18 6 3 5 11 10 17 25 28 36 32 27 23 25 27 24 26 25 24 23 21 24 26 25 19 16 23 30 30 20 27 23 26 24 21 20 19 20 15 14 19 21 21 17 15
12 7 7 4 10 10 19 27 26 31 26 29 24 27 25 25 22 20 20 25 19 20 27 25 16 16 22 24 25 29 28 32 19 29 21 22 19 13 16 19 16 15 14 16 14
7 11 23 17 14 15 22 29 30 31 31 31 28 30 26 27 24 23 20 19 9 16 20 21 19 17 22 21 23 28 29 31 33 23 26 22 21 23 15 13 14 14 17 20 7
6 7 9 11 13 21 23 26 24 24 26 27 26 26 27 31 26 23 25 22 18 15 3 10 21 23 18 22 19 25 30 31 29 23 23 27 26 24 23 14 12 14 11 12 6
5 11 10 11 12 10 15 21 19 21 25 23 23 31 28 29 26 27 26 20 27 19 20 17 20 23 26 25 19 23 27 28 32 31 28 26 30 27 26 23 20 20 15 18 16
5 7 8 13 19 20 18 20 20 19 17 24 23 23 26 26 24 25 27 24 20 24 22 21 19 19 22 24 24 25 22 28 29 31 33 32 32 25 27 25 19 18 18 18 18
9 17 7 9 17 15 13 21 26 14 10 19 13 17 20 14 17 19 19 21 23 18 23 22 18 18 21 22 21 23 28 26 24 26 27 28 30 28 29 25 24 24 21 21 22

GFSSW_925_spd_012.txt.gz
Wind_Speed
25 25 24 22 21 21 21 23 24 23 23 24 25 24 23 25 26 10 12 14 17 22 12 12 13 20 22 16 19 18 7 5 7 9 13 10 12 13 18 18 20 3 23 28 31
26 26 26 26 24 22 22 24 25 24 23 23 25 25 24 26 21 24 32 26 24 16 11 17 17 17 15 17 17 5 6 7 19 6 10 14 15 11 12 13 13 23 24 31 32
27 27 28 28 27 25 26 27 26 26 25 24 24 24 23 23 14 6 6 11 16 24 23 21 22 18 19 16 18 12 9 18 20 17 14 8 17 12 17 12 15 26 24 23 30
27 27 29 29 28 27 28 27 28 28 27 24 24 24 22 8 6 8 14 8 3 13 20 24 21 19 18 17 18 10 18 20 7 16 15 14 17 12 15 14 20 23 23 23 22
27 27 29 31 30 29 29 30 31 30 28 26 24 22 9 9 22 18 13 9 7 11 22 20 21 19 20 18 20 16 21 15 6 9 10 8 16 15 9 20 20 22 24 23 20
30 29 30 31 30 31 31 34 33 31 29 26 22 13 6 18 17 13 12 10 13 17 22 22 20 17 20 20 21 17 12 13 12 8 12 17 17 16 13 18 21 23 24 23 21
33 33 32 32 33 34 33 36 33 31 28 23 15 6 12 24 16 12 9 15 14 18 18 24 23 19 19 20 21 22 19 9 11 10 9 11 17 12 19 16 20 20 22 22 22
35 35 34 35 36 36 38 35 30 27 23 13 7 7 10 19 22 27 19 18 17 18 19 20 22 20 20 18 21 22 20 16 18 17 10 13 11 12 21 16 19 21 20 20 21
35 36 35 36 37 37 42 33 26 21 11 4 5 10 13 9 21 20 19 20 19 18 18 19 20 19 19 19 18 21 18 21 21 13 17 14 16 5 15 17 19 19 20 20 18
35 37 38 38 38 39 39 29 19 10 4 7 15 9 19 16 17 18 18 20 16 16 16 16 15 16 18 17 16 19 21 19 18 18 18 19 12 13 19 12 18 20 20 19 20
35 38 40 39 36 36 31 11 4 5 11 14 10 13 15 20 22 13 15 18 18 17 18 19 16 20 24 24 23 22 20 22 15 10 17 22 13 10 29 24 20 19 18 19 20
35 38 42 39 37 24 13 8 13 11 15 20 28 28 35 18 12 15 16 14 19 18 20 19 23 24 23 25 26 27 26 24 14 21 20 19 26 31 31 28 21 21 20 20 20
37 38 42 40 32 11 16 21 13 16 10 19 30 29 31 26 23 19 20 19 16 22 22 23 22 23 24 25 27 27 26 23 20 20 22 17 18 23 28 21 19 21 21 20 21
37 38 40 44 13 23 13 7 11 14 7 11 19 21 27 27 32 27 27 22 19 22 23 24 24 24 26 27 27 26 26 27 25 15 12 16 12 4 18 21 21 21 21 22 22
37 38 36 32 22 10 17 16 18 13 7 4 16 3 14 29 5 30 35 26 27 24 19 23 25 26 26 28 28 26 26 26 25 12 18 20 12 12 26 20 25 22 22 22 23
39 39 41 19 10 22 20 18 13 7 11 7 12 12 18 23 26 10 26 27 24 27 25 25 21 27 26 22 27 25 25 25 22 19 17 22 15 21 17 22 20 22 22 21 22
39 42 41 24 9 15 18 8 6 11 8 14 16 15 21 21 27 18 23 27 22 25 25 25 26 25 25 25 25 28 23 15 17 17 16 19 21 13 23 23 20 4 21 22 19
41 41 28 21 19 18 12 8 16 12 28 16 15 19 21 22 25 24 22 22 27 26 18 21 20 27 22 28 24 26 26 16 21 17 19 22 20 16 23 21 15 24 39 24 25
41 27 26 21 21 16 9 15 11 19 19 20 23 20 22 25 24 26 27 23 25 29 25 20 24 19 30 23 26 26 25 27 26 23 17 18 23 22 17 23 20 20 16 18 24
29 31 23 19 20 19 12 29 17 24 24 22 23 22 26 25 27 27 27 27 25 28 28 24 18 23 22 24 28 29 18 23 20 25 25 21 21 13 19 19 17 11 13 13 13
18 8 23 4 14 9 17 24 26 33 33 29 29 30 28 25 28 28 28 24 27 25 27 26 22 19 24 26 26 18 22 23 20 21 17 17 17 15 17 16 20 21 21 15 11
12 9 8 5 10 10 18 27 25 30 32 31 29 33 31 30 28 28 30 27 21 21 29 26 17 19 25 24 27 29 28 27 17 21 19 20 16 16 9 20 17 14 15 13 17
8 13 27 27 15 16 24 30 29 28 29 32 32 31 29 30 28 30 29 26 25 27 25 20 21 16 24 23 23 30 27 24 24 21 24 18 17 20 6 12 12 14 15 14 6
5 6 11 11 17 24 23 26 27 26 24 27 27 24 32 32 29 29 28 29 21 22 6 13 18 27 18 21 18 24 29 28 26 18 20 22 19 27 9 16 15 11 13 12 8
4 7 14 12 16 21 12 23 18 24 25 21 22 21 19 21 29 29 30 30 27 21 14 15 17 21 28 28 25 26 27 27 26 24 23 20 26 20 23 15 20 14 14 13 8
4 7 10 14 21 24 19 17 25 23 23 19 19 21 21 19 14 18 22 27 25 25 19 21 17 18 22 24 27 26 26 27 28 29 27 25 26 21 22 19 15 13 21 12 11
7 12 5 10 16 16 18 20 19 23 16 21 18 11 21 17 24 28 26 28 27 23 21 20 16 16 20 24 24 24 28 22 21 24 24 22 23 19 20 16 14 8 9 13 13

GFSSW_925_spd_015.txt.gz
Wind_Speed
25 25 26 25 24 24 23 24 25 24 23 24 23 23 22 25 29 14 9 22 14 21 17 6 14 17 22 17 12 3 4 3 11 11 4 7 24 13 23 24 22 8 23 28 38
26 26 27 27 27 26 25 26 26 27 27 25 25 23 22 24 22 17 38 27 23 23 17 15 10 14 10 10 12 6 5 12 14 7 6 14 21 17 19 20 9 26 21 37 34
27 27 28 29 27 26 26 27 28 29 29 27 26 24 21 19 6 7 8 13 19 23 23 20 16 11 12 13 12 7 6 11 9 15 15 13 14 13 22 14 23 28 27 26 29
30 29 29 30 30 29 28 29 29 31 30 28 27 24 20 4 5 1 6 8 13 18 21 17 9 9 10 13 16 5 11 11 14 11 5 12 12 16 15 19 24 29 29 25 22
32 31 30 31 32 32 32 31 32 33 31 28 26 23 6 4 14 25 14 11 12 12 17 14 13 12 12 14 16 13 14 17 17 12 15 11 15 17 14 27 26 24 23 25 23
33 34 33 33 33 35 35 33 36 35 30 27 21 12 2 9 19 18 26 18 14 14 15 16 9 14 9 15 13 16 15 16 10 22 15 14 4 12 22 28 28 25 20 22 23
34 35 36 36 36 37 36 37 36 33 30 21 14 4 6 21 10 8 19 23 13 17 10 21 22 11 7 12 16 15 14 16 12 4 11 21 17 6 21 25 26 24 19 14 16
35 36 36 37 38 40 40 41 39 31 25 13 6 5 9 20 19 21 20 30 20 18 21 20 25 12 7 9 14 13 9 6 10 10 7 9 8 12 17 24 23 23 21 17 13
36 38 39 38 40 42 42 43 36 24 11 4 4 5 11 16 14 32 25 19 21 21 23 17 12 10 9 7 7 7 9 11 13 9 7 9 7 20 15 22 22 23 22 19 15
38 40 41 40 41 41 45 38 17 3 2 3 8 3 10 13 17 22 28 32 11 9 11 9 6 7 8 7 10 9 7 11 14 10 16 12 7 6 10 19 22 22 21 20 18
38 40 41 41 40 41 42 14 4 0 6 7 7 7 19 16 14 17 23 16 9 9 11 10 7 16 12 14 11 14 14 16 19 10 9 8 13 12 11 8 11 21 21 21 20
38 41 42 42 41 28 9 4 13 16 13 15 24 27 35 28 12 13 26 12 13 14 9 10 18 11 12 11 17 20 19 19 15 10 10 13 14 15 14 15 10 20 21 22 21
39 42 43 44 36 4 24 19 21 23 7 15 24 17 22 18 22 18 13 10 10 13 14 17 9 17 18 17 18 21 20 17 11 8 7 11 3 2 8 4 6 11 22 23 24
38 42 41 49 7 29 15 28 26 26 5 8 8 9 12 14 11 28 21 11 12 16 15 12 17 19 22 21 19 18 22 22 20 14 7 16 5 3 5 2 11 15 19 23 24
38 41 40 39 19 10 13 27 30 16 5 6 7 11 12 21 8 23 30 13 18 17 9 17 16 20 19 22 19 20 14 21 22 15 7 20 1 13 15 20 27 23 25 23 23
40 42 44 25 16 27 27 32 17 2 9 7 8 8 12 20 13 4 27 21 11 15 14 17 10 17 18 15 21 15 14 16 18 13 11 16 16 6 18 24 25 22 21 22 22
42 44 43 26 8 12 19 9 2 7 8 7 6 11 14 13 21 23 20 26 22 16 19 16 20 21 16 17 13 18 8 12 10 12 8 11 14 11 15 21 28 24 12 10 6
40 44 34 24 20 17 7 3 11 9 13 18 8 13 14 14 17 21 14 22 24 17 7 14 17 23 14 19 15 15 15 12 12 12 9 8 14 9 15 19 23 19 18 23 33
41 28 23 28 20 23 6 9 6 9 9 13 18 12 16 15 12 18 18 20 21 23 19 14 16 9 23 20 17 11 18 15 5 8 6 7 9 11 17 13 18 21 27 29 23
29 17 19 21 14 16 8 16 7 12 23 20 9 8 11 16 16 17 20 19 22 27 22 11 7 18 19 22 17 19 7 12 14 14 17 16 10 10 6 17 16 16 20 20 15
9 6 21 14 21 7 16 12 17 21 22 11 16 25 24 25 19 22 17 23 25 23 25 23 15 18 10 17 22 13 16 11 7 12 12 9 15 7 9 17 16 18 20 22 23
8 5 23 31 6 6 14 16 18 23 23 24 20 25 26 26 28 25 24 20 14 26 21 22 15 15 24 18 21 21 10 12 9 6 4 9 14 9 13 8 25 30 22 24 16
6 8 24 14 5 8 12 20 22 22 21 22 25 22 20 24 24 22 25 28 24 20 23 13 17 10 14 13 17 20 19 11 17 5 12 4 11 18 17 7 6 6 6 7 7
4 5 5 9 6 13 15 12 15 17 20 21 19 19 17 20 18 19 24 21 25 24 17 10 14 27 17 12 6 8 22 20 15 14 16 21 15 20 7 9 9 15 12 13 8
3 4 11 7 11 20 15 6 16 14 10 13 13 17 21 14 23 18 14 18 22 23 14 5 18 16 21 16 16 24 16 24 22 18 14 10 16 12 10 10 10 11 9 8 9
2 4 5 10 13 17 17 15 16 19 11 15 18 11 18 11 17 19 21 15 12 16 15 14 10 9 10 8 24 20 18 19 24 23 19 18 22 7 6 9 6 8 15 12 8
6 7 2 4 10 9 11 18 18 17 6 8 18 12 15 16 8 18 20 23 22 26 23 10 6 4 9 7 6 15 26 19 11 17 16 18 19 8 11 8 8 11 9 11 10

GFSSW_925_spd_018.txt.gz
Wind_Speed
23 23 24 25 25 23 23 23 24 24 24 26 25 22 21 24 25 14 9 26 20 25 11 20 15 15 16 10 5 3 3 4 4 2 9 15 17 12 8 20 10 6 14 26 32
25 25 25 25 25 25 25 24 26 25 27 27 26 23 21 22 21 15 30 26 23 18 25 17 10 15 5 7 6 4 3 6 9 3 8 20 23 18 13 19 10 21 22 31 31
27 29 28 28 28 29 29 28 28 27 29 28 25 23 21 15 5 8 11 8 18 26 19 20 19 7 10 6 8 9 10 9 18 13 13 21 22 19 25 15 26 27 26 26 27
29 31 31 31 31 31 32 31 31 29 31 29 25 21 16 2 6 1 3 5 16 21 17 9 6 5 4 8 10 9 17 18 24 5 10 21 20 16 24 13 25 29 31 26 23
32 34 34 33 33 34 34 35 33 33 34 29 23 16 3 2 13 17 5 4 14 19 15 10 8 6 6 6 2 8 9 15 17 14 7 16 19 23 17 21 22 25 26 26 21
34 35 36 35 36 37 37 38 35 36 35 28 17 7 2 9 14 13 12 17 17 18 12 10 8 9 5 8 6 4 8 10 15 18 10 7 10 16 16 26 24 28 25 23 23
35 37 37 35 36 38 40 39 38 38 36 24 9 4 4 20 7 1 4 22 27 23 7 20 21 5 2 8 5 6 7 11 10 22 4 15 7 14 26 29 29 27 24 23 22
37 38 41 38 38 40 40 41 41 37 23 12 6 7 9 13 15 21 18 26 21 20 25 21 22 9 4 7 8 5 2 5 7 10 12 10 13 14 25 28 28 28 23 22 21
39 40 43 44 41 43 44 40 33 11 4 8 9 6 11 8 9 26 26 15 30 30 27 22 7 8 3 4 5 4 6 6 12 12 12 3 6 11 25 27 27 24 25 22 19
39 40 44 46 47 45 45 31 8 5 8 6 3 2 8 6 5 8 18 26 5 7 4 6 3 5 1 4 6 6 4 6 7 4 7 4 6 18 25 24 24 24 22 22 20
40 41 45 49 46 48 32 8 4 2 2 8 7 7 14 6 13 9 16 14 5 3 8 6 4 12 9 7 6 5 6 8 14 5 6 17 15 23 25 23 23 21 20 20 21
40 42 46 51 51 21 10 4 2 12 13 16 23 26 37 7 7 7 18 9 8 11 6 4 12 7 8 7 9 10 12 18 12 7 5 8 22 20 23 27 27 24 21 22 20
40 42 46 51 36 4 25 7 24 30 5 8 15 15 12 18 15 20 6 9 9 9 9 12 8 13 10 11 10 14 15 19 10 6 1 8 3 7 10 9 15 19 23 23 24
39 41 44 52 8 33 13 23 29 20 4 8 6 8 8 9 9 21 14 14 6 18 12 8 14 12 18 14 11 10 12 19 10 2 4 4 4 6 9 9 20 22 21 22 23
38 41 42 42 21 10 17 28 35 2 5 3 5 7 9 11 6 13 25 4 15 9 8 8 17 17 15 16 16 13 9 14 13 9 2 8 2 7 11 12 15 18 21 21 23
39 41 44 28 16 23 19 33 8 4 8 7 5 7 8 5 3 1 11 4 3 8 10 11 8 13 15 13 18 14 6 9 3 9 7 14 13 6 8 20 19 23 22 24 23
39 41 42 27 7 14 23 6 3 5 4 4 5 7 3 8 7 2 20 16 14 7 11 10 17 7 7 9 9 8 7 6 6 7 11 10 7 11 16 17 23 24 16 19 25
40 40 41 36 30 18 9 3 6 5 9 7 10 12 5 4 7 7 7 17 14 5 4 11 12 14 8 17 10 9 13 9 10 4 5 5 8 11 15 23 26 26 16 17 22
37 35 28 24 12 13 3 4 7 6 6 12 11 4 7 8 13 7 14 16 15 18 12 8 12 3 19 11 15 11 7 13 6 3 1 5 7 6 8 18 22 19 15 21 26
31 13 18 14 13 13 2 5 6 3 12 9 3 3 10 13 9 17 5 7 13 23 22 11 4 9 21 14 20 11 7 4 1 12 15 5 6 8 7 10 16 22 23 25 29
11 4 11 14 27 3 6 7 6 21 9 8 14 14 16 11 9 10 10 15 7 9 22 20 8 10 3 11 15 8 10 2 4 6 10 4 15 8 11 9 12 25 31 29 27
6 3 13 36 4 1 5 6 9 16 22 12 10 18 16 16 17 10 12 9 20 18 9 12 14 16 23 10 11 21 13 11 8 9 6 15 24 3 9 10 11 21 25 27 28
2 4 13 7 4 6 9 9 8 11 8 7 5 7 8 5 6 8 8 11 19 14 8 10 6 10 7 8 2 7 14 16 6 4 16 8 6 7 6 5 6 9 9 12 17
2 4 4 3 2 8 8 7 11 10 9 3 5 4 7 2 2 6 12 10 23 19 20 11 7 12 19 21 6 6 12 14 19 13 13 19 6 6 5 4 6 8 16 13 11
1 4 3 4 5 9 9 8 10 10 9 4 4 10 3 4 6 5 4 12 12 6 14 8 6 7 15 19 20 11 11 19 20 23 20 19 10 10 9 9 10 9 11 16 15
2 3 4 5 5 6 4 3 8 12 8 7 5 11 3 3 10 16 11 4 4 7 11 6 5 8 8 16 25 22 19 21 18 21 21 10 8 10 12 9 8 10 12 10 12
6 8 2 5 5 3 3 7 14 17 8 8 14 8 11 13 9 8 12 11 12 6 5 4 4 9 6 7 20 14 31 20 13 13 14 12 10 10 9 10 11 10 10 12 13

GFSSW_925_spd_021.txt.gz
Wind_Speed
23 24 24 24 23 23 23 23 22 23 21 23 23 20 20 22 24 14 8 24 21 14 22 30 19 19 24 7 5 1 1 3 5 5 5 10 5 10 3 12 5 4 8 20 32
24 25 26 26 26 25 25 26 26 26 23 24 24 20 19 21 19 14 32 27 22 29 28 24 13 17 6 5 4 4 2 6 7 5 12 16 15 17 6 14 2 10 17 29 30
26 27 27 27 26 27 27 27 28 28 25 26 24 19 17 13 5 8 8 8 24 31 26 27 20 12 5 3 7 5 6 2 7 3 16 17 13 5 16 8 8 24 22 23 29
28 30 31 30 29 29 28 28 31 28 27 26 23 17 11 2 6 1 9 3 26 31 22 15 6 8 8 10 8 6 8 12 18 5 12 16 12 6 19 7 20 26 27 24 23
34 35 36 37 36 35 34 36 32 33 30 26 20 11 2 2 12 17 2 9 26 29 19 9 7 8 6 5 8 14 14 13 20 16 15 17 19 15 22 9 19 21 23 24 21
37 37 37 39 40 39 41 38 40 36 31 26 14 3 3 8 13 12 12 14 17 25 13 9 8 8 4 6 6 6 12 12 10 10 16 19 17 10 16 18 19 22 24 22 22
38 39 40 42 44 45 42 46 43 37 30 19 10 7 3 18 6 5 4 15 20 28 8 20 16 7 5 5 6 5 5 6 8 7 10 22 9 19 16 22 23 23 22 21 21
39 40 42 45 48 47 48 45 39 26 14 8 13 9 8 11 10 31 25 28 24 24 25 19 23 7 4 3 7 2 2 3 4 5 8 17 17 19 20 24 23 23 20 21 21
40 42 44 48 51 51 49 40 19 7 4 15 11 6 10 3 6 22 20 11 21 19 20 12 6 6 3 4 4 4 5 6 6 6 6 9 7 12 24 24 23 22 20 20 18
40 42 44 49 50 52 36 16 4 9 8 5 2 1 7 4 5 6 16 24 5 6 1 6 4 4 2 4 8 5 4 5 4 4 8 3 3 18 21 22 23 22 20 19 19
40 42 46 50 53 31 35 4 4 2 2 7 5 5 6 7 9 7 10 13 1 5 8 6 5 8 10 6 6 4 3 6 5 3 4 14 6 18 22 19 20 20 19 20 22
41 43 46 50 49 10 29 4 7 6 13 17 24 22 34 3 5 4 17 8 8 8 6 3 14 8 9 7 8 7 7 12 2 7 5 7 12 19 23 28 27 23 22 23 20
40 42 45 49 33 10 19 4 19 22 5 8 8 8 6 20 11 11 6 7 6 9 9 11 6 10 9 6 7 5 9 11 8 2 1 6 3 11 19 15 16 19 23 22 23
39 42 43 51 8 29 11 24 30 11 4 8 6 7 6 8 8 14 15 11 5 18 8 7 10 10 9 8 10 9 6 10 3 3 3 3 4 5 8 19 19 19 21 22 22
38 41 41 40 19 11 14 31 32 3 6 3 4 8 6 9 2 10 12 5 11 8 9 10 14 17 13 18 8 10 5 7 4 5 1 4 0 6 10 15 19 21 21 22 23
39 42 42 24 18 22 20 33 6 3 9 6 3 3 4 4 4 6 13 1 6 5 4 11 5 14 11 9 13 5 2 4 3 3 4 16 9 7 8 22 23 22 23 25 23
40 41 45 18 8 18 22 7 3 5 5 5 5 5 3 4 4 4 16 14 10 11 15 6 19 5 6 8 6 5 7 4 4 4 10 8 6 15 10 25 25 26 27 27 25
38 40 34 21 17 18 6 3 6 4 6 5 6 9 2 10 3 6 11 17 15 4 6 11 6 15 5 10 10 8 11 6 7 4 7 5 9 8 17 12 27 26 27 23 24
36 36 18 13 21 3 3 4 7 5 3 8 7 6 6 6 8 8 6 16 18 11 9 8 10 3 15 7 15 7 10 12 3 2 3 5 7 5 8 12 9 16 18 21 24
29 14 15 11 26 3 4 4 5 3 6 5 3 4 5 8 7 8 6 3 9 3 5 8 2 7 12 7 8 15 9 4 2 11 12 5 6 6 7 16 10 10 15 18 21
11 5 6 28 10 3 3 6 6 10 6 7 4 4 2 4 4 3 5 6 12 12 9 2 4 5 6 9 19 5 9 3 7 7 10 6 10 8 10 9 11 11 17 19 19
5 4 16 24 5 3 4 13 11 12 8 3 4 3 3 4 3 3 5 7 14 10 6 6 3 14 12 8 20 14 18 8 5 11 5 8 12 1 15 15 11 11 15 19 21
4 3 10 6 4 4 6 8 10 13 7 5 5 5 5 4 3 3 5 7 17 12 6 7 4 2 6 5 0 9 9 19 9 4 21 7 7 6 10 7 8 10 10 12 15
3 4 4 4 2 3 5 4 11 11 10 9 3 3 4 4 4 4 5 3 14 11 10 2 3 3 7 6 0 8 12 16 17 10 16 18 8 5 7 11 8 9 10 9 9
0 3 2 4 4 5 7 5 6 8 6 10 3 7 3 1 2 2 4 8 10 9 6 4 2 4 7 15 18 15 13 23 19 22 16 18 12 15 10 11 10 11 8 7 9
2 2 0 3 4 7 5 4 4 6 5 8 7 12 7 4 4 5 3 2 4 6 7 5 3 6 6 10 13 17 19 25 24 22 16 12 8 9 14 10 6 11 9 10 12
4 5 2 3 4 3 3 3 6 13 8 5 8 11 7 3 5 9 9 7 6 3 2 2 1 5 6 9 14 11 29 21 20 15 17 20 9 8 9 9 12 12 11 11 12

GFSSW_925_spd_024.txt.gz
Wind_Speed
25 26 26 26 26 25 24 24 23 23 23 21 21 22 20 19 22 14 9 22 16 14 25 25 15 20 15 7 3 0 3 3 4 3 2 7 5 5 5 12 3 4 6 12 28
26 27 27 27 27 27 26 25 24 24 23 22 21 21 19 18 18 14 34 21 18 27 30 26 12 16 4 7 5 4 4 6 5 3 3 7 9 10 5 11 1 7 14 29 29
27 28 29 29 28 29 29 28 28 26 24 23 21 19 16 12 5 8 7 5 26 33 35 24 18 8 5 4 5 6 6 5 4 5 8 7 6 4 11 7 6 17 21 23 27
30 31 31 30 31 32 32 32 31 31 27 23 19 16 9 3 6 1 10 7 34 38 32 17 11 6 6 6 6 3 9 8 5 4 7 10 8 6 14 6 8 16 26 22 21
33 34 35 35 36 35 34 36 34 31 28 23 17 11 3 3 11 7 6 14 35 28 27 11 15 5 7 5 4 7 9 7 13 7 9 9 13 8 14 4 15 18 21 22 20
36 37 38 39 41 42 43 41 37 32 28 24 14 5 3 7 9 7 12 18 31 29 15 11 10 7 3 3 7 5 12 15 6 6 6 12 12 8 8 10 17 20 19 18 20
35 37 39 42 45 45 48 42 35 30 24 19 13 11 3 15 5 9 13 23 33 33 9 15 9 11 6 4 8 6 7 6 8 6 8 9 3 17 10 18 18 19 18 17 17
36 39 41 44 48 50 42 37 30 16 7 6 15 11 8 8 11 26 12 21 23 32 14 29 17 2 2 2 6 2 1 2 2 7 6 15 18 19 16 20 18 19 17 18 17
39 42 44 47 49 52 28 28 8 11 9 20 13 5 9 3 7 18 28 11 21 23 23 5 7 6 2 3 4 3 5 6 4 9 3 8 9 13 18 19 18 18 18 18 16
39 42 45 48 49 44 36 7 7 9 10 2 5 1 5 5 5 7 19 24 5 8 5 6 3 4 3 5 11 5 4 4 4 3 6 12 6 8 20 20 20 20 18 18 18
40 43 45 50 51 29 33 3 5 2 4 7 4 5 5 4 5 5 9 13 7 5 8 6 5 13 10 6 5 6 4 3 3 2 4 13 8 9 17 16 18 19 19 19 21
41 43 46 50 44 16 14 6 6 3 12 14 22 17 23 4 4 3 22 8 7 7 9 4 20 10 9 9 8 6 6 7 4 7 2 3 9 7 16 23 23 22 21 21 17
41 43 46 49 27 17 12 8 14 12 4 9 7 7 7 13 11 8 13 6 6 9 17 18 6 12 12 7 9 6 11 5 4 2 1 3 6 5 14 7 14 16 19 19 20
40 42 46 53 8 28 11 10 28 4 3 7 5 6 5 9 6 10 18 7 5 21 8 8 6 13 8 12 10 8 8 7 7 4 4 5 5 5 6 19 18 17 20 19 19
40 42 44 31 15 9 11 26 29 4 6 1 2 8 6 6 0 7 9 2 10 9 9 10 13 15 12 9 8 10 7 8 5 6 2 4 1 6 8 10 16 18 20 21 22
40 43 46 21 16 15 26 30 3 3 9 4 3 1 3 4 4 3 5 1 6 6 1 9 5 13 11 7 9 7 4 5 5 4 5 9 8 5 7 15 18 17 20 19 20
41 45 34 15 11 25 23 6 3 5 6 5 4 5 5 4 3 4 10 13 11 7 9 5 16 3 6 7 4 5 8 2 2 3 10 9 8 15 8 15 18 25 25 21 21
42 41 24 7 27 21 8 3 5 2 4 4 5 7 3 8 4 5 9 16 5 5 6 9 6 16 5 9 9 8 9 6 8 5 6 7 9 6 13 10 17 20 22 21 21
39 34 11 10 28 13 4 1 4 3 6 10 8 4 4 5 2 4 4 2 7 2 7 8 9 3 7 5 16 6 11 9 4 1 2 5 8 5 7 10 10 18 12 15 20
31 14 13 15 24 1 4 4 5 7 13 6 4 6 5 6 5 6 5 8 10 7 4 3 2 7 16 6 8 10 8 4 2 6 6 4 5 6 8 14 13 9 13 17 19
12 4 7 31 5 4 3 5 6 11 12 4 5 6 4 4 5 4 5 6 12 9 7 6 3 2 7 10 20 3 6 3 6 6 6 0 7 8 10 11 13 16 17 18 18
4 4 17 22 5 2 3 6 8 11 11 5 5 6 4 5 4 4 4 4 11 9 4 1 2 7 6 2 5 21 11 8 6 11 4 4 9 5 10 12 11 11 12 11 13
3 3 9 10 4 4 6 6 3 9 9 8 5 4 4 4 3 5 4 5 12 9 4 6 2 2 4 5 1 4 13 7 13 3 16 8 9 10 5 7 10 11 10 9 11
3 5 4 4 2 3 6 5 6 6 4 9 6 6 6 6 5 4 6 5 8 6 7 3 1 4 3 1 3 6 5 8 16 12 18 19 14 6 6 8 8 9 10 10 10
2 2 2 4 4 5 5 4 7 7 6 4 5 9 5 3 5 3 5 5 4 6 4 4 0 2 2 12 7 11 14 12 10 22 15 21 24 11 9 10 14 14 7 8 8
1 1 1 4 6 7 3 3 3 5 4 6 1 11 12 3 3 3 6 2 4 5 4 4 2 2 4 9 10 12 13 14 14 10 10 21 11 9 12 10 7 10 9 10 10
3 3 2 3 3 2 3 4 4 11 9 10 6 11 8 8 3 8 7 8 7 4 3 3 3 2 4 6 12 15 9 15 9 8 12 17 11 8 7 10 14 16 11 13 13

GFSSW_925_spd_027.txt.gz
Wind_Speed
26 27 27 28 26 26 26 25 25 24 23 21 20 19 20 20 21 11 9 17 14 15 23 24 18 17 15 8 4 1 3 2 0 2 3 10 5 6 6 13 5 6 7 16 31
27 28 28 28 28 29 27 26 25 26 24 23 21 19 18 18 16 15 31 23 17 26 27 28 18 20 7 6 4 5 3 3 2 2 2 11 9 11 5 12 6 7 14 28 28
28 29 29 29 29 30 30 28 30 27 25 23 21 17 14 12 6 7 3 6 23 29 25 24 26 15 8 7 7 5 5 5 3 6 4 12 9 8 10 10 12 15 20 27 28
28 28 30 30 31 32 31 35 34 30 26 23 19 15 7 2 6 1 7 10 28 28 29 22 19 13 9 9 11 5 10 9 2 3 5 9 11 8 11 2 10 15 25 27 25
30 31 33 34 35 37 37 41 36 29 25 21 15 10 2 4 11 15 6 21 31 27 32 20 22 13 12 9 6 15 9 7 10 12 11 8 15 9 16 6 11 19 25 24 21
32 35 36 38 40 40 43 40 30 32 26 19 11 4 3 8 7 13 8 28 31 29 28 21 16 11 7 6 12 4 9 11 9 13 9 14 11 9 11 13 18 22 26 24 23
35 37 39 41 44 45 44 32 34 29 21 17 11 9 5 15 5 11 18 25 35 31 25 23 10 16 6 4 9 9 12 11 12 8 8 13 9 16 11 18 20 23 22 22 22
36 39 42 44 47 48 38 34 16 12 4 7 15 10 8 6 21 9 16 10 26 22 25 18 8 14 4 1 2 5 4 5 1 9 5 14 16 15 19 20 21 23 22 21 23
38 41 44 48 49 43 35 18 11 16 12 20 12 5 7 2 7 20 18 13 23 21 11 15 9 7 5 8 6 6 10 8 7 9 3 11 12 6 21 21 21 22 22 21 21
39 42 45 48 48 33 28 2 7 9 9 2 6 3 7 4 6 11 24 23 11 16 9 7 7 12 10 12 14 10 10 9 12 3 8 13 15 2 19 21 22 22 21 22 23
39 42 46 47 44 23 26 2 3 3 2 7 2 5 4 5 7 6 26 19 11 15 13 17 13 22 23 18 15 8 16 10 5 7 9 14 16 9 17 20 19 20 21 23 25
40 43 45 46 35 15 12 5 6 7 12 14 22 17 23 4 2 11 26 17 15 17 16 9 25 21 16 15 17 16 18 16 8 9 4 6 10 9 17 22 23 24 24 25 22
41 43 44 46 20 16 7 8 12 7 6 9 8 7 7 13 7 15 25 14 23 23 27 24 6 19 19 16 18 22 23 19 13 2 4 7 12 6 13 17 19 22 22 19 24
42 42 42 40 6 21 3 17 23 1 5 5 5 5 7 8 9 16 24 15 10 26 22 21 19 22 22 25 22 22 17 15 15 9 14 6 13 7 13 18 18 20 22 23 23
43 42 40 20 10 8 15 27 19 4 6 4 4 8 8 10 1 10 24 10 20 20 17 18 23 19 25 24 22 17 12 16 15 14 10 14 9 13 4 12 19 22 24 24 24
43 42 34 10 11 19 28 23 3 4 9 1 4 3 5 10 2 4 13 12 8 10 21 20 8 25 16 19 21 13 12 7 4 9 15 19 13 17 14 15 15 17 22 24 24
44 41 21 9 8 31 23 4 4 6 7 5 4 6 4 2 5 5 18 25 17 16 17 21 14 10 17 17 17 20 15 7 10 11 15 12 14 21 10 18 20 19 23 24 25
43 35 8 10 22 29 9 3 8 4 6 11 9 15 3 4 1 2 15 22 20 17 15 18 16 23 16 17 15 25 21 9 13 13 11 7 14 13 16 18 20 19 18 19 22
40 30 10 19 27 11 3 5 5 9 9 13 14 4 1 3 4 3 5 19 19 9 12 17 18 6 20 12 22 14 23 22 6 1 4 14 15 11 9 19 18 19 16 18 22
30 11 9 34 15 4 2 2 3 10 14 8 5 7 6 9 4 2 3 6 5 3 5 6 6 13 18 20 23 15 17 10 13 12 12 8 9 13 19 19 18 19 18 19 19
8 4 17 31 8 3 3 5 5 8 13 7 9 7 7 7 7 4 6 7 9 8 5 1 5 3 14 19 22 10 17 10 11 9 7 6 9 8 16 19 22 22 21 20 19
5 3 20 21 6 3 4 11 7 10 9 5 6 5 5 6 5 4 3 6 14 8 3 5 2 12 15 12 21 24 19 21 11 11 12 9 6 4 11 8 13 16 14 13 14
4 3 10 10 5 7 9 7 6 10 10 7 6 9 5 5 3 6 6 6 13 12 6 5 3 10 12 11 8 18 23 21 21 10 15 12 4 9 8 3 7 10 11 12 12
2 4 3 3 2 6 9 6 8 11 4 7 6 6 7 3 3 3 4 4 9 9 9 4 1 7 12 7 4 4 6 19 23 16 19 21 17 7 3 5 10 10 12 10 10
2 2 2 5 5 9 10 5 11 9 7 8 1 7 8 4 5 5 8 7 4 10 7 4 1 4 5 8 8 10 12 12 15 21 23 23 27 20 17 16 14 11 10 9 11
3 2 1 7 8 8 6 2 7 7 10 9 6 10 9 5 8 7 10 5 3 6 6 6 1 3 8 9 8 14 15 14 16 19 17 23 26 17 8 16 18 21 18 16 14
2 3 2 3 4 5 3 6 10 15 7 4 6 10 12 11 10 12 12 13 14 10 5 5 3 3 6 6 14 16 23 19 17 15 16 23 18 13 15 16 16 19 18 17 14

GFSSW_925_spd_033.txt.gz
Wind_Speed
24 24 25 26 26 26 25 25 24 24 22 21 19 18 16 17 19 12 17 13 18 14 15 20 24 23 21 19 20 13 9 6 4 9 13 9 13 10 11 13 9 3 21 28 32
25 26 27 28 28 28 28 27 26 26 26 22 19 17 14 13 17 25 30 21 23 19 20 26 24 22 17 19 15 14 6 8 7 5 11 9 16 10 12 12 11 17 28 32 33
27 29 30 31 32 30 31 31 29 28 23 20 18 16 10 9 15 14 10 38 25 26 24 25 24 20 21 16 18 17 8 25 6 9 2 12 16 9 14 11 13 19 26 27 30
30 31 33 34 35 34 36 34 30 27 23 22 20 15 7 8 6 8 6 14 32 28 27 25 22 23 21 21 17 16 10 16 9 6 1 7 15 12 4 13 17 20 25 26 25
31 33 35 37 38 37 40 32 33 30 28 23 17 10 5 10 16 5 4 7 22 31 31 24 25 23 23 19 15 18 17 10 4 4 5 3 7 5 9 13 19 21 24 25 23
33 35 37 38 40 41 41 30 34 27 17 13 11 8 10 18 10 14 9 14 21 33 31 27 22 23 21 20 18 15 17 11 10 11 9 10 8 8 12 14 20 22 24 24 24
35 37 39 41 42 44 36 32 28 17 17 11 12 14 15 19 5 8 16 20 22 32 25 29 25 19 21 16 16 19 8 16 14 13 9 9 12 15 17 17 19 21 22 23 24
36 38 39 41 41 45 26 29 17 15 18 6 14 12 9 4 22 13 16 21 22 27 26 25 27 21 23 15 7 19 19 17 20 19 15 12 16 17 16 18 20 21 21 23 25
36 38 39 41 42 35 29 21 10 12 6 12 10 14 10 4 15 25 21 24 25 24 23 21 23 16 22 18 15 17 18 23 20 22 16 16 16 20 19 19 19 19 20 21 23
36 39 40 41 39 29 30 17 9 5 2 6 8 7 10 11 15 23 25 25 22 19 18 18 15 18 20 20 20 22 23 21 22 17 18 19 19 15 19 19 18 19 20 21 23
38 40 41 39 26 27 29 17 4 7 14 14 6 15 2 8 5 20 26 23 22 21 19 24 20 26 29 27 24 22 21 23 22 17 22 19 20 18 16 14 17 20 21 22 23
38 40 41 35 16 20 20 13 9 10 16 22 29 28 32 7 12 18 29 23 25 26 26 19 27 26 25 27 25 27 25 23 21 14 13 17 18 16 15 18 17 21 21 23 22
38 39 39 31 12 16 8 19 16 15 9 18 27 25 23 25 16 23 31 29 29 30 29 27 20 27 26 26 27 28 27 23 19 21 17 16 18 17 16 14 15 20 21 22 24
37 38 33 29 7 18 12 22 18 11 7 9 10 8 22 20 20 26 35 31 20 33 31 29 25 25 27 27 26 26 26 23 20 19 18 23 16 20 18 17 18 20 21 21 23
36 37 24 10 14 11 19 23 18 8 7 13 10 8 11 23 8 30 34 34 27 26 29 31 28 23 27 27 25 25 20 25 23 22 20 24 17 18 25 26 22 21 22 22 24
37 29 17 8 14 16 23 21 8 8 10 7 7 10 14 24 25 23 27 32 30 25 27 30 21 24 22 23 23 21 16 19 22 19 21 25 21 20 19 18 24 24 23 24 22
38 19 9 10 12 22 20 11 8 11 1 9 11 10 12 17 24 17 32 32 29 29 29 28 32 24 22 22 24 18 19 12 16 18 20 24 25 20 20 21 20 21 24 23 21
37 14 9 9 18 18 17 12 14 19 15 21 19 22 20 19 22 24 27 26 35 30 19 22 24 33 21 28 24 26 25 15 21 18 17 25 27 24 26 17 18 22 21 22 22
29 9 5 16 17 14 9 12 12 13 18 19 26 20 18 22 7 25 27 28 30 34 31 25 32 31 31 24 27 23 25 27 22 23 14 19 27 24 21 26 20 15 23 22 23
23 17 1 20 16 13 9 15 13 12 17 16 20 16 22 15 9 16 23 24 26 34 30 28 18 31 31 26 29 27 26 23 17 18 16 15 15 18 20 15 27 25 18 23 21
15 7 12 20 15 8 9 11 17 17 13 13 20 21 18 19 25 17 20 8 10 14 33 32 20 18 25 29 27 26 22 24 20 18 13 11 12 15 19 20 19 20 26 21 20
10 7 16 19 11 2 7 9 6 13 13 13 15 19 18 13 18 20 16 10 12 14 15 22 14 20 31 28 26 27 28 27 17 24 17 12 3 9 6 7 19 20 18 23 21
9 9 1 13 7 9 9 13 9 12 9 9 12 13 19 17 8 14 11 9 11 11 8 8 14 16 21 25 28 31 31 25 27 18 21 15 6 9 5 1 13 16 15 16 17
6 5 6 8 7 12 13 15 14 6 7 12 7 7 16 17 16 11 10 12 7 9 14 9 16 23 17 24 23 28 28 30 24 19 18 20 13 12 9 10 8 5 7 10 5
5 5 5 7 10 12 12 13 12 7 9 13 1 7 8 8 17 9 11 15 11 3 11 6 15 20 26 17 8 28 31 31 30 24 24 15 19 16 13 11 12 13 9 8 8
5 5 7 12 7 13 12 13 10 13 14 15 8 15 11 12 12 15 13 13 5 13 11 11 12 18 24 23 6 13 20 33 30 28 25 23 16 18 16 11 7 5 5 5 7
7 13 5 7 10 8 11 13 13 16 11 9 10 13 15 9 13 16 11 17 16 14 13 12 10 8 15 20 11 17 20 19 23 27 24 22 19 14 5 3 5 6 8 10 10

GFSSW_925_spd_036.txt.gz
Wind_Speed
25 26 28 28 28 26 25 25 26 24 23 23 22 20 18 17 19 15 17 17 22 19 9 12 21 23 22 21 19 22 5 9 9 12 4 15 15 19 18 15 11 13 26 30 36
27 28 29 29 29 29 27 29 27 26 25 22 19 17 16 15 19 28 29 27 21 19 17 20 20 21 17 19 16 14 3 6 12 7 8 12 15 18 13 15 25 27 30 37 34
29 30 31 32 32 32 31 33 29 24 26 22 19 16 14 10 11 13 15 36 31 25 25 22 23 21 21 18 16 8 6 19 22 15 4 11 16 16 15 17 25 27 30 29 32
32 33 34 35 35 35 36 39 28 28 28 23 20 16 10 6 6 6 4 16 38 25 24 26 22 23 22 20 20 11 3 18 14 23 16 5 10 16 10 20 26 26 29 29 26
32 34 35 37 38 38 40 36 27 31 23 17 14 9 3 10 13 13 3 5 29 25 27 23 24 23 23 21 20 19 19 20 11 19 24 24 10 4 21 22 24 28 27 28 26
34 36 38 38 39 40 37 26 30 27 19 15 9 7 7 17 16 21 10 17 23 29 29 27 21 22 21 23 21 17 19 19 26 16 6 11 18 24 17 23 24 26 27 26 27
35 37 39 39 40 40 29 29 31 24 18 16 10 12 14 22 11 11 19 18 23 29 25 31 29 22 24 21 23 19 17 17 16 12 10 12 12 16 4 26 24 24 24 24 24
36 39 40 40 42 33 31 31 28 18 17 15 12 12 10 11 27 22 16 22 21 23 30 28 28 21 23 20 18 20 18 17 17 17 12 10 14 15 31 24 24 23 22 23 24
37 39 40 40 39 31 33 29 23 13 13 3 10 11 10 6 22 25 23 23 23 23 26 29 22 22 20 21 19 21 17 22 19 19 17 15 16 12 15 22 25 22 21 21 20
38 39 41 40 33 28 34 33 12 5 3 7 16 9 11 13 13 25 29 24 22 19 20 23 16 20 21 19 21 19 21 18 21 22 23 20 18 14 20 21 25 24 22 21 23
38 40 42 37 29 25 31 17 16 4 14 20 10 16 17 10 6 17 28 24 23 22 23 24 18 25 30 25 24 21 21 24 19 22 26 22 18 19 17 18 20 22 23 22 22
39 40 41 37 29 21 22 16 14 14 21 21 29 32 40 35 17 15 28 25 25 26 25 22 28 26 26 25 27 27 25 24 21 23 17 23 21 22 22 25 22 22 23 23 23
39 41 39 34 21 18 12 20 20 19 12 21 31 25 31 27 25 19 27 29 28 30 29 27 19 26 26 26 27 28 27 24 22 21 17 15 19 19 20 20 20 20 23 24 23
41 41 37 33 8 21 17 24 23 17 8 10 13 10 26 25 30 27 30 28 25 31 30 27 30 29 27 27 26 27 28 26 25 21 17 28 15 18 18 18 22 18 22 24 24
44 41 31 18 18 13 24 26 22 10 7 9 8 6 9 27 6 33 31 28 31 26 30 29 26 28 28 29 28 25 24 24 26 22 18 23 16 15 20 20 20 23 23 23 24
44 39 26 15 16 16 25 24 17 6 9 11 13 24 10 24 29 11 34 31 27 27 28 31 26 25 25 23 26 24 23 23 23 18 18 23 20 19 19 23 21 21 21 23 24
44 36 20 17 10 24 22 13 6 8 16 17 29 28 28 22 24 30 30 31 27 29 27 28 34 29 26 21 25 23 21 13 16 17 16 22 22 16 16 19 26 24 22 23 21
46 28 17 14 18 20 19 11 10 12 20 25 25 28 22 20 23 26 25 27 33 31 18 22 25 35 26 29 24 27 25 15 21 18 16 22 24 22 22 22 18 20 24 24 24
44 21 16 8 19 17 10 10 7 14 15 19 24 20 20 28 23 25 30 29 30 34 31 24 29 28 33 24 27 23 26 24 20 20 16 19 28 25 24 25 23 16 21 25 25
31 22 22 10 18 15 10 14 13 11 17 20 20 21 23 26 24 25 15 27 27 32 31 30 18 30 32 28 29 31 22 21 17 21 20 19 21 19 24 23 24 19 17 21 23
16 8 9 17 16 10 11 11 16 19 16 18 20 20 21 13 21 24 11 21 25 18 30 31 25 22 28 31 28 22 21 24 19 17 15 13 13 13 25 22 19 21 18 17 20
11 9 19 13 13 7 9 11 14 16 21 16 18 17 7 11 16 13 18 12 28 25 18 19 23 22 27 28 31 28 28 25 13 22 15 14 4 11 5 20 16 15 21 15 16
9 13 11 18 8 11 14 15 16 7 12 13 20 16 18 12 10 10 17 19 28 26 12 12 14 19 25 23 30 33 30 27 22 18 19 14 7 7 9 7 15 14 14 18 13
6 8 9 8 11 18 17 14 13 16 4 3 18 14 14 19 11 4 15 14 26 27 15 7 10 20 18 22 18 28 30 28 27 18 16 18 9 8 6 4 9 13 10 11 12
5 5 9 7 13 17 14 15 8 16 6 26 14 2 15 14 13 8 14 23 19 21 22 8 14 16 23 25 16 27 26 30 31 21 22 18 18 15 12 9 9 7 6 9 10
3 4 6 13 15 17 17 10 12 18 14 18 15 15 16 14 9 14 12 15 9 18 18 18 6 12 20 22 20 20 31 30 29 29 23 24 18 20 15 14 10 10 9 10 8
2 3 3 7 13 10 11 16 19 17 14 14 16 13 18 17 13 15 15 16 17 20 16 11 11 9 18 16 20 19 14 26 24 24 24 20 16 18 21 17 14 11 7 5 1

GFSSW_925_spd_039.txt.gz
Wind_Speed
27 28 28 28 27 27 26 26 28 26 22 22 22 20 18 18 21 14 11 20 19 17 10 15 17 18 22 13 17 10 5 5 6 11 5 3 21 17 18 22 9 10 22 26 34
29 30 31 31 30 30 29 29 29 26 22 23 21 16 16 17 18 20 33 25 24 16 14 17 15 16 13 15 9 6 2 9 9 10 9 9 19 19 21 20 20 25 24 32 33
33 34 35 35 34 34 34 32 28 23 25 25 21 17 14 11 7 9 6 32 28 25 25 19 18 16 16 14 17 13 9 11 17 16 13 18 4 15 23 17 28 30 29 25 29
34 36 38 37 37 37 37 30 25 25 27 21 16 13 8 1 4 4 7 5 34 28 19 23 16 16 14 18 21 11 13 9 9 7 6 8 10 12 24 15 27 29 28 24 24
36 37 38 38 39 40 34 29 28 28 26 17 13 7 2 5 13 10 13 3 30 31 25 17 17 15 19 17 18 18 12 16 11 11 19 29 22 17 23 26 26 25 26 24 20
37 38 40 40 39 38 34 32 31 31 22 15 10 3 3 8 15 16 7 16 25 31 24 20 11 13 10 19 16 15 15 14 13 18 10 16 6 11 25 29 28 27 26 24 22
38 40 41 41 40 37 34 34 37 34 18 13 7 9 8 18 10 15 27 21 26 34 17 27 26 14 16 12 20 18 11 14 18 18 11 10 6 11 27 27 26 27 25 23 24
41 42 43 43 39 35 34 37 39 25 10 11 7 9 9 18 17 28 18 20 25 27 27 24 28 15 17 11 18 17 16 15 22 20 19 15 8 18 25 31 27 25 23 25 26
40 43 45 44 38 34 35 38 30 18 3 1 9 7 11 16 11 23 22 21 28 25 28 24 22 16 16 15 13 10 12 9 13 15 9 7 8 18 21 23 20 23 24 23 26
41 43 45 43 38 31 34 35 21 4 2 3 8 4 9 5 12 21 24 20 15 13 14 16 10 14 14 11 16 10 7 11 12 16 12 7 8 27 25 29 27 15 21 21 23
42 44 46 44 38 28 35 18 9 3 10 11 18 23 40 20 30 19 25 22 14 15 16 17 10 21 22 18 11 11 17 11 12 15 11 15 10 26 24 24 22 15 17 22 21
45 46 46 44 38 24 20 9 12 17 21 19 27 28 36 30 15 15 25 16 18 20 17 12 23 18 14 15 19 18 21 17 15 17 10 16 14 16 25 30 26 24 12 17 20
45 47 45 41 29 17 29 24 29 28 9 19 15 15 19 13 18 28 12 21 16 22 24 23 13 19 19 20 23 22 18 17 14 13 17 16 18 9 24 24 22 26 24 24 25
46 48 45 39 9 28 15 31 31 27 5 9 5 4 0 10 10 27 26 20 18 23 23 26 20 24 26 23 21 19 18 21 20 14 7 11 6 10 16 22 28 29 26 30 25
46 47 45 25 16 8 21 33 31 19 5 12 17 12 34 9 6 13 34 17 26 21 20 25 24 24 26 26 21 15 17 21 22 15 8 11 11 12 12 20 27 25 29 32 28
49 46 42 16 15 18 26 33 23 2 6 9 20 24 29 22 18 21 9 17 15 22 23 24 14 23 25 20 17 16 10 10 16 14 13 14 9 9 15 18 16 27 31 27 28
55 51 27 14 6 19 25 13 4 3 12 12 23 22 23 21 19 23 17 19 19 19 25 18 28 22 17 20 20 18 12 7 9 13 13 8 7 8 6 16 14 22 26 27 29
55 39 11 16 21 20 20 9 5 8 13 19 17 20 16 20 23 28 29 12 21 22 5 20 19 31 23 21 16 22 21 6 8 8 10 7 15 9 11 7 10 13 21 26 29
53 27 14 17 14 16 5 4 5 9 13 15 23 15 22 22 16 26 22 13 16 21 23 13 28 14 28 15 18 17 19 11 3 7 3 4 8 12 20 15 14 9 12 28 26
37 11 10 5 13 11 3 10 16 13 15 15 17 14 20 12 13 16 14 14 24 26 25 27 12 18 20 24 20 20 11 12 9 9 9 11 14 16 16 21 17 12 10 27 27
16 7 4 20 14 4 8 7 14 14 16 11 13 19 16 8 13 15 10 27 23 29 29 18 11 29 14 25 28 11 12 15 5 6 6 4 8 18 22 23 21 16 11 19 25
9 5 18 21 7 5 9 15 15 15 8 9 9 11 15 16 4 8 15 8 25 25 25 17 8 15 29 17 26 18 19 13 11 13 7 6 11 9 8 27 23 18 11 13 23
6 4 16 26 5 6 12 15 16 11 10 8 7 12 14 8 4 8 11 11 14 23 13 15 6 6 18 13 19 28 20 20 8 6 14 7 6 5 10 18 17 11 9 10 16
4 4 5 6 9 14 13 14 15 9 4 3 8 4 14 11 2 2 8 9 19 22 30 23 11 13 12 16 6 11 24 19 13 12 15 11 6 5 8 8 8 9 8 10 12
2 4 6 6 8 17 16 13 14 16 5 8 5 5 8 8 12 5 10 15 17 15 18 15 8 14 15 15 14 18 27 23 22 17 16 12 6 7 2 7 6 7 7 8 8
4 2 3 7 12 13 15 10 15 19 20 13 11 9 6 8 6 10 12 9 6 13 17 19 7 17 7 11 10 8 12 26 23 20 17 12 8 8 8 8 13 10 12 12 11
4 2 1 3 8 9 6 13 20 17 11 21 17 13 13 10 14 10 17 11 12 9 13 18 11 10 5 3 6 6 9 8 21 19 16 13 8 8 5 8 13 11 10 10 10

GFSSW_925_spd_042.txt.gz
Wind_Speed
27 28 29 28 28 28 27 27 26 25 21 20 21 19 17 16 17 9 10 17 22 11 12 21 17 17 15 6 4 5 1 2 4 9 2 5 6 13 9 14 3 5 9 24 37
31 31 32 33 32 31 31 28 25 23 22 24 21 18 15 13 14 14 36 27 23 24 20 21 12 14 4 4 4 2 2 7 8 6 13 4 2 8 9 11 11 17 24 31 34
33 35 36 36 35 34 33 30 27 25 25 25 18 16 12 6 4 9 2 16 31 31 26 22 16 8 6 5 9 9 6 7 7 12 6 3 13 4 18 8 22 28 26 27 31
36 38 39 38 38 36 35 31 29 28 28 23 15 13 5 1 4 4 4 4 28 32 22 15 5 8 7 12 14 7 15 8 6 9 8 7 13 13 9 7 21 29 30 26 24
37 39 40 41 39 38 36 33 33 35 33 19 11 7 2 1 11 10 3 1 32 35 25 15 10 9 9 11 15 14 16 14 11 13 6 3 12 11 8 16 22 22 23 24 20
39 40 41 41 39 37 35 35 37 40 30 11 4 2 3 4 9 6 13 17 37 31 21 16 10 13 7 10 14 6 18 11 9 6 3 8 1 7 15 23 23 23 22 21 20
38 40 41 42 38 36 33 34 37 40 27 6 4 5 4 17 5 1 16 22 35 39 15 26 20 12 8 6 24 17 14 11 18 18 5 12 6 12 24 24 25 22 20 19 18
38 40 41 41 39 37 32 34 38 29 12 2 6 7 9 14 12 17 16 10 23 39 26 31 27 4 3 7 9 7 11 12 17 12 10 15 10 17 24 26 24 23 20 19 18
41 43 44 43 38 37 32 30 29 13 10 8 8 5 11 14 4 15 18 12 23 27 25 16 9 6 2 5 5 3 8 8 17 18 12 12 6 21 21 21 23 23 22 20 16
43 45 46 45 40 33 28 21 28 4 5 2 3 3 7 3 15 26 18 21 7 12 5 10 5 5 9 5 11 5 5 6 10 14 24 21 10 25 26 25 27 25 25 23 21
44 46 47 45 40 26 26 12 9 5 9 8 18 13 29 24 26 12 8 18 11 6 9 8 10 16 23 13 5 6 8 10 9 11 9 24 20 27 27 23 24 24 23 24 24
46 49 50 46 37 14 20 5 8 13 12 10 16 18 33 20 12 20 13 11 10 17 9 4 18 19 6 9 12 13 10 13 14 15 6 5 26 28 26 28 29 25 24 24 22
45 47 51 44 24 14 18 13 27 27 3 10 4 4 7 6 9 18 3 5 6 11 17 20 8 14 15 14 15 14 14 14 9 10 5 4 11 23 24 19 15 18 25 26 29
49 49 49 36 5 21 11 26 33 20 4 7 7 4 11 2 4 14 9 5 8 14 12 16 23 20 19 19 18 16 18 17 15 6 7 5 5 18 21 21 17 21 22 24 24
50 50 41 12 10 9 19 31 36 2 2 6 7 9 13 7 10 17 31 5 15 13 10 20 22 24 21 25 18 18 11 14 18 5 2 16 2 14 28 21 26 20 22 23 25
50 51 28 6 11 14 23 34 8 5 3 5 6 15 17 16 12 15 14 17 7 18 20 14 11 24 26 18 21 9 11 9 10 3 9 20 7 7 22 29 28 21 24 20 22
52 46 15 7 5 20 28 11 5 3 11 8 8 10 8 16 11 14 15 14 9 5 16 15 19 22 12 18 12 15 7 7 7 7 10 13 6 12 19 30 37 34 32 24 21
53 38 12 9 14 19 13 5 6 13 5 6 8 7 9 17 6 17 11 11 17 18 8 16 19 22 18 14 18 13 11 6 13 5 11 5 8 6 14 20 30 33 35 27 24
52 33 8 6 12 12 5 4 1 5 7 9 8 5 6 9 5 10 8 4 11 21 15 9 17 7 24 20 17 13 17 12 6 3 3 4 5 4 11 11 10 29 24 24 26
33 15 11 29 21 4 4 4 3 3 6 6 6 5 6 6 6 10 6 5 7 18 15 6 8 14 25 16 20 17 9 8 4 7 5 6 5 6 9 14 8 12 27 29 28
12 4 8 35 15 5 3 3 4 6 8 5 3 4 5 6 6 4 8 11 16 20 17 11 5 10 2 11 27 6 16 6 6 6 7 4 9 9 10 13 13 12 24 30 29
10 4 16 30 4 2 2 6 7 5 5 2 1 2 2 6 4 4 6 4 13 15 12 8 6 6 12 10 5 21 7 10 9 10 4 5 11 5 11 16 18 21 18 26 32
5 3 12 15 4 4 6 7 3 9 1 2 3 3 1 1 4 2 4 6 7 12 7 9 4 8 8 5 3 6 11 9 6 5 9 12 12 2 11 12 16 27 18 20 28
2 4 4 4 2 3 6 5 9 7 5 3 3 2 3 4 3 3 3 4 6 8 5 10 5 8 7 14 14 7 13 12 10 8 10 14 12 9 12 14 10 7 13 16 21
1 1 2 5 5 10 6 5 10 7 6 8 4 3 4 3 2 1 4 12 9 6 3 4 6 12 19 25 25 23 17 13 16 17 14 12 7 10 9 12 6 5 9 12 21
0 2 3 4 5 7 5 3 9 7 8 7 7 16 6 6 7 4 3 6 6 4 1 2 5 18 22 14 18 13 9 7 16 19 7 9 8 8 4 12 6 7 10 10 18
2 2 2 3 3 3 3 10 15 15 7 9 14 15 6 8 9 12 12 17 10 9 7 6 4 6 6 8 5 5 15 6 11 11 11 8 9 3 10 10 13 10 13 11 8

GFSSW_925_spd_045.txt.gz
Wind_Speed
26 27 28 28 27 25 25 23 22 22 21 22 22 20 16 15 15 8 9 17 23 10 19 23 14 12 13 4 4 4 2 3 5 6 2 4 4 6 3 8 4 4 7 18 37
29 30 31 31 29 27 26 24 22 22 22 24 21 18 14 11 12 15 34 21 19 19 23 24 11 14 5 5 3 3 2 5 6 8 1 2 8 11 6 12 4 11 21 32 34
32 33 34 34 32 30 27 25 25 26 27 23 18 13 12 4 4 8 8 22 27 30 25 22 17 8 4 3 5 5 4 3 2 9 3 5 12 9 12 3 5 22 26 28 30
35 36 37 37 35 33 30 28 27 26 28 20 11 8 5 1 2 1 9 8 34 32 24 17 8 8 6 6 6 3 9 10 3 9 5 7 9 6 10 6 13 23 31 29 24
36 36 38 38 36 33 30 28 30 32 26 15 5 3 1 1 10 4 10 14 36 34 21 12 13 7 8 6 4 12 11 8 15 15 10 4 12 6 12 10 21 21 24 26 22
37 38 39 38 37 35 29 27 30 30 22 10 5 4 3 4 2 7 4 25 30 33 15 9 10 8 6 4 13 6 14 17 15 12 6 8 5 7 6 18 22 22 24 22 23
38 40 40 40 39 36 28 26 27 25 16 5 9 3 0 15 4 14 8 23 36 35 11 21 9 10 6 2 12 11 9 9 14 10 2 9 3 4 17 18 23 21 19 19 19
40 41 43 41 39 36 26 23 24 14 13 4 8 3 7 5 12 12 12 5 23 23 13 22 18 6 3 4 5 5 5 3 9 7 6 7 3 13 17 21 21 21 19 20 20
43 44 43 45 40 33 24 24 17 5 8 9 6 4 10 13 8 14 9 8 19 21 12 10 6 4 1 2 4 3 4 7 8 10 4 8 4 14 18 19 19 20 20 19 17
46 49 48 47 40 26 25 13 12 4 6 0 1 2 5 8 18 27 12 17 5 8 1 3 4 5 2 4 9 6 4 4 6 4 11 11 6 18 19 19 21 19 19 20 20
47 47 51 46 34 16 23 4 5 5 4 5 10 4 11 14 18 5 10 9 6 5 8 6 6 17 29 18 3 4 4 6 6 6 8 15 9 20 22 16 18 19 18 20 20
47 48 52 41 22 15 12 5 7 5 9 7 12 7 14 6 5 6 9 7 8 9 7 5 17 21 7 7 12 8 5 6 10 5 6 6 17 18 22 26 25 25 22 22 19
48 48 49 32 7 12 7 6 12 14 1 8 5 4 7 2 3 6 2 3 6 12 15 10 4 14 10 12 13 13 13 9 9 5 3 4 7 14 19 6 12 16 18 19 23
48 47 42 26 3 13 8 19 28 1 4 5 7 7 12 4 3 6 9 6 5 17 15 14 17 15 16 17 11 12 12 14 14 3 4 5 4 11 16 22 20 20 21 21 22
48 48 34 12 9 6 12 26 24 4 3 5 5 6 8 7 9 10 20 5 5 11 8 16 15 19 19 23 16 14 6 9 8 3 3 9 3 7 15 19 22 23 24 24 24
48 48 24 6 9 9 21 31 3 4 3 5 4 8 8 8 5 10 7 6 3 6 14 9 9 16 23 12 15 4 4 3 1 3 10 17 8 5 13 25 22 22 24 25 25
47 39 12 8 6 24 27 5 4 3 7 5 5 7 6 8 8 12 8 15 6 7 7 9 22 10 6 18 10 11 7 4 4 5 13 7 7 13 22 25 28 28 29 26 23
46 29 11 17 32 23 9 5 4 3 3 3 3 2 5 8 4 8 7 5 14 4 2 5 11 19 13 12 15 12 15 6 8 4 8 6 8 6 14 18 26 25 29 22 22
46 23 7 28 32 9 5 5 3 2 3 4 2 4 5 5 2 7 6 2 6 9 4 7 7 9 16 14 17 8 19 12 5 3 2 4 5 6 7 13 17 21 22 20 18
29 13 5 32 25 4 5 2 0 3 2 3 3 1 2 4 6 2 4 6 3 10 2 2 6 5 12 10 11 15 8 7 4 10 5 4 5 7 12 12 14 19 21 21 22
8 4 13 34 3 5 3 4 3 3 0 2 4 2 3 1 2 2 1 6 9 10 4 4 2 9 8 7 25 8 11 4 6 5 13 2 8 8 9 14 19 19 23 22 23
7 3 22 25 4 2 2 5 5 5 2 2 1 4 2 2 3 2 1 1 6 7 3 4 4 6 10 16 16 9 11 8 10 13 1 3 16 5 11 13 14 16 19 19 23
4 3 11 13 4 4 6 5 3 4 3 2 2 3 3 4 2 3 3 3 7 3 1 3 2 6 9 1 6 4 5 7 5 4 9 13 17 6 4 4 6 10 17 16 20
2 4 4 4 2 3 5 5 4 5 1 4 4 1 0 3 4 3 4 6 8 4 8 2 4 6 6 9 13 11 23 18 9 8 7 14 19 14 14 10 7 7 11 18 23
2 1 0 4 2 2 3 5 9 5 5 5 3 4 1 4 3 5 5 2 6 6 4 3 5 6 11 19 21 22 23 24 13 12 14 11 12 12 8 6 7 10 11 17 26
2 2 2 3 3 5 3 2 7 5 4 6 3 10 7 5 7 7 6 5 6 3 3 3 3 3 14 20 17 18 18 19 20 19 6 5 12 3 3 3 11 12 9 11 18
2 0 1 3 2 2 2 2 6 11 8 9 4 10 12 9 5 7 7 6 7 8 5 4 2 3 7 8 12 6 7 11 4 17 4 9 4 4 6 12 13 15 12 6 19

GFSSW_925_spd_048.txt.gz
Wind_Speed
27 27 27 26 25 24 22 20 18 17 17 20 19 17 14 11 10 7 8 16 24 14 19 25 15 14 14 4 4 2 1 3 5 1 6 9 8 3 1 10 5 7 7 17 30
28 29 29 28 27 26 24 22 19 20 19 21 16 14 10 8 8 13 21 15 16 21 28 25 10 12 5 4 3 3 2 5 4 6 5 6 11 11 6 10 3 7 19 31 29
31 32 32 31 30 28 26 23 22 23 23 19 14 10 8 4 3 7 12 9 21 26 27 20 21 7 5 4 4 5 4 3 5 7 6 7 6 7 8 8 7 17 24 26 29
33 33 34 33 31 29 27 24 24 24 25 18 10 4 5 1 1 6 15 3 29 27 26 16 12 9 6 6 6 4 8 6 4 7 3 3 6 4 10 3 14 23 29 27 24
34 35 34 36 32 29 25 23 24 24 22 16 5 2 1 1 7 17 12 14 28 30 24 8 14 5 6 6 4 9 7 5 9 9 7 4 7 5 10 9 16 21 23 25 21
36 37 36 38 34 30 23 21 25 24 15 10 2 5 3 2 2 18 2 22 27 25 20 11 11 6 5 4 6 5 12 13 9 9 5 6 4 8 5 17 19 24 24 20 19
39 40 41 40 37 29 20 20 26 18 11 11 5 2 2 8 8 13 3 19 26 26 10 14 8 8 4 1 7 3 5 5 7 4 6 8 4 4 15 17 22 21 21 19 18
42 42 43 42 37 26 18 22 20 8 8 5 6 1 4 6 7 13 1 3 20 18 2 8 4 2 2 3 4 4 3 1 4 6 6 7 3 5 16 19 21 22 19 18 19
42 43 44 43 36 21 20 20 11 5 6 7 2 2 5 11 6 8 11 6 14 15 10 3 3 2 2 1 4 4 4 7 3 7 3 6 1 9 14 15 17 19 20 18 17
43 43 43 40 30 20 22 8 9 5 4 2 2 2 4 6 12 14 8 10 4 8 2 2 3 2 2 4 6 7 4 4 5 3 7 6 1 13 16 17 18 18 18 19 19
42 43 45 36 21 19 20 2 6 5 8 1 8 3 8 17 6 9 4 6 5 6 7 4 4 15 26 10 3 4 5 6 4 6 5 8 7 16 16 13 17 18 18 20 21
44 46 47 31 13 15 21 7 8 6 7 3 6 5 11 6 3 13 10 5 5 5 7 3 14 14 6 8 7 7 3 4 5 2 4 5 10 12 18 22 23 22 19 20 18
44 46 46 24 6 11 9 9 8 7 2 7 4 4 7 1 2 9 7 5 5 6 11 7 5 11 9 6 10 12 8 5 1 4 2 4 5 6 13 10 14 14 16 16 20
44 46 41 19 2 9 4 10 22 7 5 4 6 6 8 4 3 6 12 2 3 9 7 10 6 10 13 15 10 9 14 14 5 1 3 2 5 6 8 17 19 15 19 18 20
44 44 30 11 7 3 11 25 5 4 2 3 5 6 11 6 5 11 16 7 4 4 4 8 7 12 11 20 13 12 8 11 11 5 1 5 1 7 10 11 16 19 19 20 20
42 40 18 11 8 18 22 16 4 5 4 3 3 5 6 6 6 5 6 6 2 5 3 8 3 8 19 9 15 4 1 3 3 4 8 11 10 6 7 12 18 16 18 19 19
41 34 7 7 10 21 15 3 4 3 3 3 3 5 3 6 6 7 5 8 6 8 7 6 11 4 3 10 14 10 10 2 3 5 12 8 12 9 8 9 14 23 24 24 21
41 24 3 13 27 13 4 5 3 2 1 1 3 1 3 7 3 7 3 3 6 6 3 5 7 8 5 12 9 14 11 6 8 4 14 6 7 6 20 8 17 18 24 19 17
42 16 3 29 23 8 5 4 4 1 2 1 1 4 3 3 3 6 3 2 3 3 4 5 6 5 5 4 7 6 14 11 4 1 1 9 4 8 3 13 10 16 15 17 20
28 11 8 34 14 4 5 3 3 1 2 3 2 1 1 3 4 5 1 4 2 5 2 3 6 3 7 3 8 11 9 9 3 6 5 4 6 8 8 9 10 8 13 15 20
7 4 20 30 5 5 3 3 2 2 2 4 5 3 3 2 2 2 2 2 3 3 5 2 5 8 6 6 10 6 11 4 7 7 6 1 6 8 11 14 14 14 14 16 18
7 3 24 25 4 2 2 6 5 3 3 2 3 5 5 6 3 4 5 2 3 2 1 3 2 6 8 5 7 3 4 5 9 12 4 4 6 4 10 11 10 15 14 18 19
3 3 13 13 4 3 5 5 3 3 3 3 2 2 2 5 2 3 2 5 5 1 2 2 2 4 6 4 4 5 3 5 6 2 20 12 5 5 7 7 10 12 12 8 10
2 4 4 4 2 3 5 3 5 8 2 3 3 5 2 2 4 2 3 3 6 4 4 3 3 6 5 3 2 6 14 7 4 3 3 12 11 6 7 7 4 7 8 9 9
3 0 2 4 3 2 3 4 5 4 4 3 1 5 3 1 2 4 4 3 2 4 2 3 5 6 11 12 10 10 16 17 6 12 3 6 10 10 10 10 6 6 5 10 15
2 2 2 2 3 3 1 2 5 6 3 5 7 8 1 4 5 4 4 4 6 3 4 2 4 4 5 12 14 15 16 15 18 18 11 17 10 4 4 5 4 5 7 8 12
2 0 0 3 2 2 2 2 4 8 6 12 11 4 5 10 7 11 7 6 5 7 7 5 3 2 5 4 8 6 15 8 6 9 3 6 2 7 1 6 8 8 9 12 14

GFSSW_925_spd_051.txt.gz
Wind_Speed
27 27 27 26 25 23 22 18 16 16 17 18 18 14 11 9 7 4 7 9 16 15 23 22 14 16 11 7 4 2 2 3 4 3 2 4 5 4 7 12 4 8 7 21 32
28 29 28 28 26 24 22 20 18 18 19 20 17 12 8 7 5 9 8 7 13 23 27 26 17 19 6 7 3 4 3 3 4 7 4 6 5 7 5 12 5 8 16 31 32
30 30 29 30 26 24 23 20 18 19 20 20 14 8 4 4 3 2 12 12 21 25 24 19 23 13 8 7 7 5 4 2 6 6 6 1 6 7 6 10 9 18 24 28 32
31 32 32 32 29 25 22 20 18 20 21 16 11 4 1 1 1 8 14 4 26 25 23 17 15 10 8 8 10 4 10 5 1 6 3 5 3 4 11 1 12 21 27 30 28
33 34 35 34 32 26 22 19 18 21 18 11 9 0 0 1 4 17 12 18 26 24 27 16 19 10 10 9 8 14 5 5 6 7 8 8 9 6 11 3 14 21 27 27 25
35 36 37 35 33 26 19 18 20 17 10 8 5 3 1 1 6 14 5 17 22 23 25 19 13 9 7 5 9 5 13 10 8 8 8 9 8 8 4 13 18 23 27 27 27
35 37 38 36 33 23 18 21 22 9 8 8 8 4 1 2 6 10 6 12 18 14 18 10 6 13 5 5 7 7 5 8 9 9 7 4 4 9 14 16 20 22 24 25 25
37 37 38 36 30 20 19 22 9 5 7 8 6 2 1 5 9 6 5 8 11 7 11 4 3 8 2 4 1 5 5 5 4 10 6 8 1 6 16 18 19 22 23 24 24
38 38 37 34 25 21 21 10 6 5 7 6 3 2 5 8 12 8 6 5 15 12 2 8 3 3 5 2 5 5 8 13 4 8 5 12 1 7 14 15 18 20 23 23 23
37 38 37 30 19 18 18 6 7 5 4 1 1 1 8 10 10 9 3 14 6 15 4 4 7 7 7 10 12 12 13 7 13 8 11 13 6 11 15 15 18 20 22 22 23
38 39 40 26 13 13 15 3 3 1 7 4 3 1 6 14 6 12 4 9 12 10 11 7 10 21 20 15 10 5 6 12 10 7 10 13 10 13 16 15 16 19 22 23 24
40 42 41 23 7 8 15 5 5 5 4 1 3 5 6 4 3 17 8 3 5 8 10 6 18 16 12 13 13 17 7 12 10 2 9 9 14 11 18 21 22 22 23 24 23
40 40 35 17 3 7 10 8 11 0 2 3 2 6 5 5 5 11 11 1 6 8 16 15 2 15 14 14 18 19 19 11 6 5 10 7 13 12 14 14 16 18 18 20 23
39 39 27 10 3 6 2 17 19 9 0 2 3 5 9 5 3 9 10 3 4 12 12 13 18 8 15 20 18 19 17 18 12 5 11 10 13 14 14 19 20 20 21 21 23
39 36 19 13 3 3 11 19 3 3 4 4 3 4 7 6 7 10 8 2 1 3 5 10 9 17 16 18 19 15 8 18 19 14 11 12 8 16 10 15 20 23 23 23 24
40 36 11 6 6 12 17 4 2 2 5 2 3 5 4 6 4 8 7 5 1 3 3 13 8 13 19 13 18 9 4 13 14 14 16 21 13 16 12 18 18 20 22 23 24
39 28 3 7 9 18 8 2 2 4 1 3 3 3 3 5 5 7 4 9 5 2 1 3 13 12 13 12 17 20 15 6 7 10 19 19 16 17 13 13 15 20 23 26 25
38 12 5 7 17 9 3 1 6 2 2 2 1 1 2 5 3 5 1 2 7 3 1 3 10 10 15 20 10 22 19 9 12 12 16 16 13 14 24 21 12 15 20 19 23
36 4 3 20 13 3 1 4 1 1 2 3 2 3 3 1 3 2 2 2 4 6 3 2 6 3 5 9 19 15 22 21 13 3 10 15 19 11 13 16 21 18 14 18 21
17 4 9 28 8 2 1 0 1 0 1 2 3 4 4 2 2 1 2 1 4 4 1 2 6 2 4 4 13 19 12 18 13 19 14 8 19 14 21 15 17 18 17 18 20
5 1 16 21 6 4 1 1 2 2 2 4 5 3 4 4 4 4 3 3 2 1 1 1 2 3 6 7 17 14 13 14 18 16 14 15 8 13 19 20 19 16 20 19 20
6 1 23 17 4 2 2 6 5 4 3 2 2 6 7 6 5 6 6 3 6 2 1 1 1 5 8 9 7 9 13 25 13 22 19 11 11 5 13 19 22 23 18 20 21
3 3 14 10 4 4 5 4 3 6 4 3 2 4 4 6 5 7 5 4 6 2 2 3 2 4 6 8 3 2 1 4 9 6 20 18 14 13 13 10 8 11 13 10 15
2 3 4 5 2 3 4 4 7 9 1 5 4 2 2 4 5 2 6 6 6 4 5 2 3 5 10 12 13 8 7 5 7 14 17 19 19 20 22 14 13 10 8 8 11
3 3 1 4 5 7 5 4 7 7 5 7 2 2 0 6 5 6 6 5 7 7 4 3 6 7 16 19 18 21 21 15 11 10 12 17 10 19 18 17 17 7 7 6 7
2 1 1 1 2 3 3 4 5 5 3 4 7 9 6 7 8 3 3 7 8 7 6 3 4 5 19 19 18 21 22 19 17 18 10 14 14 8 8 6 4 4 8 11 10
2 2 1 3 2 2 1 2 3 10 7 11 7 4 6 8 11 12 10 11 10 6 8 5 1 5 11 13 14 15 24 19 13 6 13 13 7 10 8 1 6 7 8 11 13

GFSSW_925_spd_054.txt.gz
Wind_Speed
25 25 25 24 22 20 19 17 13 14 17 18 16 12 9 6 6 5 8 4 9 22 23 22 19 17 19 11 3 6 5 4 1 7 7 10 7 11 10 10 6 9 7 26 35
27 27 27 27 25 23 21 18 14 14 17 19 15 9 6 5 6 10 6 3 13 27 24 26 19 19 13 13 6 6 5 3 2 8 9 8 11 10 8 12 9 8 13 36 36
28 28 29 28 27 25 22 19 14 14 16 17 12 8 4 1 5 7 8 8 16 32 23 21 19 17 12 11 10 9 5 3 4 4 6 5 5 8 5 9 11 15 25 30 35
29 31 30 29 28 27 22 18 15 16 16 11 9 6 2 3 1 5 15 11 24 26 22 21 19 18 14 12 14 9 11 7 7 9 7 8 4 6 5 6 10 18 25 29 29
30 31 31 30 28 26 20 17 17 21 10 7 8 6 2 5 4 12 12 13 30 25 26 19 20 16 14 12 7 16 9 9 6 7 4 3 5 2 6 6 14 21 25 28 26
31 31 32 31 27 21 21 20 20 14 6 6 4 4 4 4 7 10 4 17 26 25 24 20 13 13 9 7 14 1 15 6 5 10 6 9 5 4 7 11 17 22 25 27 27
32 34 33 31 26 20 20 22 15 7 5 4 4 1 2 7 7 6 5 13 18 22 18 19 2 15 3 10 11 10 8 11 12 12 12 6 11 10 13 14 17 20 22 26 25
33 34 34 32 22 17 21 13 9 4 6 3 4 3 6 3 4 4 6 10 15 10 18 11 8 15 8 3 8 14 14 13 17 13 9 10 8 12 14 15 17 19 20 24 25
34 35 35 31 18 15 16 5 5 6 4 4 3 6 5 4 3 3 1 11 17 9 11 11 10 11 13 11 11 14 14 18 14 17 11 16 7 13 13 14 15 18 21 23 23
34 34 35 27 14 14 13 2 4 5 3 4 5 5 9 8 6 2 4 14 15 14 9 15 10 11 12 14 15 15 18 14 17 13 18 16 8 12 14 14 15 17 19 22 24
34 33 34 23 9 11 11 3 4 4 5 6 6 4 5 4 3 8 9 8 10 17 12 14 15 19 19 17 17 10 13 19 13 6 14 16 15 13 13 14 15 17 20 22 24
34 33 31 18 5 9 10 5 6 5 1 2 1 1 3 2 1 11 6 7 11 16 16 10 18 18 14 14 17 14 10 14 8 5 11 16 16 14 15 15 16 17 19 22 22
33 32 27 11 2 4 8 7 6 3 5 4 2 4 4 4 4 8 5 4 10 15 18 18 4 16 13 16 17 19 19 14 13 4 14 15 18 17 16 14 15 16 18 20 23
33 30 22 6 2 4 2 10 10 6 5 8 5 3 4 2 3 6 6 3 7 11 14 17 20 6 16 19 18 19 18 15 15 11 14 19 14 22 18 19 18 19 20 21 23
35 30 17 6 5 4 9 12 1 5 5 5 5 2 3 1 3 5 4 4 7 9 10 12 13 18 17 16 19 16 14 16 17 16 15 14 13 13 23 19 19 20 21 21 23
35 28 8 2 3 6 11 4 4 6 4 5 3 1 4 2 2 4 2 1 2 7 13 17 8 15 21 20 12 9 14 14 15 16 18 23 18 19 18 20 21 21 21 21 23
34 18 4 3 5 12 7 4 5 6 2 5 2 1 1 2 2 3 2 2 5 8 15 16 19 17 15 17 19 16 16 10 12 15 22 22 21 19 16 18 20 20 21 22 23
33 4 3 4 12 8 5 5 7 5 1 3 1 1 3 3 2 2 2 5 2 6 10 9 14 20 19 22 20 23 19 13 21 14 19 24 27 23 25 17 15 15 19 20 21
16 2 3 12 10 5 7 7 5 2 2 3 4 6 5 4 5 4 3 3 1 3 7 6 12 3 6 16 21 21 23 24 23 17 13 18 22 21 19 26 21 15 15 18 20
7 2 11 17 4 8 6 1 1 1 1 4 6 2 6 5 5 2 2 4 4 1 4 3 8 9 5 7 19 21 16 21 17 23 24 15 20 19 20 21 24 25 20 16 19
3 4 13 14 4 5 4 4 0 2 4 3 6 7 7 8 7 7 3 5 3 3 5 4 5 6 5 13 20 17 21 19 19 20 19 19 15 14 21 25 21 23 24 22 18
5 2 17 12 2 1 3 3 1 3 1 5 6 10 11 9 9 8 7 4 4 2 5 1 6 11 16 8 6 13 15 29 15 26 22 18 11 9 9 17 23 20 20 21 21
4 3 12 9 1 4 4 3 2 4 4 4 5 3 6 9 6 8 5 3 6 4 2 3 5 9 14 17 18 13 15 18 17 20 26 20 19 11 5 9 15 20 22 17 17
3 1 4 7 8 7 3 7 5 3 3 5 7 7 9 11 10 5 8 6 7 8 5 3 11 12 13 10 10 7 11 7 16 17 21 21 19 22 16 8 9 10 9 10 8
4 4 3 5 8 6 2 3 2 5 5 8 4 7 8 8 12 13 10 10 9 7 8 7 13 12 13 16 14 15 17 18 19 17 23 20 23 17 21 19 16 12 7 4 5
3 2 2 5 4 8 9 8 5 5 4 7 6 9 6 8 12 8 13 15 14 13 13 9 10 9 15 17 18 21 21 20 21 21 20 23 23 21 5 10 11 12 5 6 6
4 6 2 5 2 1 1 2 4 7 4 10 10 7 7 13 14 12 15 13 11 9 14 14 10 11 15 15 10 15 23 23 22 22 20 23 20 18 7 10 5 6 7 6 6

GFSSW_925_spd_057.txt.gz
Wind_Speed
25 25 25 26 24 23 20 16 13 12 13 16 17 14 10 8 5 6 10 2 9 12 15 20 24 19 17 9 15 10 6 2 3 4 8 13 7 6 3 7 7 7 11 26 35
26 27 27 28 26 25 22 17 12 11 14 17 16 11 8 4 9 13 8 9 14 23 18 25 21 18 14 18 6 8 8 5 12 9 8 14 16 15 10 11 10 9 25 33 38
28 28 27 29 28 26 22 16 12 12 15 16 12 8 6 2 9 5 6 7 14 28 20 22 19 17 18 13 16 12 12 12 8 7 11 5 6 12 10 12 15 15 24 28 34
28 28 28 29 28 26 20 17 15 15 15 11 9 7 3 6 0 7 11 10 18 26 22 21 17 18 17 16 16 14 11 5 4 11 11 7 13 9 10 2 14 21 25 28 28
29 30 29 30 28 24 20 19 19 18 10 8 8 4 2 9 3 6 8 10 21 24 26 20 18 18 17 15 12 16 11 3 9 10 10 12 4 3 19 11 19 24 24 27 24
29 30 30 31 28 22 20 22 19 10 6 7 5 5 7 11 4 5 1 15 23 27 25 22 14 18 11 15 15 6 15 5 8 12 11 14 9 12 12 16 21 24 25 26 26
29 30 32 34 27 20 18 19 14 8 7 2 2 5 11 5 3 1 6 13 22 25 19 21 17 15 11 14 13 16 10 15 19 12 12 10 15 13 12 19 21 22 23 25 25
30 30 32 33 26 16 17 15 8 6 6 1 2 7 3 0 2 2 6 11 17 18 17 17 13 14 17 10 7 16 16 15 18 14 16 13 9 17 19 20 21 22 21 23 25
30 30 32 31 21 13 18 10 5 6 2 2 5 9 8 3 6 3 5 12 17 12 16 13 11 15 17 13 13 15 14 20 12 20 14 14 3 16 20 19 19 20 21 22 23
29 30 31 28 14 12 15 5 8 5 5 8 10 9 4 3 3 3 6 11 15 12 14 11 10 16 16 15 15 17 18 17 15 22 20 15 13 22 19 19 18 19 21 23 24
29 29 29 26 11 11 14 6 6 7 17 7 6 3 5 4 4 3 10 15 15 13 16 19 14 18 20 19 20 20 14 19 18 15 15 15 13 30 17 17 19 19 20 23 24
29 28 27 22 8 9 11 5 6 7 6 4 2 4 1 2 5 6 9 14 12 17 19 13 20 19 17 17 17 19 14 16 18 15 12 9 16 11 20 16 19 19 21 22 23
30 27 25 18 7 8 4 6 6 5 7 10 3 2 2 8 0 5 7 13 12 19 20 20 10 20 20 18 16 18 18 16 14 14 15 10 12 17 16 18 18 18 19 22 25
29 28 23 15 7 4 2 8 6 4 6 13 10 4 6 3 7 0 0 8 10 16 19 21 21 8 19 20 17 18 17 18 17 16 12 19 12 17 14 20 20 19 20 22 24
30 29 18 8 13 5 8 8 3 7 6 7 8 4 3 8 4 8 1 7 13 13 11 17 18 22 17 20 17 17 16 16 17 18 16 19 18 17 21 16 23 22 22 22 24
30 24 7 5 9 4 8 6 6 7 4 7 4 4 10 5 4 1 4 6 6 9 13 17 13 16 21 17 16 16 17 15 14 15 18 24 18 21 15 16 24 24 24 23 24
31 9 3 4 6 8 9 7 7 9 3 8 5 6 5 5 7 3 3 10 9 11 15 18 20 18 13 17 22 17 16 13 14 14 19 24 24 18 23 27 14 23 25 25 24
18 4 2 4 8 7 10 9 9 4 5 5 1 4 9 3 8 4 8 10 9 12 13 14 16 21 19 21 19 24 22 15 22 15 20 24 26 23 25 16 7 9 26 25 24
7 5 4 5 6 6 8 9 4 8 7 3 7 10 11 6 6 3 9 11 4 3 12 9 20 5 6 19 21 22 24 25 25 24 17 19 26 24 26 26 23 27 17 24 26
11 7 7 9 3 8 7 11 4 7 6 6 10 1 8 9 4 8 6 6 2 3 7 8 13 13 5 9 17 21 18 21 18 24 27 20 22 19 27 24 26 20 15 15 18
8 5 9 10 4 8 7 6 4 5 7 4 6 9 6 10 5 13 7 5 4 3 8 14 8 16 17 12 19 16 20 18 18 23 21 19 17 15 21 25 24 24 21 18 20
6 3 12 7 8 3 6 5 2 4 0 5 4 8 10 11 11 10 12 5 8 6 9 6 10 14 21 13 18 24 22 26 18 22 21 21 16 14 13 21 22 20 21 25 22
5 3 11 12 4 5 4 3 3 4 5 5 5 4 9 9 9 10 13 2 4 8 4 7 10 13 17 15 16 16 21 16 20 26 24 20 20 22 3 9 9 19 23 20 23
5 1 4 7 6 5 0 4 3 6 3 6 9 9 10 12 11 8 11 3 6 11 8 4 13 15 14 8 11 14 24 23 20 16 21 24 21 26 9 4 11 14 18 22 19
4 5 4 7 6 6 5 2 1 7 7 5 3 6 7 7 10 13 12 12 9 7 7 10 16 16 16 18 13 16 15 13 18 14 19 21 25 23 15 13 7 6 8 13 11
4 3 4 6 6 3 5 10 11 4 8 5 7 9 9 11 11 14 9 11 14 10 14 14 17 15 18 16 15 18 19 18 21 20 20 24 26 21 19 12 13 7 9 3 5
6 4 5 2 9 6 7 6 6 9 1 4 7 9 8 10 12 12 15 13 12 14 12 14 13 14 19 17 18 20 21 20 22 23 22 22 23 20 19 10 15 12 8 2 8

GFSSW_925_spd_060.txt.gz
Wind_Speed
26 26 27 27 27 26 24 19 15 13 14 15 17 16 12 9 6 6 11 5 16 6 11 13 19 23 18 16 12 3 4 4 5 1 9 14 13 11 9 10 14 10 18 28 36
27 27 28 28 28 26 23 18 15 14 14 17 16 13 10 7 9 16 12 11 13 12 16 20 19 20 15 18 11 8 3 6 10 4 13 19 15 16 13 13 10 13 23 35 36
27 28 29 29 29 26 22 19 17 16 16 18 13 9 8 2 9 4 13 14 15 20 20 20 22 19 17 14 16 14 15 16 11 16 7 6 6 7 2 12 17 21 25 29 34
28 28 29 29 30 27 22 19 20 20 18 14 10 6 6 5 2 9 2 8 16 21 19 22 19 18 17 19 18 18 11 4 3 3 9 9 7 7 12 9 13 24 26 26 25
29 29 30 31 30 27 21 19 21 18 13 11 7 7 2 7 3 4 3 8 16 19 21 19 19 18 18 17 18 17 15 9 7 4 6 8 18 13 18 9 10 24 25 26 23
29 30 31 31 31 26 20 19 19 14 10 9 8 5 6 9 3 1 4 12 17 24 22 23 15 15 16 19 16 16 13 12 7 13 9 9 14 10 2 14 20 23 25 26 24
29 30 31 31 30 25 18 19 17 10 8 7 3 6 12 8 2 3 5 13 19 25 18 24 19 14 16 12 16 15 17 11 11 8 10 14 5 7 19 23 23 23 24 24 24
29 30 32 31 29 21 16 21 13 8 9 5 2 6 7 3 4 6 9 11 16 23 24 17 18 13 16 14 15 12 17 15 15 16 13 17 5 17 22 15 24 24 23 20 20
30 30 32 31 27 19 18 18 8 8 5 5 6 10 6 4 7 5 6 13 17 19 21 17 15 13 13 16 13 14 14 19 15 20 13 14 3 7 2 20 21 22 23 22 19
29 30 32 30 25 18 19 18 11 10 8 9 15 10 9 4 2 4 7 11 14 15 13 13 10 13 13 14 14 16 17 16 17 17 14 15 11 8 8 13 22 20 22 21 23
30 30 30 29 22 16 23 8 4 6 13 11 2 6 4 5 8 8 10 12 13 12 14 18 12 17 20 21 20 20 19 17 17 17 18 17 14 12 16 12 14 21 20 22 24
31 31 30 27 21 17 19 7 7 8 8 11 5 5 2 6 4 5 10 11 13 14 16 13 19 19 18 20 18 19 20 19 12 15 18 17 12 17 9 11 18 22 22 23 24
30 30 31 26 19 16 11 6 8 8 7 13 12 9 7 7 5 9 9 14 15 16 18 20 13 22 20 17 17 18 17 16 17 9 19 13 15 10 6 8 17 18 21 24 24
30 29 30 26 11 13 6 7 8 4 5 15 9 5 7 7 6 4 5 9 15 16 19 21 21 14 20 20 17 18 15 18 19 17 12 18 10 20 23 21 25 10 23 24 24
31 31 27 13 15 9 8 9 8 4 5 12 10 5 2 11 9 9 1 7 13 14 11 18 21 20 18 15 20 17 16 14 16 18 19 21 12 12 29 21 8 21 18 24 24
32 28 19 5 10 11 8 9 5 6 5 6 6 8 10 10 5 4 7 8 10 10 14 15 17 17 19 18 15 16 15 17 17 14 16 21 18 14 13 13 17 22 22 24 25
32 16 9 11 8 8 10 8 6 9 11 8 9 6 11 12 5 6 9 12 9 9 13 14 17 17 13 16 19 15 14 12 13 13 17 18 19 15 14 26 30 26 25 25 25
25 7 7 10 9 11 11 9 7 8 8 8 2 2 5 7 7 4 5 9 10 9 13 13 13 20 16 17 16 21 18 13 16 14 17 20 20 19 23 15 35 33 29 11 29
20 13 13 7 7 7 8 9 3 13 14 4 6 7 9 9 4 3 9 12 10 5 7 10 16 19 11 18 18 20 19 22 23 22 16 17 18 23 21 22 17 14 13 15 7
18 16 7 6 5 9 7 12 7 16 12 5 6 8 9 8 12 5 8 6 0 8 8 9 14 16 16 9 14 20 19 18 15 22 24 18 21 13 20 18 17 19 15 11 8
6 5 7 9 4 6 8 6 11 11 10 10 10 12 8 12 10 5 10 4 2 3 2 11 11 18 17 13 13 13 15 20 19 17 18 16 16 18 14 22 18 20 21 21 20
9 3 11 6 6 5 7 12 3 9 5 4 4 6 7 12 14 9 8 8 10 10 6 14 10 12 17 19 19 17 21 20 14 18 16 15 17 21 10 9 21 19 17 23 19
6 4 8 8 4 7 8 10 8 12 9 8 6 6 7 7 6 8 10 11 5 3 9 9 7 10 15 15 20 13 19 20 21 19 22 16 15 25 17 13 7 15 15 17 23
5 2 5 7 8 11 7 7 7 8 5 8 8 7 8 9 8 6 7 5 10 6 7 4 12 17 14 11 13 12 15 19 21 16 17 20 24 21 16 8 12 9 5 11 21
3 6 4 9 8 9 13 10 6 8 10 4 2 6 8 9 8 9 9 4 7 4 6 6 15 18 21 24 20 18 17 18 20 23 20 19 22 22 9 21 16 19 20 10 11
7 5 5 6 8 4 10 9 9 12 8 11 10 12 10 8 12 15 14 12 9 6 6 15 15 17 20 22 21 21 19 18 20 20 22 18 21 20 16 7 19 19 21 27 7
7 3 5 5 8 7 6 6 7 6 3 4 7 8 7 9 11 12 15 14 15 13 13 10 7 12 18 17 21 21 20 19 20 20 18 18 19 18 15 16 8 14 17 18 24

GFSSW_925_spd_063.txt.gz
Wind_Speed
27 27 27 28 27 27 24 19 17 16 15 15 15 16 13 11 8 5 7 9 12 8 11 9 14 19 20 13 17 9 2 4 3 3 3 8 6 3 7 7 14 4 16 28 30
28 27 28 29 29 28 24 20 18 17 17 17 18 14 11 10 8 13 10 11 10 15 12 16 13 16 13 13 10 4 3 4 4 2 4 15 15 13 5 11 7 14 23 29 28
29 29 29 30 30 29 25 20 18 19 19 18 15 11 8 6 5 6 13 19 14 13 16 17 17 14 13 15 12 8 8 7 10 15 4 8 4 3 4 7 15 25 24 23 25
29 30 30 31 30 30 26 21 18 19 18 14 10 8 8 1 2 5 9 18 17 15 13 15 12 15 12 13 15 16 16 11 7 12 10 16 4 5 2 6 15 25 28 23 18
28 30 30 31 30 30 27 20 18 18 16 13 8 7 1 4 7 7 5 11 14 17 18 13 11 16 14 11 15 17 20 13 8 7 8 15 11 6 10 1 10 17 23 21 15
28 30 31 32 31 31 26 20 19 17 13 10 8 4 1 4 2 5 7 12 13 18 17 18 10 12 10 15 14 15 14 12 13 11 15 11 7 9 3 4 5 17 22 18 14
29 30 30 31 30 31 25 20 22 15 9 8 4 3 6 12 1 3 11 11 16 20 10 22 25 15 8 11 12 10 11 12 15 16 7 8 8 3 10 10 17 17 19 16 16
31 31 31 31 29 30 25 21 19 13 9 4 0 4 6 5 10 8 13 15 13 19 21 24 25 15 7 8 14 10 7 5 6 15 15 15 11 13 14 14 12 17 21 20 18
30 32 33 32 30 29 25 21 20 11 8 2 2 5 7 6 6 14 8 16 17 19 24 24 22 8 8 5 7 7 5 8 14 19 12 12 11 18 17 14 15 19 21 21 20
31 32 33 33 29 28 24 25 15 8 5 5 9 5 7 5 6 3 8 10 14 12 14 16 9 5 5 3 6 9 6 9 11 11 16 16 16 20 19 10 6 19 18 22 21
32 32 34 33 29 25 27 10 0 2 6 8 4 6 8 7 5 9 11 9 10 8 9 8 4 8 8 10 13 16 15 13 12 9 15 13 24 22 18 14 13 20 20 17 14
32 32 33 33 28 23 17 3 6 7 7 14 18 8 4 5 5 6 13 6 7 6 8 6 12 9 12 15 16 18 14 14 13 11 11 17 17 22 18 16 16 8 22 25 21
32 32 33 33 26 15 9 16 8 10 4 8 13 8 6 5 7 9 4 10 8 9 9 11 12 18 16 15 15 13 9 11 11 10 6 16 3 12 9 13 16 10 3 11 25
32 32 34 31 10 15 9 2 10 5 3 5 9 3 5 3 4 10 1 4 5 9 12 8 16 16 16 15 12 7 10 12 11 7 2 7 5 9 9 8 10 8 11 12 23
32 33 30 16 15 8 14 12 9 5 3 11 7 3 6 5 6 4 4 4 8 8 6 8 13 13 14 11 14 9 10 8 9 7 5 11 2 6 12 6 10 18 22 17 13
33 31 24 4 7 12 18 17 9 1 5 6 5 7 4 5 4 6 5 4 5 6 9 9 8 9 12 13 9 6 8 9 7 5 6 8 4 1 9 12 9 21 24 16 16
34 22 13 8 5 13 17 8 2 4 9 6 6 8 10 7 5 3 6 6 4 2 4 7 11 9 9 6 7 6 2 3 4 5 6 7 5 8 12 17 20 22 21 17 9
30 15 8 10 10 17 15 3 3 11 9 6 8 3 3 9 3 6 4 4 8 7 2 3 7 8 5 5 3 7 8 5 6 6 5 8 5 7 16 24 25 16 14 8 3
25 7 8 11 11 9 3 3 6 10 13 10 4 2 4 5 5 4 2 6 7 13 4 6 6 17 13 7 11 8 5 9 7 9 4 6 8 13 11 19 24 22 14 10 8
17 7 9 5 1 7 2 5 9 10 11 10 8 9 7 4 5 7 5 9 6 9 8 7 6 6 15 15 6 9 4 3 3 7 7 6 8 6 6 13 25 22 16 13 8
4 3 6 8 4 2 2 3 9 12 11 9 8 8 9 9 12 6 6 14 14 10 8 6 3 10 11 4 8 7 4 4 1 2 6 6 7 9 9 6 15 23 22 25 21
8 1 9 8 1 3 5 3 5 11 12 6 3 5 7 9 8 8 7 5 6 9 6 6 1 5 13 19 18 13 9 4 4 8 3 4 8 13 10 14 22 18 25 27 27
5 2 15 16 4 5 6 14 12 11 12 12 11 12 10 8 5 7 7 13 13 6 4 6 3 4 10 7 5 7 13 13 3 2 8 4 7 3 14 16 14 21 9 19 26
4 2 4 5 7 13 9 9 8 15 13 7 6 7 8 8 7 4 7 4 10 10 5 2 1 2 5 11 10 14 21 18 9 2 5 5 7 15 13 13 17 14 17 10 6
3 3 5 5 6 9 9 10 14 10 10 14 12 15 10 5 8 7 12 9 6 6 4 1 4 6 10 14 15 20 20 20 14 8 3 9 14 6 8 8 9 9 13 15 18
3 3 4 4 8 13 9 9 12 8 9 10 9 10 7 8 8 8 8 8 4 8 4 4 3 6 10 12 15 18 19 21 17 13 12 11 15 10 13 11 11 18 13 14 15
9 9 3 5 10 8 8 7 10 8 8 11 9 7 6 11 11 11 11 12 10 7 5 5 1 4 5 9 12 11 12 16 17 12 9 10 10 16 17 17 16 17 15 13 9

GFSSW_925_spd_066.txt.gz
Wind_Speed
24 25 26 26 25 25 23 20 16 15 15 15 15 16 14 11 10 6 7 9 10 14 11 12 10 14 12 3 10 2 2 3 2 1 4 9 5 4 5 8 6 3 11 25 30
26 26 26 27 27 26 25 22 17 14 17 16 15 13 10 10 9 12 10 13 14 16 12 13 8 9 3 5 5 6 3 4 3 3 4 8 9 9 7 11 9 5 17 24 39
26 27 27 27 27 26 26 23 17 15 16 16 12 8 5 6 3 7 4 18 16 19 14 15 12 5 6 4 6 8 7 5 5 8 5 3 6 3 8 9 5 7 20 20 31
27 27 27 27 29 26 27 23 17 15 17 13 9 5 4 1 2 2 9 20 18 15 12 6 4 5 5 8 8 6 13 10 2 10 8 9 7 5 3 3 7 18 23 20 22
27 28 29 27 28 27 27 23 17 17 16 10 7 4 2 1 8 6 10 18 19 17 15 6 7 5 5 5 11 12 13 9 8 16 14 11 4 4 9 5 5 13 15 17 14
28 29 30 30 28 28 27 23 18 17 14 8 6 1 2 3 3 12 14 19 17 21 14 11 7 9 6 8 8 5 9 16 14 14 12 13 7 3 3 12 5 16 18 14 13
28 29 30 30 30 29 28 23 18 15 11 7 1 3 3 10 4 14 14 15 20 24 7 23 11 3 5 7 9 9 5 8 16 15 9 15 7 3 8 10 16 15 17 15 11
29 29 31 31 31 30 29 22 17 15 5 4 3 2 7 6 9 11 17 11 17 17 20 14 12 7 4 8 8 6 2 0 8 12 9 5 5 15 11 9 7 17 16 15 8
30 30 31 32 31 31 30 21 20 6 2 1 2 3 8 8 6 17 15 12 16 14 16 7 3 6 4 3 5 6 4 5 3 18 10 4 5 9 13 12 6 14 18 15 8
31 32 32 33 30 30 28 23 5 3 5 1 5 3 7 4 6 8 10 19 5 5 0 3 2 2 3 4 4 4 3 6 5 7 8 8 7 15 13 11 10 9 17 15 13
31 32 33 33 30 26 27 6 4 2 4 7 5 4 3 3 7 4 6 9 4 5 4 4 3 5 9 6 6 3 5 11 15 7 6 17 10 19 14 12 14 11 13 16 17
31 32 33 32 28 20 9 1 5 3 6 10 14 11 21 9 1 4 7 4 5 5 3 3 6 9 7 6 8 7 8 15 13 7 8 14 13 16 17 17 12 14 16 15 17
32 33 34 31 21 3 9 10 12 18 1 8 6 5 6 3 3 6 9 5 4 6 6 6 10 7 7 7 8 9 8 15 11 6 11 8 9 16 13 3 4 7 7 6 18
31 34 33 30 3 15 9 20 21 2 4 6 5 4 4 5 3 8 5 3 2 8 6 6 14 10 10 12 6 7 8 11 5 5 2 6 3 7 6 8 10 13 12 7 12
32 34 28 10 11 5 15 27 23 4 1 3 3 3 4 6 6 4 4 3 1 2 4 7 5 7 7 13 7 11 13 6 2 2 5 4 6 5 16 9 16 17 23 22 15
35 29 21 5 10 10 23 25 6 5 2 4 4 4 5 2 2 4 2 3 0 2 1 7 4 4 8 9 8 9 2 6 4 3 3 4 5 4 10 25 20 18 23 25 23
30 19 12 7 5 15 21 5 4 2 6 4 4 5 5 5 4 4 3 2 3 3 2 5 5 4 1 3 6 4 7 3 4 4 5 4 4 8 20 15 26 30 28 26 14
22 12 8 11 8 15 11 5 6 7 5 6 4 5 5 5 2 3 3 3 5 1 2 1 4 8 9 5 2 1 8 5 5 2 3 5 3 5 9 16 23 29 28 17 11
18 6 8 6 7 7 4 5 1 5 6 8 5 4 8 5 6 4 8 8 4 5 5 3 4 5 9 5 1 5 1 6 5 1 4 3 8 7 1 4 11 17 18 21 18
11 7 7 7 2 1 5 5 3 5 7 7 7 6 7 8 7 4 6 7 4 8 3 3 3 3 6 7 11 7 4 3 3 3 3 4 4 5 12 16 8 10 13 17 15
5 4 7 5 6 5 2 2 8 14 12 8 7 6 5 4 6 5 5 3 5 5 9 3 4 8 4 6 3 7 6 6 2 5 5 2 5 1 7 9 10 5 11 12 10
4 4 27 2 4 1 3 4 7 10 12 8 8 8 5 6 6 6 7 6 5 3 4 6 3 3 4 6 2 4 5 6 4 7 1 4 4 6 4 3 6 11 10 17 14
2 2 18 15 4 5 5 12 14 10 11 7 11 8 6 6 5 6 6 7 12 6 3 5 4 4 12 6 8 6 7 5 5 2 2 5 5 9 11 11 11 17 14 11 7
2 4 4 5 1 4 5 7 5 12 14 10 8 8 8 9 8 5 8 11 8 6 12 6 4 4 4 3 4 6 13 10 4 2 5 2 8 13 16 15 11 15 17 10 2
3 1 2 4 6 7 13 5 13 7 6 13 8 12 5 7 5 6 9 8 6 13 6 4 2 4 2 6 8 9 12 11 7 4 4 6 6 8 10 10 13 14 14 18 17
3 3 5 2 5 12 7 6 7 6 7 5 5 7 10 5 3 3 6 5 3 8 6 5 2 4 7 7 10 13 10 11 11 5 5 9 3 8 6 10 14 15 15 17 13
7 6 4 6 4 5 4 4 5 3 7 6 6 4 7 5 4 4 5 5 6 0 3 1 4 3 1 5 7 9 2 3 7 9 1 2 5 7 9 12 11 11 13 13 12

GFSSW_925_spd_069.txt.gz
Wind_Speed
22 22 22 22 23 22 21 21 18 16 14 14 15 14 11 9 8 5 7 8 12 12 19 17 12 7 7 3 4 2 2 3 1 2 2 9 4 2 3 11 7 5 16 23 30
23 23 23 23 22 22 22 22 18 14 15 16 14 11 9 8 8 12 12 16 15 22 20 16 7 9 3 4 4 4 2 4 3 4 7 12 7 9 5 6 4 17 20 31 31
23 23 24 23 24 23 21 22 18 13 14 15 12 7 5 5 3 7 6 20 22 25 16 16 13 5 1 3 4 5 4 2 3 6 10 12 10 4 13 5 8 20 21 24 29
24 24 24 25 24 24 23 20 18 14 14 13 9 4 3 1 2 2 9 25 23 21 13 10 6 6 4 5 4 3 7 11 4 7 7 11 7 7 8 5 12 10 21 21 22
24 25 26 25 25 25 24 23 17 15 13 8 7 4 1 1 8 4 18 25 21 24 14 7 6 5 5 4 4 6 11 7 8 9 8 11 6 6 7 9 8 15 21 19 17
25 26 26 27 27 26 25 22 20 12 12 4 5 1 2 3 1 11 23 24 22 22 11 10 7 6 1 3 1 3 6 10 10 10 10 9 5 5 8 10 7 16 20 19 18
26 27 28 28 28 28 26 23 18 13 9 3 1 5 0 10 2 15 21 25 25 25 7 18 4 2 2 4 4 10 10 6 4 8 5 14 5 5 10 13 14 16 19 18 20
28 28 29 29 29 28 27 22 18 15 3 3 6 3 6 2 4 17 17 9 21 22 4 17 8 1 2 4 5 3 3 3 3 8 7 4 4 7 10 14 11 17 16 16 19
29 29 29 29 29 28 27 22 14 2 8 8 4 2 8 5 7 20 19 8 16 12 14 9 8 4 1 1 4 6 1 2 2 5 6 5 2 8 11 10 13 16 16 16 16
30 30 29 29 29 27 24 7 8 10 9 4 2 3 7 4 5 13 19 16 6 8 4 4 2 2 2 3 4 2 2 2 1 6 4 6 2 8 9 11 10 14 17 17 14
30 30 30 29 28 24 18 2 2 2 4 8 6 4 3 10 6 9 14 13 5 5 5 4 4 5 7 6 5 3 3 3 3 4 5 15 7 12 11 9 12 13 18 17 16
29 30 32 30 26 13 2 1 2 2 6 10 7 7 12 6 3 3 15 6 5 4 4 5 5 8 2 3 4 3 1 5 7 3 7 7 6 6 7 6 7 10 15 18 15
29 33 31 27 13 2 6 3 20 5 2 6 6 5 5 9 5 6 7 4 5 4 4 5 4 5 4 4 3 4 3 4 6 5 3 7 4 5 4 2 1 5 5 10 17
31 32 27 22 1 10 4 18 19 4 4 6 4 6 4 6 1 2 7 5 3 8 7 4 4 6 6 6 6 6 8 8 5 2 2 0 2 5 6 11 7 9 9 10 13
33 27 20 8 9 4 10 23 11 4 2 2 1 3 3 6 5 3 1 5 5 4 6 6 2 5 7 10 6 9 6 7 6 3 4 3 5 3 10 16 19 14 14 16 16
30 20 14 5 8 6 19 16 3 4 1 2 4 4 6 2 2 3 3 5 2 5 1 5 2 5 7 7 9 6 3 5 5 3 2 5 4 5 5 16 14 15 18 19 19
19 13 8 5 3 13 20 3 4 2 7 4 3 4 5 2 2 2 4 4 3 4 1 2 2 6 4 2 3 5 6 2 2 3 5 3 4 7 16 13 16 22 21 21 19
13 9 9 11 13 16 7 5 8 5 4 5 3 4 5 3 1 3 4 4 7 4 3 4 1 6 8 2 1 2 7 5 5 5 3 2 5 1 5 10 12 16 17 17 18
10 7 7 8 8 5 4 6 2 4 5 7 3 7 7 6 4 6 4 4 6 4 5 3 2 5 4 6 2 2 4 1 7 4 3 3 5 5 11 13 4 12 11 16 18
7 10 11 18 6 5 5 5 2 8 6 6 6 5 5 8 5 5 5 5 3 8 1 1 3 2 5 5 7 7 2 3 4 4 3 3 2 3 10 12 11 3 9 11 12
5 4 23 7 2 5 4 3 5 11 7 8 7 6 4 5 5 4 6 4 7 6 9 2 3 5 2 6 4 7 5 5 3 4 5 3 1 5 7 8 8 10 7 9 15
4 4 26 10 5 2 3 5 8 13 11 8 5 6 5 8 8 5 5 7 9 3 4 4 4 4 4 6 6 10 5 4 4 5 2 2 2 8 10 8 11 14 14 12 15
3 2 18 10 4 4 5 5 9 13 9 6 8 7 6 6 6 6 5 8 14 5 2 4 4 3 4 6 8 7 6 4 4 3 3 1 2 10 13 14 17 19 20 15 12
3 4 5 5 2 5 4 6 4 10 8 5 6 4 6 9 10 4 5 7 9 8 14 7 4 4 4 3 3 3 5 5 5 4 4 3 4 11 16 17 17 18 18 16 15
4 1 2 3 5 6 5 5 7 5 5 10 7 10 3 5 4 4 6 6 6 14 7 5 4 2 2 2 2 2 4 5 3 4 4 6 5 7 12 12 13 14 16 19 17
3 3 4 2 2 6 6 5 6 5 5 5 5 5 8 5 3 1 1 2 1 7 6 5 2 2 6 4 5 2 4 5 6 3 2 5 2 5 6 9 13 14 14 15 16
5 3 4 5 4 4 3 2 3 1 6 2 3 3 5 2 4 6 5 3 2 1 2 3 3 3 3 6 6 5 6 5 2 3 3 5 1 4 5 10 11 12 11 12 11

GFSSW_925_spd_072.txt.gz
Wind_Speed
20 20 21 21 21 21 21 19 19 17 12 12 13 13 10 7 6 4 6 9 12 19 16 19 10 9 8 3 3 2 1 2 3 0 5 11 6 2 8 8 4 2 7 19 27
21 21 21 21 20 20 20 20 19 15 13 13 12 11 8 6 6 11 12 17 17 21 22 19 6 8 2 3 3 2 1 3 1 3 5 7 8 7 5 6 11 15 21 27 27
22 22 22 22 21 20 19 19 19 15 13 14 10 8 6 6 2 7 4 21 20 26 23 18 18 4 2 2 3 2 3 1 1 5 12 10 11 5 10 5 9 18 19 21 24
22 22 23 23 22 22 21 19 17 16 12 12 8 5 4 3 1 3 10 25 26 22 21 13 6 6 4 4 4 3 8 6 2 7 8 6 9 5 3 5 14 15 19 19 17
22 22 23 23 24 23 22 20 17 14 12 9 6 4 1 1 7 1 22 25 29 20 17 7 8 5 5 4 4 7 5 6 5 8 8 9 5 10 8 10 13 17 19 16 15
22 23 23 24 24 24 23 21 18 13 8 8 4 2 1 2 4 9 27 27 25 20 11 8 8 5 3 2 2 1 5 9 4 9 8 8 6 10 10 16 12 17 17 16 16
25 25 25 25 24 24 24 21 19 12 8 5 3 4 1 8 1 17 23 20 22 21 6 7 4 4 1 2 4 5 3 4 6 5 5 14 5 5 13 15 18 15 16 18 18
26 26 26 25 25 24 23 22 18 13 7 6 6 2 6 2 7 21 20 12 17 16 3 14 4 2 1 4 6 4 4 4 2 1 6 1 1 6 13 13 16 20 18 17 17
26 26 25 25 25 24 23 15 8 2 11 11 7 2 6 2 9 21 20 11 15 10 6 6 4 1 2 2 4 6 2 3 2 4 5 3 1 6 9 10 12 17 19 16 17
26 26 25 26 26 24 20 3 14 12 10 5 1 2 6 5 7 22 18 22 6 6 2 4 3 3 3 3 4 3 4 2 2 5 1 4 1 7 9 11 10 18 20 17 17
27 25 27 27 24 22 8 5 3 3 4 8 5 4 5 9 10 9 22 9 6 5 5 4 4 6 7 6 4 3 4 0 3 3 2 7 4 9 8 6 10 15 14 16 16
27 28 29 26 22 7 5 3 6 1 6 9 7 6 10 5 2 5 25 6 6 6 5 4 6 8 6 5 5 2 3 3 5 3 5 2 2 4 6 5 7 10 13 13 14
29 30 26 22 4 4 2 0 6 3 2 5 5 4 5 8 5 8 11 5 7 6 5 7 5 7 5 3 4 2 3 3 5 2 3 6 1 2 3 1 1 2 6 9 16
32 26 22 14 2 7 3 12 14 11 4 5 4 5 5 3 2 4 11 7 3 8 8 5 3 7 4 3 6 1 7 6 3 2 1 0 2 3 4 7 6 6 6 7 13
28 20 18 8 5 1 8 21 3 2 1 2 2 4 2 6 4 3 2 5 7 6 6 5 6 4 3 6 6 7 6 6 3 2 3 1 4 5 3 4 10 12 13 11 10
21 18 12 5 5 6 17 17 2 3 1 2 3 4 5 3 1 3 4 6 3 5 3 5 2 5 8 6 9 5 5 7 5 3 2 2 4 4 3 5 5 13 16 15 14
18 11 6 6 3 13 17 3 3 3 5 6 4 4 5 2 4 4 5 6 3 5 3 3 2 5 3 3 3 5 6 2 3 2 4 2 4 6 8 12 8 13 19 18 16
13 9 13 10 13 11 4 5 7 5 4 4 4 5 6 6 7 6 4 5 7 5 4 5 1 6 8 3 5 5 7 5 5 5 4 3 5 1 6 10 15 4 12 13 14
9 5 16 20 12 4 4 6 1 4 6 6 1 7 7 6 5 6 5 3 4 4 5 5 1 5 4 5 2 4 5 3 7 2 3 2 4 6 18 19 20 18 2 5 9
6 6 14 21 5 2 4 4 3 4 6 3 5 3 3 7 5 5 6 5 6 7 2 2 5 3 5 5 7 7 1 3 4 3 2 2 3 4 16 19 19 19 16 11 7
5 4 18 11 6 6 4 3 4 9 5 7 4 5 4 3 5 4 6 2 7 6 8 2 3 4 5 8 5 6 5 5 5 3 5 4 2 7 7 11 17 18 17 16 9
3 3 19 8 5 2 3 4 6 9 9 7 4 5 5 6 6 4 4 4 14 3 4 4 5 5 2 5 4 5 3 3 4 3 2 3 2 6 10 13 16 17 18 20 17
3 1 12 7 4 3 4 4 6 10 8 8 8 7 5 4 6 4 4 6 14 6 2 1 3 4 3 5 5 7 5 3 4 3 1 4 4 8 11 14 16 17 17 18 20
3 4 5 5 2 4 2 5 4 7 6 5 6 4 5 8 9 3 3 5 8 8 13 6 4 3 6 4 3 4 4 4 4 3 3 1 3 6 12 15 16 17 15 15 16
4 1 2 3 5 5 4 4 4 7 5 9 6 9 4 5 4 4 5 6 6 13 6 5 4 3 5 5 3 3 3 1 1 3 3 5 2 3 6 9 9 11 15 17 17
3 3 4 2 3 5 6 5 5 4 6 5 5 4 8 5 2 2 2 4 1 6 5 4 3 3 2 3 2 4 6 6 4 3 3 6 3 3 3 5 9 11 13 15 15
3 3 4 4 3 4 2 2 2 1 6 5 2 3 7 3 3 1 1 3 2 3 3 3 4 3 3 2 2 3 1 3 2 2 2 1 0 4 4 6 6 7 9 11 13

GFSSW_925_spd_075.txt.gz
Wind_Speed
18 18 18 18 18 18 17 17 16 15 11 9 11 10 9 7 5 4 7 7 11 22 20 18 11 13 8 5 2 3 2 2 6 1 4 13 7 1 5 10 4 7 8 19 28
18 18 19 18 18 18 17 16 15 14 12 10 11 9 6 6 5 11 9 14 14 25 22 20 13 15 5 5 3 2 2 2 5 4 10 11 7 9 6 8 7 12 19 29 25
18 19 19 19 18 18 17 16 15 14 12 10 9 7 4 4 4 5 1 19 22 25 20 14 18 9 5 4 3 2 2 2 5 5 14 16 12 6 11 6 8 20 25 26 26
19 19 19 20 19 19 18 16 15 14 12 8 9 3 2 2 1 2 4 24 25 22 21 16 12 10 6 5 4 3 6 6 1 7 10 13 13 8 2 4 11 20 24 25 21
19 20 20 20 20 20 20 18 14 13 11 7 4 3 1 3 6 6 21 25 26 22 20 13 17 8 8 6 4 7 6 4 6 10 6 13 9 9 6 12 18 22 21 21 20
20 21 21 21 21 21 20 19 17 13 9 6 1 1 2 3 5 6 23 25 21 17 16 18 11 5 7 4 4 2 8 9 2 9 10 11 9 9 8 16 18 20 19 18 20
21 21 21 21 21 21 22 21 20 15 7 5 4 4 1 4 4 16 18 18 21 12 11 9 11 5 4 3 2 5 6 3 8 10 5 11 11 8 18 17 20 20 17 17 18
21 21 21 21 22 22 23 22 16 14 7 8 7 2 4 4 7 18 15 12 16 10 8 4 6 4 1 3 1 3 1 2 3 8 5 4 4 8 19 18 17 17 17 17 18
22 22 21 23 23 22 21 8 12 5 13 12 8 3 2 1 6 16 12 13 14 8 7 7 4 3 2 2 4 1 5 4 4 4 6 4 5 8 13 17 16 16 18 18 18
22 21 22 24 23 21 9 8 11 10 9 5 2 2 3 3 7 15 11 19 6 11 6 7 3 6 3 5 9 7 5 4 5 8 5 8 4 9 11 12 17 18 18 18 18
22 24 25 24 22 18 3 4 2 3 5 5 2 1 1 4 12 13 13 11 8 13 8 9 9 14 13 8 2 5 6 4 3 5 3 4 4 9 12 12 14 17 18 18 19
25 26 24 21 17 3 9 3 4 2 6 9 8 7 7 2 4 12 18 7 12 16 11 9 15 12 9 6 4 4 4 3 2 4 3 2 2 6 10 11 14 17 19 19 18
27 23 19 17 4 1 3 1 3 7 4 3 5 5 4 11 8 15 19 9 15 12 13 14 7 13 10 8 9 5 6 3 2 1 3 4 4 5 6 7 9 16 17 19 19
24 17 15 6 1 2 2 6 14 12 3 2 6 5 6 6 5 12 23 12 6 14 11 9 6 16 11 10 9 10 7 4 3 2 1 2 2 2 8 12 11 14 20 18 21
19 15 10 2 2 1 4 15 5 3 2 2 4 2 4 6 15 9 16 5 12 11 5 6 12 16 14 11 8 5 4 5 2 4 3 4 2 5 4 8 11 12 16 21 21
15 12 8 3 4 3 13 7 4 2 1 2 3 7 8 4 3 10 9 4 3 10 4 4 3 7 7 9 12 9 6 4 4 3 5 5 3 8 5 7 8 12 17 20 23
12 10 8 4 4 13 11 1 2 3 6 7 3 4 9 4 6 12 3 4 4 11 13 4 3 2 2 8 7 7 9 5 6 5 5 2 3 7 9 11 11 14 13 21 21
8 4 14 8 12 8 1 2 6 7 5 5 4 5 5 3 6 5 5 4 9 3 6 10 6 3 6 2 6 14 11 6 10 8 7 2 8 7 11 13 14 18 15 9 19
6 2 12 22 6 3 2 6 2 4 8 8 5 6 4 5 6 7 8 5 7 6 3 6 5 3 7 6 2 6 8 2 5 1 8 4 3 6 16 19 21 20 18 13 6
5 2 8 22 7 2 4 6 2 8 7 3 2 4 4 4 5 5 6 5 5 9 2 2 6 7 5 2 10 2 4 6 3 9 9 4 3 4 17 19 18 20 18 16 8
3 1 12 17 4 6 4 4 3 10 8 7 5 4 6 4 7 4 5 3 7 6 6 2 0 3 1 7 7 1 3 3 2 2 6 7 4 6 8 11 14 17 17 17 16
2 2 20 8 3 2 4 4 7 11 10 8 5 8 6 7 7 5 4 6 13 4 4 4 5 5 4 1 4 7 3 1 7 5 2 1 5 5 8 10 12 14 16 17 18
2 2 12 6 3 3 3 3 9 12 10 8 8 9 7 4 5 5 4 6 12 7 3 1 3 6 3 3 1 4 5 3 2 0 2 5 5 5 8 12 12 14 16 16 18
2 2 4 5 3 3 3 5 3 10 8 7 6 4 3 7 8 4 3 6 8 9 12 3 4 3 2 4 2 3 4 5 3 3 7 3 11 6 9 11 13 14 15 16 16
4 3 2 4 6 7 3 3 5 6 6 12 7 11 3 4 4 5 3 3 8 13 5 4 5 6 9 6 3 1 1 3 4 4 2 9 8 5 5 7 9 11 13 15 17
2 2 2 2 1 5 6 3 7 4 6 6 8 12 11 6 5 3 2 3 3 6 4 3 5 5 3 4 3 4 5 4 1 4 3 3 6 3 3 4 8 11 12 14 15
3 3 1 3 2 2 2 2 3 3 7 7 5 8 12 7 5 6 7 5 5 4 4 3 6 3 4 2 0 5 6 6 2 3 4 5 5 5 4 4 7 9 11 13 14

GFSSW_925_spd_078.txt.gz
Wind_Speed
15 15 15 15 15 15 14 13 13 12 10 10 11 10 9 8 6 5 10 6 10 23 20 18 14 14 14 7 5 3 2 7 7 7 8 10 5 1 1 5 6 5 10 26 29
15 16 15 15 15 15 14 13 13 12 11 9 10 11 6 6 7 14 10 14 17 28 22 21 16 17 10 7 4 3 1 6 5 8 15 11 11 9 4 11 7 11 20 29 28
16 16 16 16 16 16 15 15 13 13 11 9 8 7 5 3 7 2 6 18 24 27 20 15 16 14 8 7 5 1 2 6 12 15 16 15 9 10 13 11 12 17 24 27 27
16 18 17 16 16 16 16 15 14 13 12 8 8 3 4 4 1 3 3 23 28 23 20 15 16 13 10 7 3 3 0 4 7 11 14 16 14 7 6 2 11 17 26 27 23
16 17 17 17 17 17 17 16 14 15 12 8 6 3 2 7 3 4 12 25 28 23 23 17 16 13 12 9 8 10 3 1 2 11 8 13 13 10 4 4 14 20 26 24 22
17 18 17 17 17 17 18 17 16 13 13 8 5 3 7 7 4 8 18 23 24 24 21 16 11 7 10 9 9 2 4 3 2 13 10 11 13 9 7 13 19 21 22 21 21
19 18 17 17 17 18 18 17 16 13 10 9 6 5 9 3 2 13 19 19 20 21 17 17 9 12 4 7 6 6 7 7 3 11 9 9 12 5 16 17 20 22 19 19 20
19 19 19 18 18 17 18 12 11 9 7 7 7 7 4 2 7 16 16 16 13 15 14 10 10 8 9 3 7 10 8 10 9 11 7 9 11 14 18 20 19 20 19 18 18
18 18 19 19 18 16 12 4 12 7 8 9 5 8 5 7 13 16 18 19 16 11 11 10 12 11 7 12 10 10 12 7 9 5 10 8 11 14 18 17 19 18 18 18 18
20 19 20 19 17 15 1 6 7 8 8 5 4 6 6 12 17 15 14 18 15 12 12 12 10 11 12 12 14 15 9 7 10 9 11 8 12 15 14 15 16 14 13 19 19
21 23 22 18 16 10 8 3 5 6 8 7 1 5 11 11 19 16 17 19 14 14 14 16 11 18 21 17 6 8 11 10 6 11 7 8 9 11 19 17 13 15 19 19 20
22 21 19 16 10 5 7 4 6 5 7 13 12 9 5 14 13 17 21 12 17 17 15 12 18 16 17 11 9 11 12 12 7 6 5 6 6 11 14 13 18 20 18 20 21
21 17 14 9 6 3 2 3 2 7 7 6 9 12 13 12 17 21 21 10 18 20 18 14 12 12 15 15 14 13 14 12 8 6 3 6 7 9 12 9 13 14 17 19 20
16 12 9 3 2 0 2 3 10 6 5 10 9 10 11 13 12 26 25 12 11 19 18 15 7 17 18 18 17 15 7 4 9 8 8 10 6 7 11 11 7 8 14 17 19
13 10 7 1 3 4 2 9 2 5 5 4 8 7 17 19 19 21 26 12 15 16 12 13 13 20 19 17 16 8 10 9 8 9 4 11 7 7 8 11 11 10 11 12 17
9 8 5 2 4 5 7 6 4 7 2 3 7 12 17 12 19 23 18 7 8 13 16 8 13 16 15 13 13 7 10 9 8 9 10 9 12 7 6 4 5 2 15 18 17
2 5 9 3 5 8 8 5 6 4 5 4 2 16 17 15 15 22 21 16 10 16 16 12 15 7 5 14 16 13 16 11 10 8 8 11 7 10 8 7 8 5 8 17 19
4 5 5 5 9 7 7 10 1 7 6 8 2 11 10 16 17 19 14 10 3 10 15 14 13 14 3 11 13 20 19 11 13 12 12 7 8 8 11 10 11 11 11 4 20
6 2 3 13 4 3 8 1 5 7 6 7 7 10 13 7 10 15 5 8 3 5 9 14 9 7 4 2 7 20 16 7 7 8 9 13 14 15 10 12 14 14 13 13 5
4 4 5 12 2 7 4 5 4 8 5 3 5 3 14 13 14 12 6 3 3 7 7 1 11 2 3 4 2 7 13 10 9 14 13 10 17 10 8 12 14 17 17 15 2
5 5 8 10 3 3 1 5 5 8 5 4 1 2 8 6 9 5 3 6 6 4 3 3 6 8 7 2 2 7 11 10 9 5 14 9 7 8 6 7 11 12 13 15 18
5 3 13 6 3 1 4 4 3 6 6 6 6 6 6 4 7 4 6 6 8 4 2 2 4 11 9 6 1 2 5 9 10 12 6 6 7 9 10 7 9 12 13 14 16
2 3 10 6 1 5 4 6 9 10 10 5 6 7 4 3 5 6 4 5 8 4 3 2 7 9 10 7 4 3 2 2 8 8 13 10 8 10 10 10 11 12 12 13 16
2 1 4 6 3 4 5 5 3 8 11 8 4 2 5 6 5 6 7 5 5 8 6 6 2 5 4 7 6 8 3 1 7 10 8 4 18 13 10 11 11 12 13 13 14
4 4 3 3 6 5 5 3 5 3 5 7 6 5 3 5 10 7 4 5 8 6 3 4 4 6 9 8 6 4 4 3 1 5 5 17 16 12 11 11 11 11 12 13 14
2 0 3 5 2 4 2 6 7 5 7 8 9 9 5 8 6 7 7 3 4 5 4 4 3 4 3 3 3 4 4 3 3 3 6 10 14 11 9 9 10 11 12 13 14
3 2 4 1 2 1 4 3 4 3 7 6 6 8 10 9 8 8 8 6 6 3 4 1 6 5 4 1 2 8 11 9 6 5 6 9 13 9 10 8 8 10 12 13 13

GFSSW_925_spd_084.txt.gz
Wind_Speed
15 15 15 14 14 14 14 15 14 13 14 14 14 13 12 11 11 9 11 10 20 10 11 13 17 20 18 13 14 4 4 3 1 17 10 11 6 4 8 9 2 11 22 25 29
16 16 16 15 15 15 15 15 15 14 14 14 14 13 13 11 12 21 16 15 11 12 16 21 19 18 12 13 7 2 3 6 4 16 17 14 10 4 3 12 6 23 26 30 28
16 16 16 16 16 15 16 16 16 15 14 13 13 12 12 9 11 5 22 25 16 15 20 20 16 15 17 13 8 7 2 4 14 17 19 16 11 4 9 10 18 25 26 24 26
16 16 16 16 16 16 16 16 17 16 14 12 12 11 10 7 2 4 11 22 16 19 21 19 17 15 17 9 10 4 4 8 13 19 16 15 10 8 0 2 14 24 24 21 20
18 18 18 18 16 16 16 16 17 16 14 11 10 8 6 8 10 7 9 16 16 19 22 18 17 15 17 8 9 8 2 12 18 17 16 20 15 12 3 10 10 23 22 21 18
16 17 17 17 17 17 17 17 16 16 15 11 7 5 6 12 4 7 12 16 18 22 20 20 14 17 13 5 9 3 5 13 12 11 15 14 16 17 12 10 7 21 22 21 19
19 18 18 18 18 19 18 18 15 14 13 10 7 5 11 17 3 4 13 18 20 24 18 20 20 17 9 11 9 10 9 16 16 16 15 13 13 13 11 25 16 23 21 20 18
19 19 20 20 21 19 19 15 11 10 8 7 7 7 8 7 15 8 12 16 20 22 22 16 19 14 17 15 15 19 9 9 16 21 14 12 13 15 13 17 19 23 19 19 19
20 21 22 21 21 18 15 11 3 5 2 9 6 10 11 6 12 14 16 18 21 20 19 15 13 12 17 16 12 15 15 17 8 20 22 12 11 2 15 17 21 17 18 19 18
21 21 22 20 17 14 11 4 4 2 1 5 15 9 10 12 13 17 17 18 18 16 14 13 8 13 15 15 15 18 20 16 18 15 14 15 19 18 14 16 19 16 15 19 19
18 17 15 14 13 9 1 4 4 6 13 11 5 13 8 13 16 16 18 16 15 17 15 16 12 16 21 22 22 21 20 13 6 11 22 17 19 19 19 18 17 15 15 18 19
18 15 13 7 4 4 5 6 8 10 10 22 19 13 19 14 14 15 21 15 17 15 18 13 19 19 21 23 23 24 9 10 11 5 9 12 17 5 17 14 8 16 14 16 18
17 11 6 5 6 8 15 10 8 10 10 16 18 17 12 9 14 17 19 19 18 20 21 21 15 22 20 22 22 24 17 14 13 16 12 21 12 10 18 16 6 1 10 10 18
14 10 7 7 9 14 15 4 9 7 7 10 14 12 16 12 16 18 22 19 13 19 20 22 20 21 20 21 22 22 18 16 27 23 11 30 8 24 21 20 15 13 12 13 11
15 10 8 9 14 15 8 10 9 9 5 5 12 7 14 17 9 18 23 19 20 16 16 21 22 20 21 20 21 19 18 22 18 13 13 19 8 9 13 18 17 15 11 13 17
15 12 10 8 10 13 11 10 10 6 3 2 5 7 15 18 21 18 18 20 18 17 19 23 19 19 18 17 21 17 21 9 11 11 13 15 13 7 7 5 19 17 15 13 19
14 14 16 14 13 12 11 8 6 6 15 7 7 9 15 17 19 21 19 19 18 17 19 21 22 21 13 16 17 18 19 11 10 12 11 16 16 8 6 11 6 21 15 27 22
17 17 16 22 13 9 8 9 6 8 12 14 12 9 16 20 23 21 19 18 22 22 14 15 17 22 14 21 20 19 21 11 16 14 13 19 3 9 14 20 6 10 25 18 13
16 16 11 19 16 7 8 4 3 11 8 8 14 8 13 17 16 16 18 18 23 21 20 17 22 20 20 22 23 17 20 19 15 17 15 9 14 17 19 11 9 5 9 11 11
10 18 24 15 7 8 7 1 7 20 10 10 10 3 5 12 9 14 20 9 7 14 3 6 15 19 17 19 14 12 19 16 15 16 14 12 16 13 17 13 9 6 10 12 15
6 6 11 5 8 4 4 8 9 3 9 11 3 9 13 4 18 11 11 10 4 3 12 7 8 14 14 13 12 13 12 17 19 15 13 8 7 14 14 10 7 9 13 13 10
13 12 5 6 8 6 5 11 4 5 3 2 3 7 2 10 5 11 6 3 14 9 12 13 8 6 17 15 17 17 17 16 13 19 12 6 6 11 13 10 9 9 13 14 11
5 4 6 6 2 4 17 8 5 2 3 4 2 4 3 7 2 13 11 15 10 10 6 8 5 6 15 14 16 11 17 16 19 19 14 7 8 12 14 11 10 10 14 15 13
5 3 3 2 1 12 10 7 5 1 1 3 3 4 4 6 5 5 8 2 5 6 8 6 9 7 11 7 16 17 17 12 12 11 10 12 19 17 16 13 13 12 14 15 15
4 6 5 8 9 9 9 4 4 3 2 4 1 9 8 4 6 5 3 4 2 4 4 6 11 10 19 15 20 20 19 7 12 14 15 14 18 17 16 15 13 15 14 17 17
6 6 0 5 2 4 3 8 8 7 8 1 7 6 10 5 3 5 2 5 6 4 6 10 7 9 5 9 15 23 21 13 14 14 13 8 18 20 17 16 14 13 14 15 16
12 2 7 4 4 5 10 8 6 2 5 10 12 8 8 9 7 7 10 6 5 5 6 8 10 6 3 1 5 3 5 2 8 4 21 17 10 19 18 15 13 12 13 14 14

GFSSW_925_spd_087.txt.gz
Wind_Speed
14 14 15 15 15 15 15 15 15 14 13 13 12 13 13 15 16 8 8 10 15 8 10 6 12 17 18 11 15 4 3 4 5 15 7 7 4 3 4 14 11 7 13 28 40
15 15 15 15 16 15 15 15 15 15 14 12 12 12 12 14 14 15 20 14 11 14 9 14 13 16 9 9 2 4 4 3 7 11 12 9 5 2 4 8 9 20 18 35 34
16 16 16 16 16 15 15 16 16 15 14 15 11 11 10 10 6 8 8 21 16 16 16 21 22 16 14 12 5 2 3 1 12 14 15 12 5 2 4 11 22 23 21 25 24
17 16 17 16 16 15 16 16 16 15 13 13 13 9 8 2 1 2 4 21 20 17 16 20 15 15 13 13 10 8 2 3 11 15 12 12 10 4 9 3 10 21 19 23 21
17 17 16 16 15 16 16 16 16 15 14 11 11 8 3 4 10 6 7 19 17 16 19 14 16 13 13 6 6 4 1 4 17 15 13 11 8 5 5 3 4 19 16 20 19
17 17 18 18 18 18 17 16 15 14 13 10 7 5 3 4 8 10 12 19 14 18 18 18 10 13 11 5 8 4 8 14 18 12 18 13 13 6 6 7 7 18 9 9 11
19 19 18 19 19 21 20 17 14 12 12 8 6 2 5 13 7 7 14 18 19 20 9 22 26 10 10 11 9 15 6 10 13 13 20 21 5 11 14 13 13 18 12 9 8
21 22 20 20 21 21 20 16 12 10 7 6 5 4 7 13 12 13 14 14 17 19 23 23 23 9 8 10 5 6 7 5 12 20 18 8 4 15 19 17 15 17 15 12 7
23 21 21 20 20 19 17 11 5 5 3 4 5 5 7 4 11 15 16 17 18 21 25 24 16 8 8 6 7 7 7 13 16 18 17 5 11 9 10 13 14 16 16 12 12
23 21 19 19 19 16 11 5 4 1 2 2 9 3 8 11 14 18 16 20 15 13 15 11 4 4 5 2 7 8 10 5 2 13 19 9 13 16 12 11 19 15 14 13 15
21 19 19 17 13 12 6 4 2 2 8 9 8 6 13 18 16 16 22 19 15 8 8 8 3 6 10 11 17 15 9 10 17 7 14 11 14 13 12 11 14 17 12 15 15
19 15 12 11 13 10 4 4 9 12 7 15 20 17 25 13 8 11 22 9 8 8 9 6 8 10 13 17 19 20 8 6 12 10 5 22 11 17 13 8 16 15 11 11 16
19 17 13 11 13 15 9 14 12 15 5 14 17 16 13 11 10 11 9 10 9 11 14 9 13 18 18 17 19 18 14 15 8 10 16 20 14 7 12 9 7 3 3 4 8
20 17 15 13 10 6 11 15 20 14 3 7 7 11 12 5 5 14 17 9 7 12 10 11 19 15 17 15 15 12 11 14 20 11 7 18 10 12 7 10 13 12 5 2 5
20 17 14 12 16 7 17 14 12 8 4 5 10 11 9 7 3 9 21 11 14 8 8 11 13 17 16 17 13 13 5 6 12 9 5 16 4 6 8 10 9 7 9 4 8
19 18 15 9 11 22 21 23 12 2 3 9 5 7 8 9 12 8 12 7 8 13 11 12 14 14 16 13 14 13 11 4 2 4 4 17 7 6 13 12 13 5 5 14 10
21 20 20 11 7 20 24 7 2 2 13 11 7 9 10 9 14 11 14 10 11 5 8 11 17 15 17 7 10 11 5 3 4 4 7 8 7 2 11 18 14 13 13 8 5
25 24 19 22 22 18 21 3 3 3 4 8 7 15 13 9 12 14 12 9 11 13 6 8 9 15 12 9 10 9 7 5 7 7 6 4 5 6 6 13 15 17 21 13 7
26 13 11 23 13 14 3 4 1 2 7 9 14 11 8 5 7 10 11 13 13 15 9 5 11 9 16 7 5 8 8 9 6 7 3 6 4 9 7 9 14 12 13 12 12
13 6 18 22 17 7 5 1 4 5 10 15 14 6 9 9 7 17 9 6 10 5 4 2 4 11 16 8 10 10 3 8 2 2 4 5 6 10 12 11 12 11 9 6 3
2 3 6 12 12 7 3 3 9 16 19 6 9 6 6 6 7 5 12 11 20 7 8 7 2 10 12 10 13 3 1 3 2 3 4 5 2 4 12 12 11 8 7 5 5
7 3 9 9 4 4 5 5 6 4 3 2 7 6 9 5 6 5 1 4 17 15 8 1 3 6 6 5 6 4 7 4 4 8 1 4 2 10 11 12 11 7 7 7 7
3 4 9 7 4 3 2 6 10 11 3 3 2 2 6 6 3 2 6 5 19 9 3 5 3 4 6 4 9 4 5 4 4 2 5 5 6 10 14 15 9 7 7 8 10
3 3 2 4 5 6 3 4 9 3 3 3 4 1 3 3 8 5 7 8 10 9 3 3 5 7 2 4 3 4 9 8 3 1 3 6 12 15 15 15 13 9 7 10 9
3 3 0 3 5 4 4 2 6 4 4 1 3 5 2 1 3 5 8 6 7 0 3 2 2 12 11 10 13 16 8 11 5 6 5 10 13 15 17 16 15 12 11 11 10
3 4 6 3 3 2 4 5 11 11 10 13 12 12 4 5 2 6 7 5 6 6 9 4 3 8 7 11 13 13 13 15 3 12 11 13 14 17 17 18 16 15 13 12 12
10 11 3 7 6 9 5 6 7 5 5 9 8 3 12 8 8 7 8 3 3 4 2 8 2 4 5 8 10 5 4 5 9 14 19 11 10 21 18 18 15 13 11 10 11

GFSSW_925_spd_090.txt.gz
Wind_Speed
14 15 15 15 15 14 13 13 13 14 13 13 13 12 12 13 14 7 7 9 13 10 15 8 12 11 7 4 7 3 1 2 6 8 6 7 8 3 10 20 16 4 18 28 32
15 15 16 16 15 15 14 14 14 12 13 12 11 12 12 12 12 12 18 14 11 15 16 11 6 8 3 4 3 3 1 4 2 13 11 9 7 5 13 18 17 21 22 31 35
15 15 15 15 15 15 15 15 15 14 12 12 10 10 11 9 4 7 2 21 18 20 14 14 6 4 4 3 4 5 4 6 6 12 12 8 7 3 13 7 22 28 24 27 33
16 16 16 16 15 15 14 15 16 15 12 11 10 7 8 3 3 2 3 21 22 14 17 6 4 5 6 7 6 4 6 6 6 13 11 12 7 5 6 9 20 25 26 25 20
16 17 16 16 16 16 15 15 15 15 14 12 8 5 1 1 9 7 2 21 19 18 17 7 7 5 4 3 7 2 7 8 11 9 11 12 7 6 10 9 22 25 24 21 19
17 17 18 18 17 17 17 16 14 13 14 11 7 1 1 2 5 6 10 22 18 20 16 12 6 7 7 7 6 8 9 10 10 10 7 12 7 3 4 5 19 23 20 18 18
18 17 17 18 18 19 18 15 13 11 11 9 7 3 2 11 2 10 13 22 24 22 5 22 16 3 7 7 8 11 7 7 9 9 6 12 5 9 8 2 19 19 15 14 14
20 17 16 16 17 18 17 12 9 8 7 6 4 3 7 8 13 9 11 9 16 16 23 11 13 6 5 6 5 5 4 9 9 9 10 5 2 4 3 5 7 16 16 13 18
21 18 17 16 16 16 12 8 3 3 4 4 5 3 9 12 10 18 21 7 13 14 16 14 7 6 3 1 4 2 4 4 9 16 10 3 8 14 9 7 10 12 12 9 20
22 20 18 16 14 13 7 3 2 1 4 3 6 4 7 3 5 14 24 14 5 3 2 3 3 3 3 4 4 3 2 4 8 11 4 4 5 15 15 12 15 14 12 11 16
20 20 19 16 14 14 8 2 3 1 4 8 7 5 8 5 8 9 21 12 3 4 5 4 2 5 8 6 5 2 5 10 4 12 7 3 8 7 14 12 12 11 13 10 18
22 20 18 18 16 15 8 1 6 2 8 14 14 11 19 10 5 6 15 6 5 5 3 4 5 8 6 5 6 3 5 2 15 12 8 10 3 1 8 16 15 16 10 13 12
21 20 19 18 19 10 8 12 15 21 4 7 8 6 6 6 8 10 11 7 6 7 5 6 7 5 5 7 7 5 6 6 6 9 8 11 10 8 4 4 6 5 4 12 18
22 18 16 15 8 8 10 11 23 12 5 8 0 5 4 4 4 13 14 7 3 10 4 6 11 6 10 10 5 5 12 8 17 7 5 11 5 4 7 11 12 11 7 4 10
23 19 16 15 12 3 11 22 33 5 3 7 2 8 4 7 0 3 18 3 8 4 7 9 8 9 8 12 8 11 12 10 17 5 6 10 3 4 7 8 12 10 10 7 5
23 18 18 8 9 17 18 28 6 5 3 9 5 6 2 1 2 1 4 4 3 3 4 7 6 7 10 12 11 14 4 2 7 5 1 8 5 4 12 18 12 8 9 12 7
24 22 18 10 6 8 22 5 5 4 5 6 5 5 2 5 4 4 3 6 6 2 4 7 7 7 7 5 6 5 6 1 2 2 6 7 8 8 17 17 21 25 19 16 15
26 19 13 19 17 15 11 5 5 4 2 5 4 7 2 5 5 4 6 4 4 5 2 2 7 5 5 10 8 6 8 6 5 3 2 6 6 2 7 8 7 12 11 7 13
23 5 6 11 7 1 5 5 3 2 4 7 10 6 7 7 5 4 7 9 9 9 7 2 5 7 5 8 10 7 3 9 6 2 4 3 4 4 8 4 6 7 6 6 10
16 6 6 6 5 6 5 3 3 3 6 4 2 4 6 6 6 6 7 5 9 10 8 6 5 5 9 4 5 8 6 2 3 6 4 3 5 4 3 6 6 6 7 5 3
6 3 3 8 12 5 3 5 4 7 2 3 2 4 1 2 2 1 2 5 7 8 7 4 3 7 4 2 8 1 3 4 4 5 6 4 1 3 9 10 9 8 6 6 5
5 2 11 24 4 2 3 4 3 5 5 6 4 3 2 1 2 1 3 4 1 2 4 4 3 3 8 9 7 5 8 7 5 5 3 4 2 5 8 10 10 7 7 6 5
2 3 5 15 4 2 3 2 4 2 5 1 1 2 4 4 1 2 3 5 9 1 0 5 3 4 8 7 6 4 2 5 5 4 3 6 4 7 7 6 9 12 7 5 3
2 3 4 4 3 7 3 1 4 5 4 6 3 2 2 2 4 4 4 3 6 3 10 5 3 6 4 8 6 8 7 2 5 4 5 2 13 12 11 10 7 10 9 7 6
2 2 3 1 3 3 3 3 2 4 4 7 3 6 2 0 2 5 3 4 2 11 3 5 1 4 7 10 8 4 6 10 3 6 6 15 16 15 14 11 11 11 11 9 8
3 3 4 4 3 7 5 4 7 2 4 5 5 10 7 5 3 3 4 4 2 4 6 2 1 7 7 7 13 7 13 9 5 9 14 16 14 10 11 11 12 11 13 11 10
6 4 4 5 5 6 3 4 6 4 6 6 5 2 6 5 4 7 4 6 5 6 2 3 3 3 5 13 13 7 11 10 8 11 22 15 11 19 17 15 14 12 11 12 9

GFSSW_925_spd_093.txt.gz
Wind_Speed
13 13 13 13 12 12 12 12 12 12 13 13 13 11 11 14 14 6 7 9 13 9 17 15 10 7 4 3 5 3 2 0 4 5 6 2 11 4 5 14 6 1 9 19 27
14 14 13 13 13 13 12 12 12 13 12 12 11 12 11 13 13 12 14 14 13 20 20 16 6 7 2 4 3 3 1 1 5 9 5 5 11 10 8 10 14 17 19 27 27
14 14 14 14 13 13 13 13 13 12 13 12 10 9 10 10 4 7 2 19 19 23 15 12 13 6 3 4 4 4 2 2 3 14 11 8 5 10 18 10 20 25 21 22 24
15 15 15 14 13 14 14 13 13 13 12 11 10 7 7 3 2 1 9 23 24 22 11 10 5 5 3 3 3 2 6 5 4 7 12 12 6 12 7 8 20 23 22 23 18
15 16 16 16 15 14 13 13 14 13 12 11 7 4 2 1 8 4 3 28 23 21 17 7 6 5 3 2 4 4 4 7 8 8 11 10 8 10 4 18 18 21 22 20 18
16 17 17 16 16 15 15 14 12 11 12 9 5 0 1 2 3 4 12 26 22 20 16 9 7 6 3 5 6 7 3 10 7 7 7 13 7 5 10 20 19 22 20 17 18
16 16 16 17 16 16 15 14 11 9 8 6 3 3 1 11 5 4 18 19 21 22 6 12 4 4 3 6 3 7 7 6 8 4 6 18 7 11 6 21 21 21 19 16 16
17 16 17 16 16 16 14 10 7 5 6 2 3 3 6 3 5 8 13 8 16 14 8 5 9 2 3 5 4 8 4 7 9 8 7 3 3 9 6 18 20 20 16 14 13
17 15 15 15 14 13 11 6 0 3 3 4 7 2 8 8 6 19 13 5 14 10 7 2 5 5 1 1 4 1 3 4 7 5 7 3 4 8 5 10 18 17 17 13 13
20 18 17 15 13 13 8 3 2 3 6 4 4 2 7 1 3 10 18 11 4 7 4 4 2 2 3 4 4 3 4 2 4 10 6 2 2 13 11 10 11 13 14 14 15
21 19 17 15 14 13 10 0 3 1 3 7 6 5 5 6 2 8 14 9 2 5 5 4 4 5 7 6 4 3 2 4 6 7 7 5 6 15 12 6 10 12 9 14 16
21 20 18 15 15 15 4 2 3 2 7 12 12 6 11 2 3 2 17 5 4 4 4 5 4 7 3 6 4 3 1 5 11 8 9 10 7 4 7 13 11 19 8 16 14
23 22 19 17 16 5 7 6 3 12 1 7 5 4 5 10 5 5 11 5 4 4 4 5 4 5 5 2 4 1 3 7 5 8 8 9 6 11 4 12 13 17 7 15 17
23 21 19 15 4 9 11 3 21 2 4 5 3 6 4 5 3 7 13 6 1 9 6 4 5 4 3 3 5 2 5 5 16 8 4 2 3 10 10 13 15 19 8 14 17
23 20 18 14 11 3 7 21 16 3 3 12 3 1 1 7 1 2 8 4 8 5 7 7 3 4 6 5 6 7 3 5 9 4 6 4 1 5 6 12 14 19 12 8 17
26 24 19 10 6 9 12 21 3 5 3 7 5 5 2 4 3 2 3 4 3 4 2 6 2 5 7 6 9 3 1 6 6 4 1 8 6 4 7 14 17 22 15 11 14
31 23 16 8 3 3 17 4 5 3 5 6 4 6 5 6 2 2 3 2 5 3 3 4 5 3 5 3 2 4 5 1 2 1 5 9 7 6 5 11 18 26 18 15 13
27 18 11 14 6 10 5 5 4 1 2 3 5 5 5 7 5 7 4 2 2 5 3 3 4 7 3 8 6 6 10 5 6 5 3 5 5 4 5 9 7 7 9 6 7
24 6 5 3 6 5 5 4 6 3 3 6 3 6 6 5 3 3 5 1 5 1 8 5 5 2 2 5 9 4 4 9 5 2 4 2 4 2 5 8 10 11 13 10 8
13 6 3 7 13 6 5 3 3 3 2 3 3 3 3 6 5 5 3 3 2 2 3 1 1 2 5 2 3 8 6 4 3 5 4 1 2 3 2 4 8 10 10 7 8
5 3 2 12 4 5 3 4 4 5 3 3 0 3 2 2 2 1 2 2 1 3 6 2 3 5 2 1 4 1 2 5 5 5 5 3 5 1 6 7 9 10 8 7 7
3 2 4 15 4 2 1 3 4 2 3 1 3 2 4 3 2 1 3 4 4 3 3 3 4 2 7 7 2 5 9 7 5 3 1 3 5 2 8 6 9 10 8 7 7
1 2 6 4 2 2 3 3 3 2 4 3 0 1 2 4 1 3 3 5 5 2 4 2 2 3 8 6 7 6 5 3 4 4 6 6 4 4 5 5 4 9 8 7 6
3 2 4 4 2 5 1 3 3 2 3 3 2 3 1 2 2 3 3 3 2 4 12 7 3 4 5 4 3 6 7 7 3 4 6 4 7 9 10 9 8 9 7 7 7
3 1 4 1 1 2 2 2 3 2 5 8 5 4 1 3 5 3 3 4 5 2 5 5 3 2 4 5 2 6 8 7 6 5 6 10 13 17 12 13 10 10 9 8 8
2 3 4 1 2 5 4 5 4 2 4 4 3 4 5 4 1 4 4 5 2 1 2 3 4 3 3 7 7 3 7 10 4 8 8 12 5 6 8 11 11 9 9 10 8
4 2 3 5 3 3 2 2 2 2 2 1 2 1 2 2 4 8 8 4 6 2 3 3 4 2 3 7 6 4 9 6 4 1 16 9 7 11 13 13 12 11 9 12 11

GFSSW_925_spd_096.txt.gz
Wind_Speed
12 12 12 12 12 12 12 11 11 11 10 11 10 9 9 12 12 6 7 10 13 17 14 16 11 6 7 2 4 3 1 2 4 7 4 3 5 3 6 9 3 2 8 16 23
13 13 13 13 13 13 12 11 11 11 11 10 10 9 9 11 10 11 14 12 14 19 19 18 6 8 2 2 3 3 1 2 4 2 3 6 10 7 6 4 9 15 18 22 22
14 13 13 14 14 14 14 13 12 11 11 11 10 8 8 9 3 6 5 16 17 22 20 17 15 4 1 3 3 2 1 5 7 7 3 9 7 4 12 5 13 19 17 17 19
13 14 14 13 13 13 14 13 13 12 11 10 10 7 4 3 2 1 7 21 23 22 17 11 5 4 2 2 2 2 4 7 13 13 5 10 7 10 2 5 15 19 19 18 13
15 15 15 14 13 12 12 14 14 13 12 11 8 4 1 1 8 8 4 24 22 21 13 6 7 5 4 3 3 4 5 7 7 9 8 4 8 8 3 14 14 19 18 15 15
17 15 14 13 13 12 12 12 12 12 11 9 6 2 1 2 5 7 11 27 23 22 7 4 7 7 3 4 3 2 3 9 1 5 12 10 6 2 4 16 15 17 15 14 16
17 16 15 15 14 13 10 8 8 7 8 6 1 1 1 9 4 3 22 21 21 16 6 6 6 2 1 3 2 7 8 10 10 6 5 16 10 9 3 13 16 15 14 12 13
17 16 16 15 15 13 10 9 4 3 3 2 1 1 6 2 3 7 15 9 11 12 7 15 2 1 2 5 4 3 2 4 8 9 8 1 6 9 9 15 16 15 13 13 10
19 18 16 15 13 11 10 5 2 3 2 4 5 2 8 5 3 10 13 7 11 6 5 3 6 1 2 2 4 3 3 1 9 13 8 2 8 10 15 16 15 13 12 12 8
22 20 17 15 13 11 8 3 4 6 7 4 0 2 5 1 4 12 13 13 5 5 3 2 3 2 3 4 3 1 2 1 5 7 6 4 4 11 11 13 14 13 12 11 12
24 21 19 16 15 15 3 3 3 2 4 6 4 3 4 7 2 6 12 8 5 4 4 2 4 5 7 5 4 2 2 8 4 5 5 6 8 8 8 8 12 7 12 11 14
23 22 19 15 17 11 3 1 2 1 6 8 5 6 9 3 3 4 19 5 5 4 4 5 5 7 4 5 5 2 7 6 8 6 5 2 4 1 8 8 15 8 8 14 10
22 23 21 18 16 1 4 3 1 9 1 5 5 4 4 9 5 6 8 5 5 5 4 7 3 7 3 4 5 1 3 6 6 4 3 8 3 5 5 6 7 12 5 4 15
23 23 23 19 2 5 5 1 15 5 4 5 3 2 4 3 1 5 13 7 3 7 7 3 3 7 4 3 4 3 5 6 14 4 3 1 2 5 9 9 11 13 15 8 12
25 28 22 15 12 3 1 15 2 4 3 9 3 1 2 4 2 1 7 4 6 6 6 6 6 4 3 4 5 6 3 7 8 4 3 2 2 4 7 10 14 14 18 15 11
30 28 19 7 5 6 9 13 3 5 3 6 3 5 3 6 4 3 4 4 3 4 2 6 2 5 9 6 7 5 2 7 4 3 2 6 5 4 5 10 14 16 16 17 11
33 24 14 5 2 2 15 3 5 4 4 7 4 5 4 6 5 6 5 2 4 4 1 3 2 2 4 3 1 3 3 2 2 1 5 2 4 7 4 5 19 24 26 20 9
28 14 5 6 0 5 4 5 5 2 2 4 4 2 5 7 4 7 3 3 2 5 3 5 4 6 3 7 7 7 8 5 5 5 3 4 5 4 4 5 11 13 12 12 9
18 4 2 3 9 2 5 4 4 2 3 6 4 7 5 4 3 3 3 2 1 3 6 4 4 3 4 4 9 4 4 7 6 3 4 3 5 2 4 6 12 17 18 15 11
8 4 5 3 11 4 5 2 1 2 2 2 3 2 5 5 3 4 1 2 3 3 2 5 1 2 4 3 2 7 6 4 3 5 3 3 4 4 2 5 8 14 15 13 11
4 4 7 9 4 5 3 4 3 4 3 2 1 2 1 3 2 1 1 1 2 2 3 4 3 6 3 1 6 2 1 5 5 4 6 3 6 2 5 7 8 9 10 12 13
3 3 6 2 4 1 1 3 2 3 2 1 3 2 1 2 2 1 2 3 4 2 3 1 5 3 9 1 3 1 2 5 5 4 2 4 5 1 6 10 11 10 8 7 4
3 1 3 3 2 3 3 2 2 3 3 2 1 2 2 2 2 1 2 4 5 1 6 6 2 2 7 5 5 5 3 2 3 2 6 6 5 4 7 8 9 11 8 7 7
3 3 4 4 1 4 1 2 2 1 3 3 2 2 2 2 2 3 2 3 1 2 2 5 3 5 6 3 2 4 4 3 4 3 5 5 6 9 11 11 11 11 9 7 5
3 1 2 1 3 2 2 2 2 4 4 6 3 3 2 1 1 2 2 5 4 3 2 3 4 5 4 3 2 3 5 7 5 5 6 7 9 12 15 11 11 12 11 9 6
3 3 3 1 2 2 5 4 2 2 5 5 3 5 3 4 4 2 2 1 2 3 3 4 2 0 3 2 3 3 9 11 2 3 2 6 1 5 11 10 10 11 11 10 9
3 2 3 3 2 3 2 1 1 0 1 1 2 2 3 2 3 2 4 0 2 3 1 3 4 2 3 4 2 3 8 4 6 4 4 5 6 12 15 11 9 9 9 9 9

GFSSW_925_spd_099.txt.gz
Wind_Speed
10 10 10 10 9 9 10 10 10 10 11 11 11 10 9 11 12 6 7 8 10 16 16 16 8 12 8 5 4 3 2 3 6 7 4 9 6 6 7 13 8 3 16 20 22
11 11 11 11 11 10 9 9 9 10 10 10 10 10 9 10 10 10 11 10 10 21 18 19 11 13 4 4 3 3 1 2 4 5 10 9 10 9 8 11 11 17 19 23 23
11 12 12 12 12 11 11 10 10 8 10 11 9 9 7 8 5 3 4 15 17 24 15 13 15 6 3 3 3 1 1 6 10 4 4 13 12 7 15 8 12 23 22 22 22
13 13 13 12 12 12 12 11 10 10 9 8 9 6 5 2 2 2 9 18 20 20 17 13 9 5 3 3 1 3 2 6 2 4 4 12 11 12 4 2 15 21 24 24 19
15 14 13 12 12 12 11 11 12 11 9 8 6 2 1 3 6 8 4 21 21 18 17 10 13 5 4 3 1 5 4 12 9 4 2 9 9 12 5 15 18 21 21 18 17
15 14 14 13 12 11 11 10 10 10 8 8 2 2 2 3 5 9 14 23 19 13 10 14 8 4 4 3 3 3 7 10 5 8 3 6 7 9 6 19 18 18 17 16 17
15 14 13 12 10 10 10 8 8 7 7 6 1 2 2 5 5 3 14 13 17 7 7 3 9 5 3 4 4 6 10 12 5 11 6 6 3 4 12 18 19 17 15 14 14
17 14 13 11 10 10 8 5 3 4 4 2 1 1 4 1 3 11 12 12 13 7 5 7 6 3 3 3 4 7 4 7 8 10 11 8 8 7 7 17 18 17 14 14 13
19 17 15 12 11 9 6 4 3 4 3 4 1 3 1 1 3 11 11 10 12 4 1 4 3 2 3 2 3 1 3 5 8 9 5 5 1 8 10 14 16 16 14 13 13
21 20 17 14 12 10 3 3 5 7 7 2 1 3 3 2 5 12 7 15 5 7 5 4 3 4 2 4 4 4 2 3 9 6 13 12 14 17 13 11 15 15 15 14 14
21 20 18 15 15 13 6 5 2 2 3 5 3 3 4 5 7 5 8 8 6 7 5 4 7 10 9 4 3 3 8 8 12 10 7 4 6 20 18 11 13 15 15 14 16
22 21 21 18 17 7 3 2 3 3 5 6 7 7 8 3 3 7 12 4 7 11 8 6 14 7 4 3 4 6 8 6 9 8 4 6 6 9 18 18 13 13 15 15 13
23 23 24 19 15 2 3 3 3 5 1 2 3 4 1 9 4 11 15 7 10 9 10 12 5 8 5 6 6 3 1 5 6 6 7 11 2 4 16 11 14 8 9 15 16
24 26 24 13 2 3 3 0 8 5 2 7 2 1 4 3 4 7 15 7 4 11 7 6 3 12 5 5 5 3 3 8 15 8 3 6 4 13 15 18 14 15 16 12 17
26 29 22 9 4 2 3 10 2 3 2 9 3 1 1 2 6 5 5 3 9 8 5 5 10 11 8 6 3 2 5 10 8 4 1 7 4 3 18 15 21 19 22 21 13
31 30 17 3 3 4 4 2 3 2 3 4 4 5 3 4 2 6 9 3 3 6 1 3 2 6 7 3 7 6 8 9 5 3 3 3 6 8 12 24 19 19 18 22 19
35 23 8 4 1 1 8 3 1 3 3 6 4 5 4 5 3 2 11 8 4 6 7 3 3 2 2 8 2 6 8 3 2 4 3 2 6 6 8 10 18 23 24 19 22
31 8 4 3 2 6 0 1 4 2 3 3 3 3 4 7 3 3 10 8 3 2 4 7 7 7 6 7 6 11 12 5 6 4 3 2 5 1 3 6 9 17 21 18 19
15 4 4 7 5 4 2 3 1 1 2 5 1 4 4 3 3 1 2 8 5 6 3 5 5 1 6 5 9 5 8 1 2 1 4 2 3 5 3 3 11 18 17 18 18
5 2 7 9 7 2 3 2 0 2 3 1 4 3 5 6 2 2 1 2 2 2 4 6 2 0 3 4 2 6 10 9 4 7 8 3 4 3 5 6 11 17 20 18 18
1 2 8 2 5 4 3 2 2 2 3 3 2 2 2 3 4 3 2 1 0 1 0 6 3 4 2 6 9 6 6 2 6 4 10 7 4 1 6 9 12 13 15 17 17
1 2 3 5 2 2 2 0 2 2 1 1 2 2 3 2 3 3 1 2 2 1 4 1 3 6 6 2 4 2 5 12 8 10 5 7 5 1 3 7 9 10 10 13 15
2 2 2 2 2 3 0 1 2 2 3 1 1 2 1 2 1 2 2 1 3 1 1 2 1 4 5 4 3 2 2 1 2 1 12 12 7 2 5 7 8 11 11 11 12
1 2 2 3 2 1 1 2 2 2 3 2 2 2 2 0 1 1 3 2 4 1 7 2 1 4 6 0 1 3 2 0 5 9 11 9 5 8 11 11 9 9 9 10 10
3 2 2 2 3 4 2 1 2 4 4 8 3 6 2 1 1 1 1 3 2 2 1 1 1 1 3 5 2 1 1 2 7 9 9 12 8 11 15 14 12 10 8 9 8
1 2 2 2 0 1 2 3 4 3 5 4 4 7 1 0 3 4 3 1 2 1 2 2 1 2 3 4 2 4 3 5 1 7 9 7 8 5 14 11 12 12 10 9 7
3 2 1 2 1 0 1 2 3 1 2 1 3 3 1 2 3 5 5 3 1 1 2 0 3 3 5 3 2 5 4 4 3 4 5 6 3 16 17 15 14 11 10 9 8

GFSSW_925_spd_102.txt.gz
Wind_Speed
10 10 10 10 10 9 8 10 10 9 9 8 8 9 9 10 8 5 9 5 9 19 17 14 12 13 13 7 5 4 3 7 10 16 12 13 14 6 5 13 7 4 14 25 24
10 10 11 11 10 10 10 9 9 10 11 10 9 7 9 10 9 12 10 8 13 24 20 18 14 15 9 7 4 5 3 4 6 5 15 15 12 12 12 12 13 17 24 27 25
10 10 10 10 10 10 10 9 8 9 10 11 9 7 6 7 7 3 1 13 17 24 17 14 13 12 8 7 8 2 2 7 6 2 10 13 11 8 12 12 16 22 24 24 24
12 11 11 10 9 9 9 9 9 8 8 9 9 6 4 3 1 4 8 19 21 20 17 14 13 10 7 6 3 4 6 2 9 3 10 12 11 10 3 9 14 22 25 24 20
12 12 11 11 10 9 9 8 8 8 8 6 5 3 3 7 4 5 3 18 21 21 20 14 13 8 8 5 3 6 7 10 8 5 10 10 12 9 9 11 19 23 23 20 18
13 12 12 11 10 9 8 9 8 7 5 4 2 2 6 8 3 5 13 20 20 21 19 14 9 9 4 4 5 2 9 16 7 4 4 10 13 8 11 17 22 20 20 18 17
15 14 13 11 11 10 9 7 5 4 5 1 5 1 7 4 4 5 14 17 19 16 15 14 9 10 5 5 3 7 10 10 9 11 2 5 10 9 17 19 20 19 17 16 17
17 16 14 12 10 9 8 6 3 3 3 3 7 3 3 1 2 9 12 13 14 11 10 9 8 9 7 1 6 5 10 10 9 10 4 6 15 8 16 19 19 18 16 15 15
19 18 16 14 11 9 8 4 2 2 5 7 3 5 5 3 5 10 12 14 15 10 7 7 5 10 7 11 9 9 7 8 8 10 5 3 5 3 10 17 18 17 16 15 14
20 18 18 16 14 14 3 2 1 6 2 4 5 5 4 5 8 11 6 14 12 11 10 10 8 10 10 8 7 8 7 12 12 7 11 6 6 6 9 16 18 17 17 16 16
18 19 19 17 14 11 4 1 5 6 7 7 2 3 7 9 13 11 10 12 10 12 10 14 11 14 15 8 5 2 7 12 9 13 6 8 8 13 12 13 13 18 17 16 16
18 19 21 18 12 4 2 5 6 5 5 2 5 5 3 1 9 12 14 8 11 14 11 9 16 15 2 3 6 6 13 15 14 11 5 6 10 15 18 12 16 17 17 18 17
20 22 23 16 10 3 5 5 3 7 6 5 2 2 6 9 9 16 15 6 12 13 15 13 11 9 10 8 8 5 2 14 15 10 10 11 2 10 19 11 9 11 15 18 17
21 25 23 10 1 2 4 1 4 4 4 5 5 5 6 5 6 16 19 6 6 13 13 10 5 13 12 10 7 4 2 8 19 12 6 14 4 7 17 20 18 16 18 19 18
23 28 19 4 4 4 2 5 2 5 2 3 5 2 5 5 14 10 17 7 8 9 10 6 11 16 13 10 9 2 6 7 9 2 8 15 6 8 16 18 23 25 23 19 18
29 25 8 1 4 5 3 4 4 6 4 3 1 1 9 4 5 13 11 9 2 6 13 3 7 11 12 10 7 8 10 4 3 2 7 8 11 10 18 25 24 22 19 23 18
28 10 5 7 3 2 6 4 5 2 2 3 2 2 3 3 8 14 14 12 7 9 11 6 12 9 6 13 10 11 8 3 3 7 7 4 7 2 18 15 23 28 25 26 22
13 7 4 3 3 5 6 6 3 2 5 2 1 5 3 1 5 7 13 12 3 9 11 11 12 12 11 15 11 14 14 6 7 4 6 4 6 4 10 10 16 21 24 23 22
5 4 2 3 6 6 8 2 4 3 3 2 4 4 7 4 2 7 10 11 10 9 5 8 7 3 7 11 9 14 15 14 9 7 6 7 6 9 9 9 13 16 22 23 22
1 2 4 4 4 10 1 6 5 4 4 2 2 3 2 3 5 6 8 2 4 4 9 5 6 7 14 8 11 13 12 16 12 13 12 7 8 2 10 10 13 18 23 21 16
3 3 3 4 6 4 6 8 5 5 3 5 3 2 3 2 3 2 3 6 1 3 7 7 9 11 8 14 14 12 12 10 13 14 12 12 7 6 5 7 11 15 19 19 21
4 2 2 6 3 0 5 3 1 6 2 3 2 4 5 2 1 1 0 4 2 3 10 9 7 8 13 7 4 8 17 16 10 15 10 13 0 4 5 4 5 11 14 16 16
1 3 1 5 3 6 6 6 3 1 4 4 3 5 3 3 2 2 0 3 1 3 2 4 8 8 9 9 8 11 11 13 14 14 14 15 10 5 6 7 6 9 10 12 14
2 4 3 1 1 3 4 4 5 4 7 1 3 2 2 2 1 2 2 3 0 0 2 3 9 10 7 2 6 17 11 12 15 12 13 12 14 8 8 8 10 10 9 11 10
1 3 4 3 4 4 2 1 2 2 2 6 4 3 5 2 2 1 1 6 6 6 3 4 10 3 8 6 3 8 7 11 14 18 17 14 15 12 10 10 10 9 10 10 12
2 1 2 3 3 3 3 3 3 2 6 3 5 5 4 3 5 7 5 2 1 6 4 3 6 6 10 3 6 9 9 8 11 14 15 16 13 5 7 10 11 10 10 10 10
3 0 4 3 4 5 3 2 4 1 2 3 6 6 4 4 6 6 5 5 2 3 3 4 8 7 14 8 9 12 14 7 5 7 10 15 7 3 8 9 10 10 9 8 8

GFSSW_925_spd_105.txt.gz
Wind_Speed
9 9 9 10 10 9 9 10 10 10 9 10 10 9 8 10 11 9 12 3 10 10 14 13 14 13 12 4 6 5 3 8 10 17 12 11 11 12 6 10 8 6 22 24 23
10 11 11 11 11 10 10 10 10 10 10 10 10 10 8 9 13 17 14 10 11 18 15 16 15 15 12 9 5 6 3 5 4 11 19 17 15 11 12 12 9 15 24 24 21
12 12 12 11 11 11 10 10 11 11 11 10 9 7 8 7 13 5 9 16 16 24 17 16 12 14 11 4 13 3 3 3 6 5 17 17 14 13 13 11 15 20 24 23 21
12 11 11 11 11 11 10 10 10 11 12 11 7 6 5 6 2 7 1 12 18 22 18 16 12 14 9 9 11 2 2 0 7 4 10 14 13 9 8 14 16 20 24 22 18
13 12 12 11 10 10 10 10 10 10 9 8 6 4 5 8 6 2 5 20 18 21 21 16 14 14 8 6 5 4 6 12 7 4 9 12 11 9 7 15 18 21 21 20 17
15 14 12 11 10 10 9 9 9 8 7 6 4 2 9 12 4 1 9 17 19 22 19 18 11 12 1 15 2 7 9 12 3 7 6 11 13 12 14 16 21 20 20 18 16
16 16 14 12 10 10 9 7 6 6 6 5 3 5 11 5 4 3 12 18 19 20 16 17 13 10 8 10 7 7 12 11 3 1 4 8 14 14 14 20 21 20 17 16 16
17 17 17 14 12 11 10 7 5 6 3 2 5 7 9 2 1 7 13 15 15 17 16 15 8 16 15 6 5 9 9 9 7 4 3 7 12 16 16 19 20 20 17 15 15
17 17 17 16 13 12 12 5 3 3 3 5 4 10 5 5 10 9 11 14 13 10 9 7 12 15 12 12 8 2 5 11 8 2 2 6 12 11 18 19 19 18 17 17 17
16 18 18 19 15 12 4 2 3 1 2 6 11 8 6 12 12 11 11 13 14 11 10 12 9 13 13 12 9 5 10 14 10 4 4 3 2 7 16 17 13 16 17 15 17
16 19 20 20 16 11 3 3 6 7 13 10 6 5 5 7 12 11 12 15 11 11 14 16 13 16 16 15 5 21 13 16 11 9 4 11 9 7 6 5 8 10 14 16 15
17 19 21 20 14 10 4 7 10 7 4 2 4 3 2 14 12 13 15 12 12 14 17 11 18 17 7 12 7 8 18 18 10 9 3 7 8 5 8 11 9 11 12 17 16
18 20 22 18 11 4 10 10 7 8 8 7 5 7 10 10 11 15 17 13 12 16 17 14 14 18 9 10 11 7 9 12 12 8 6 10 2 10 10 14 10 13 12 20 19
19 22 24 12 4 4 8 0 6 5 6 9 8 5 6 9 8 17 17 8 10 14 12 15 12 16 7 14 10 6 21 18 15 18 7 16 2 1 14 11 14 17 12 17 19
22 26 18 7 10 10 4 6 8 4 3 3 6 4 9 9 15 12 16 8 11 11 9 13 9 9 13 15 11 9 3 28 29 9 15 20 6 9 20 19 21 20 20 13 11
28 20 2 2 8 9 5 9 6 8 3 5 5 6 11 10 7 11 13 10 9 10 11 13 6 10 17 8 4 5 2 5 7 10 7 16 14 15 19 28 29 27 23 19 20
19 4 10 3 2 2 8 8 8 3 3 5 4 11 13 3 8 12 14 15 10 11 11 13 10 15 14 12 10 9 13 4 4 8 3 1 9 8 23 24 28 30 27 26 23
3 4 3 7 6 7 11 11 5 6 10 3 4 5 6 6 5 14 12 14 17 13 10 13 13 15 11 14 12 14 13 7 6 5 5 14 4 8 16 19 22 27 29 28 24
2 3 7 2 8 8 8 10 5 3 2 2 8 10 8 6 6 7 11 14 10 13 14 12 15 17 13 15 15 15 15 13 8 3 9 11 12 15 13 14 21 26 27 29 25
7 8 5 4 7 10 10 8 6 4 3 9 2 2 4 4 8 6 9 4 0 6 11 9 9 12 10 10 16 17 11 15 13 13 16 12 11 11 5 10 14 16 24 26 24
9 3 4 7 10 9 3 7 6 5 8 10 3 2 1 1 3 5 11 3 1 1 7 14 11 8 9 14 14 12 11 11 16 15 15 7 3 16 21 12 13 15 15 24 19
13 1 3 5 7 3 6 5 6 6 3 1 4 9 6 6 9 3 3 8 7 11 8 13 9 11 15 13 17 18 19 17 11 14 12 15 5 8 10 11 8 10 12 18 16
6 5 4 10 5 6 3 6 4 0 4 4 2 5 2 4 6 5 1 6 4 10 5 8 10 10 12 8 5 9 15 15 18 14 14 12 5 10 9 8 6 8 15 16 17
5 5 5 3 3 6 5 2 8 1 4 2 4 4 5 4 4 5 8 7 4 6 9 6 14 13 4 9 11 17 18 14 16 12 14 12 9 15 12 11 9 8 9 17 18
7 3 5 2 5 6 4 2 3 1 1 2 6 4 5 6 2 3 4 5 9 8 7 9 16 9 1 7 11 10 13 15 14 17 15 10 10 5 16 13 12 11 7 7 8
5 2 4 4 2 6 6 3 5 2 3 3 5 6 6 8 4 6 7 7 3 12 12 12 11 3 12 8 10 13 8 9 8 13 14 18 18 12 16 12 13 12 10 9 10
2 3 7 7 5 7 8 4 6 3 3 4 6 8 9 4 5 8 7 8 7 5 10 10 10 9 13 11 10 13 14 10 13 14 14 15 16 13 6 7 8 12 8 8 10

GFSSW_925_spd_108.txt.gz
Wind_Speed
12 12 12 12 11 11 11 12 12 11 11 12 12 11 11 14 13 9 11 6 16 8 11 12 17 18 13 2 7 5 3 5 6 16 12 17 18 13 19 11 17 12 20 20 20
12 12 12 11 11 11 11 11 11 11 11 12 12 11 10 12 15 20 16 16 10 9 13 17 15 13 11 10 7 4 2 3 5 14 13 16 14 13 3 10 14 21 24 24 22
12 12 12 11 11 10 11 11 11 11 11 11 10 9 9 10 11 2 13 21 13 15 18 17 15 14 12 7 5 4 4 6 8 6 18 19 15 17 17 14 16 23 21 20 20
13 12 12 12 11 11 11 11 11 11 11 9 8 8 8 7 2 7 9 11 16 16 18 20 16 15 9 10 5 7 12 3 16 7 11 16 16 12 11 15 22 20 19 18 16
15 14 13 13 12 11 10 10 11 10 9 8 7 6 5 8 10 5 4 8 14 17 20 16 14 15 8 4 6 7 2 16 4 5 4 13 12 11 16 19 23 20 18 17 16
17 17 16 14 13 11 10 9 8 8 7 7 5 3 6 11 4 5 6 14 15 19 21 18 11 13 2 7 3 6 8 7 1 7 7 4 15 8 19 19 22 21 19 17 17
16 16 17 16 14 12 11 10 8 7 7 6 4 4 10 14 2 4 9 13 16 20 18 18 19 11 7 5 7 9 11 8 3 6 6 3 14 13 14 19 21 20 18 17 16
16 17 18 19 17 15 14 11 8 6 4 3 4 4 7 2 6 6 11 13 16 17 20 16 14 13 14 12 1 7 6 9 2 6 4 4 6 17 17 19 20 19 17 15 16
15 17 19 20 19 16 16 9 6 6 3 3 4 9 11 3 13 12 13 15 16 16 16 15 13 12 16 11 7 4 4 8 0 8 5 3 9 11 18 19 19 17 17 15 15
16 17 19 22 21 15 11 7 8 5 4 7 14 10 12 10 14 11 13 12 12 11 7 6 7 13 15 10 8 8 6 9 3 3 8 3 9 14 17 18 18 18 17 16 17
17 19 21 23 22 16 12 6 5 6 12 11 14 13 2 10 7 13 13 12 12 10 13 15 12 15 18 10 4 16 7 5 13 8 3 5 2 5 8 12 10 16 15 11 15
18 20 22 23 21 16 9 6 10 10 12 17 6 6 8 3 9 12 14 11 12 13 15 13 16 18 18 7 7 12 14 12 9 7 3 4 6 9 8 12 4 3 13 16 12
19 22 22 25 19 13 12 16 10 10 7 5 6 11 7 8 11 13 14 16 13 15 16 17 13 19 20 14 14 8 16 13 9 6 6 3 3 7 7 8 12 5 3 9 18
21 23 26 21 10 11 17 3 7 6 6 8 8 4 5 10 9 14 16 13 8 13 16 15 17 14 17 14 12 12 15 20 24 13 5 15 2 3 9 14 10 9 9 9 7
24 28 20 9 13 10 6 6 9 7 1 4 8 3 5 11 11 13 14 16 14 12 11 11 13 13 13 6 7 9 18 15 17 9 9 16 4 4 14 16 20 15 15 15 3
28 18 6 4 9 13 10 9 8 6 0 4 5 8 7 10 7 11 11 15 13 13 13 17 8 8 14 4 13 21 16 16 9 5 5 15 10 7 14 24 22 22 19 18 15
22 8 9 9 5 3 8 8 5 6 9 4 9 4 14 4 9 7 12 13 11 10 11 13 8 11 7 16 9 8 20 7 6 5 11 15 13 11 28 24 23 22 24 18 13
12 5 6 13 9 8 9 9 8 18 7 1 6 6 7 4 4 9 12 12 16 18 10 12 12 14 16 19 10 12 16 6 4 5 4 11 8 4 22 25 23 16 19 17 17
12 10 10 9 8 6 7 3 5 8 6 1 7 10 5 7 4 6 13 12 15 16 14 9 14 16 11 15 10 13 14 13 7 5 8 5 6 6 18 20 21 23 20 24 25
9 14 4 2 4 8 7 6 7 7 6 8 7 6 0 11 5 7 5 2 7 13 10 4 10 14 14 11 17 15 7 13 11 7 9 4 4 6 12 16 23 23 26 25 24
5 6 3 6 8 8 7 6 3 5 11 9 4 11 10 1 5 8 2 8 6 10 8 8 7 6 10 10 13 12 11 11 15 10 9 4 0 13 12 5 13 24 23 23 25
9 7 7 4 9 8 7 5 6 6 5 7 6 6 8 7 7 7 3 2 10 12 12 11 9 7 12 10 14 16 16 12 7 10 10 7 7 11 10 22 20 9 27 22 23
5 6 6 9 6 1 5 3 8 12 6 8 6 5 9 7 6 7 3 6 3 8 10 11 6 9 13 6 13 14 14 16 16 14 13 9 7 17 17 17 5 12 8 19 17
5 3 4 6 5 7 5 4 6 3 2 5 7 6 6 9 6 3 14 3 4 8 7 5 13 13 7 6 11 8 12 13 14 12 12 10 17 15 19 11 8 12 16 17 14
5 12 4 5 5 8 10 4 6 1 2 2 5 3 8 7 13 7 13 5 9 4 6 5 12 13 6 7 12 15 11 15 18 15 13 9 13 18 13 12 11 10 17 18 15
7 10 1 4 3 9 6 3 8 6 1 6 4 10 9 11 9 3 11 7 8 5 10 12 12 10 8 8 13 11 5 16 9 16 12 12 3 15 11 12 8 5 13 13 13
10 11 6 4 6 9 7 7 8 4 2 5 5 8 12 8 11 11 11 10 4 3 4 12 11 9 12 6 9 10 12 10 10 8 7 10 14 8 7 12 12 3 3 9 10

GFSSW_925_spd_111.txt.gz
Wind_Speed
12 12 12 12 12 12 12 11 12 12 11 11 11 11 12 14 14 8 9 11 9 7 7 5 9 17 20 3 6 2 3 2 5 3 8 15 12 3 9 22 16 11 10 18 28
12 12 12 12 12 12 11 12 11 11 11 11 11 10 11 13 13 13 19 12 6 10 9 12 11 17 9 5 5 3 2 5 9 14 18 19 18 8 11 14 16 18 14 26 39
14 13 12 12 12 12 12 12 12 11 11 11 10 10 9 10 5 6 7 21 18 13 14 19 21 13 7 5 4 6 4 2 13 15 11 15 13 9 16 15 20 18 15 23 29
17 16 15 14 14 13 12 12 12 11 11 10 9 8 7 2 1 1 2 21 19 11 12 14 11 13 6 8 5 5 8 4 11 12 14 9 12 6 12 18 23 18 15 19 14
18 18 18 17 16 14 13 12 11 10 9 9 8 7 2 4 8 6 6 11 14 12 15 13 12 11 10 2 3 7 11 7 12 15 10 16 9 5 19 22 19 17 14 13 9
18 18 19 19 18 15 14 13 11 9 8 6 6 5 2 5 5 7 6 11 12 15 15 17 9 7 5 5 4 10 22 22 20 11 3 12 11 15 18 20 18 15 14 9 10
17 18 19 20 20 17 15 16 13 10 9 6 2 3 5 13 3 8 8 8 16 15 9 24 25 9 3 2 3 6 9 13 7 7 6 13 15 19 20 18 18 13 12 11 14
16 18 20 21 22 20 17 16 9 8 8 5 1 0 7 10 15 18 9 10 11 17 21 26 23 9 4 11 5 4 3 5 7 9 4 11 2 14 18 20 16 16 13 14 9
16 18 20 22 23 22 18 14 8 7 4 1 2 4 7 4 8 15 14 17 18 17 23 24 15 5 8 4 3 7 4 6 8 7 1 4 4 6 15 18 14 14 12 12 12
16 18 20 23 24 25 18 14 12 6 4 4 9 6 8 8 8 17 19 19 14 10 12 9 3 1 5 2 5 6 5 7 5 3 6 4 2 3 12 14 12 9 9 10 12
18 19 21 24 25 26 21 6 1 2 6 9 3 5 7 8 8 5 13 14 8 6 5 4 2 7 12 11 10 8 11 8 7 6 3 3 7 7 12 7 9 8 9 13 14
19 21 23 24 25 24 12 4 10 10 7 15 17 10 7 3 4 7 12 5 5 7 7 4 9 12 14 16 14 12 16 5 6 11 5 5 6 13 7 4 4 8 12 12 15
21 24 26 27 24 16 10 14 12 17 4 8 13 7 7 5 8 9 9 10 8 7 8 9 13 16 15 15 19 2 7 5 5 8 3 2 4 8 4 5 5 6 5 5 15
24 27 29 21 10 8 9 13 11 14 3 6 5 3 6 6 6 13 15 9 6 11 11 9 15 13 14 7 17 10 3 9 15 6 5 3 2 5 10 12 9 6 6 4 3
28 28 19 10 10 5 15 14 9 8 4 11 5 3 4 6 2 10 14 7 12 11 6 11 10 8 8 9 10 10 18 18 15 4 5 8 4 5 14 18 17 13 9 6 7
30 22 10 3 8 8 9 17 10 2 2 6 5 5 5 10 8 11 7 7 10 11 10 9 7 6 6 19 14 27 14 10 4 0 3 10 5 4 8 26 24 16 13 9 7
30 17 9 7 5 15 15 9 2 3 3 5 5 8 8 7 7 8 7 6 4 1 6 8 9 5 2 13 21 21 10 3 1 2 2 6 7 11 12 14 28 25 21 17 13
25 15 11 16 9 12 17 3 2 9 8 4 5 4 6 5 6 6 8 6 11 8 7 5 4 5 5 10 14 14 12 4 4 1 2 4 2 6 11 18 11 6 19 16 13
22 10 8 16 11 11 3 3 1 7 9 11 5 6 6 7 3 3 7 8 9 10 6 5 4 8 12 11 7 6 8 12 5 2 1 4 3 8 14 3 11 10 18 18 15
13 7 16 18 18 14 2 6 4 7 9 11 3 4 3 7 6 4 8 7 11 6 8 7 5 7 13 6 7 6 6 2 1 6 4 5 3 5 3 5 6 15 19 17 17
4 3 9 14 13 2 4 3 4 6 7 5 7 6 6 6 4 2 3 7 14 11 12 7 4 10 1 4 5 2 4 4 1 3 5 5 5 6 7 7 6 6 14 16 16
7 4 8 4 1 3 2 5 2 3 4 3 4 6 4 4 3 4 11 6 5 7 7 8 3 4 8 7 9 7 7 6 4 8 3 5 4 9 3 10 5 5 9 13 15
4 6 15 7 3 4 4 4 4 8 10 9 9 9 6 4 3 3 2 8 5 6 3 7 4 4 9 8 9 1 6 5 4 2 5 1 5 5 7 9 18 15 7 15 20
3 4 1 3 6 5 3 1 5 3 1 6 4 7 6 6 10 5 4 4 4 3 0 3 3 8 5 7 8 9 13 10 1 3 6 5 4 1 4 4 8 6 3 21 18
3 4 10 2 5 6 7 5 6 2 4 1 4 5 7 7 5 7 10 6 8 4 1 0 3 2 6 5 10 10 11 14 8 8 2 3 6 7 2 5 12 22 14 15 16
3 6 8 6 3 5 2 3 6 10 6 7 7 12 9 6 2 7 8 7 2 4 5 6 4 5 5 7 6 6 11 12 10 15 9 16 11 5 12 13 13 19 22 7 8
10 12 4 6 5 3 2 5 7 7 0 3 6 4 8 9 9 7 7 9 7 2 1 0 3 5 5 6 4 3 7 7 10 19 10 10 5 9 9 9 4 7 13 19 14

GFSSW_925_spd_114.txt.gz
Wind_Speed
12 12 12 13 12 11 11 11 11 11 11 12 11 11 11 12 13 7 7 7 4 5 6 4 5 7 5 3 4 3 3 4 2 4 3 10 19 4 10 22 11 7 15 18 30
14 14 13 13 13 12 12 12 11 11 10 11 10 10 11 12 11 13 14 8 7 10 6 9 5 5 2 6 4 3 1 3 4 6 6 11 12 15 13 16 12 15 20 28 35
16 16 16 15 15 14 13 12 11 11 10 10 9 8 9 9 3 7 5 17 12 7 7 6 8 7 5 4 5 3 2 3 7 3 10 9 13 12 17 14 18 25 21 24 27
18 18 18 18 17 15 14 13 12 11 9 8 8 7 7 2 2 2 1 17 18 11 8 0 2 3 6 7 6 7 10 8 6 3 3 11 11 15 18 11 18 20 27 25 18
17 18 19 19 18 16 15 14 13 12 10 8 5 5 3 1 8 5 3 15 18 13 9 4 3 4 4 3 7 7 14 13 9 10 8 16 9 7 10 17 17 26 23 20 18
16 17 19 20 20 19 17 16 14 11 10 9 5 3 1 2 4 9 8 14 14 18 9 9 7 1 6 4 3 8 13 13 9 10 8 7 7 9 16 15 17 21 22 20 16
16 17 19 20 21 21 19 17 14 8 8 7 3 3 2 11 2 8 9 10 16 18 6 20 9 2 10 3 7 12 7 5 4 2 5 9 11 14 20 19 13 19 14 15 21
16 18 19 21 23 23 21 17 12 6 6 4 1 2 6 6 7 10 12 4 13 12 19 12 11 5 5 6 4 5 5 4 4 4 4 3 7 19 20 18 10 12 10 15 20
16 18 20 22 24 24 22 17 11 6 5 1 2 2 9 10 5 12 19 8 14 14 13 13 3 6 1 5 4 5 4 4 2 7 5 6 4 9 16 16 12 10 8 15 13
17 19 21 23 25 26 23 17 8 3 1 2 4 4 6 4 7 13 16 12 6 3 3 3 2 1 3 4 3 5 5 2 4 3 4 6 2 4 14 18 16 11 8 13 15
18 20 21 23 25 26 23 5 4 2 3 8 5 4 8 3 8 6 13 9 6 3 4 3 3 5 4 3 1 9 7 5 4 1 4 2 11 6 10 4 8 9 8 13 16
20 22 24 25 24 21 16 1 7 1 7 11 11 7 17 12 1 4 7 4 6 6 4 4 6 9 5 8 14 8 12 3 3 4 2 3 11 4 6 3 3 5 7 15 9
24 26 26 21 15 8 7 12 15 17 2 8 5 5 6 4 3 6 7 5 2 2 4 7 7 9 10 13 12 10 7 5 3 5 5 3 3 4 2 4 3 5 3 10 16
28 27 21 13 3 7 8 12 22 9 4 6 2 4 4 4 3 11 12 5 2 10 7 6 14 10 12 11 14 6 9 13 7 2 3 4 3 5 6 10 6 7 4 6 14
27 24 16 8 8 3 11 28 28 4 4 3 3 4 5 5 2 3 15 4 6 6 1 10 5 6 7 16 11 6 13 12 6 4 2 5 4 5 4 11 14 8 7 6 9
26 19 11 5 8 9 20 26 8 5 2 5 1 2 0 2 4 7 5 3 3 5 6 10 6 5 7 17 9 18 13 11 5 3 2 6 2 7 5 12 18 8 8 8 8
24 14 8 7 4 8 20 5 5 4 4 4 5 2 2 3 3 5 5 3 3 4 5 8 5 4 16 17 8 15 6 3 0 1 5 5 4 8 7 9 15 16 13 10 8
18 10 9 14 14 17 15 5 5 4 4 7 3 5 2 2 4 3 4 1 4 3 2 2 7 12 4 12 14 14 6 6 4 2 2 6 5 6 11 7 17 22 18 12 10
14 7 7 9 10 6 5 4 3 2 5 7 5 7 6 6 2 3 2 1 4 5 5 1 5 3 9 7 14 6 5 7 6 2 3 4 5 9 8 2 9 15 15 15 15
12 4 7 8 10 7 4 4 3 2 4 6 4 4 5 6 7 4 2 2 4 3 4 3 2 2 7 8 10 12 7 3 2 5 4 4 4 7 4 10 10 8 8 13 13
7 4 5 7 10 4 2 5 1 2 1 2 3 1 1 3 1 1 5 3 4 6 5 1 3 8 3 1 9 1 1 3 4 4 5 3 6 7 9 8 15 16 14 15 14
6 3 2 2 3 1 2 5 3 5 6 6 7 3 2 6 5 2 2 1 6 3 3 2 4 2 6 7 4 3 2 4 5 5 2 4 5 6 7 3 5 6 13 15 18
2 3 7 7 2 2 6 3 3 3 4 5 5 4 6 5 3 4 5 7 3 3 2 5 3 4 9 7 9 6 6 4 2 2 3 5 5 5 8 8 6 7 6 9 14
2 3 4 4 1 2 3 2 1 2 3 2 3 7 6 5 4 2 7 5 5 2 2 6 3 6 5 7 2 4 9 5 4 3 3 5 2 4 12 13 15 14 5 7 10
2 4 3 4 5 1 1 2 7 2 5 8 6 5 2 6 7 6 4 7 7 5 4 4 2 2 9 9 3 1 5 13 5 5 5 3 5 4 6 9 11 14 18 19 14
1 2 4 3 4 8 2 2 6 3 3 3 5 4 6 5 2 2 4 3 2 9 2 4 1 2 1 7 7 1 14 13 9 6 6 6 9 6 5 4 12 11 10 16 19
6 5 3 5 6 5 3 5 3 4 4 4 4 3 5 3 2 4 4 5 3 3 4 4 2 3 4 5 4 7 6 12 12 11 3 9 5 6 10 13 13 12 4 6 19

GFSSW_925_spd_117.txt.gz
Wind_Speed
14 13 13 13 12 12 12 11 12 12 12 12 11 11 10 11 13 7 6 5 7 7 7 4 5 2 1 1 2 1 4 1 3 8 2 6 10 5 5 15 5 3 8 13 23
16 16 16 15 13 13 12 11 11 11 11 11 10 10 10 12 11 9 9 11 10 10 5 6 5 5 2 2 2 3 2 2 3 2 3 10 14 14 9 11 13 13 12 24 24
17 18 19 18 16 14 13 12 11 11 10 9 8 8 8 9 3 6 2 16 13 11 6 5 5 3 2 3 3 2 5 4 4 2 4 5 4 10 19 12 18 20 18 19 24
17 17 18 19 19 18 15 14 13 12 10 9 8 6 6 3 4 1 6 17 14 13 5 7 3 3 3 4 4 4 3 6 2 2 3 2 10 3 17 8 18 21 21 22 17
16 17 18 19 20 19 18 16 14 11 9 8 7 6 2 2 7 5 1 19 17 11 7 5 3 3 2 2 6 3 8 7 3 7 6 8 7 3 7 16 18 21 22 21 17
15 17 18 18 20 19 20 17 15 10 8 8 4 3 2 2 4 3 6 19 13 13 7 6 6 3 3 5 2 5 6 4 0 4 8 6 5 9 6 19 19 20 19 18 17
15 16 18 19 20 20 20 18 14 8 7 6 2 3 1 8 5 4 6 8 16 15 4 7 4 4 3 1 4 13 7 7 6 3 5 6 4 9 19 19 21 19 16 15 18
15 17 18 20 21 21 20 18 12 7 5 4 2 2 6 1 6 12 8 4 11 13 11 2 9 1 2 4 4 2 6 3 6 8 6 5 4 12 21 20 19 17 15 14 14
16 17 19 20 22 22 21 19 11 4 2 1 2 2 8 6 5 10 14 3 7 6 2 5 4 4 1 3 4 6 6 4 2 6 5 3 5 10 14 19 20 17 15 15 14
18 19 20 21 23 22 19 13 4 2 2 1 2 3 4 4 3 7 15 8 2 4 1 2 2 3 3 4 2 4 7 4 3 3 3 4 5 6 5 11 16 12 13 15 15
20 21 22 22 21 20 17 2 4 3 2 5 4 3 7 9 3 6 11 7 2 4 3 1 1 4 5 4 1 5 9 6 2 6 1 3 3 6 6 3 2 6 12 14 14
22 25 24 18 14 14 7 4 3 1 7 8 6 6 12 4 3 2 10 4 4 4 0 5 4 5 2 6 11 8 9 5 3 2 2 7 9 0 4 3 3 2 5 15 7
24 27 22 12 7 3 6 4 6 13 1 7 5 4 4 7 3 2 7 3 3 4 2 4 4 6 5 10 9 2 5 7 5 3 2 4 5 5 4 3 2 4 2 13 18
25 25 18 10 2 6 6 8 22 5 4 6 3 5 2 3 2 5 7 4 3 8 4 4 5 6 9 5 6 5 1 7 12 4 2 2 2 7 11 7 3 6 5 7 16
25 20 12 6 4 2 7 23 7 4 4 3 2 2 3 5 1 3 5 4 4 3 4 7 2 4 6 11 6 3 11 9 4 4 1 4 0 4 8 9 11 7 8 7 15
23 14 8 4 6 5 18 22 4 5 3 6 3 0 2 2 2 2 3 4 2 2 1 8 5 7 7 4 7 14 10 4 3 4 3 5 4 5 7 14 13 8 10 8 17
19 10 6 5 3 11 21 4 5 5 4 6 3 1 1 3 2 3 4 3 3 3 3 5 2 4 14 14 4 6 4 3 4 2 4 0 3 8 13 12 22 18 12 10 12
17 10 8 11 11 14 7 5 7 3 4 5 4 3 4 7 4 2 3 1 1 3 1 1 3 5 8 7 11 9 5 6 2 2 3 2 5 6 10 14 18 18 20 15 10
16 8 7 3 3 3 5 5 5 4 3 4 4 6 5 4 1 3 1 4 1 4 6 3 5 5 6 3 13 5 4 2 7 2 0 3 5 8 5 5 6 9 16 19 16
11 7 5 2 7 6 5 3 3 4 3 4 3 3 2 5 7 4 2 3 3 2 3 1 1 4 2 6 6 5 7 3 2 4 4 4 5 6 2 8 6 13 20 17 18
4 4 2 7 6 5 3 5 5 4 3 3 2 4 1 3 2 3 3 3 3 6 5 1 2 4 1 2 8 2 2 3 4 4 4 1 5 6 7 7 8 5 12 19 16
3 3 8 5 3 1 1 5 6 2 4 5 4 3 4 4 5 5 3 4 8 1 3 3 4 1 3 5 4 7 3 4 4 3 1 3 3 9 10 7 8 5 4 3 18
2 3 1 5 1 3 5 5 3 2 2 2 5 4 2 4 3 3 5 7 6 1 0 2 3 3 7 7 6 6 2 0 3 3 3 4 2 9 8 12 9 6 6 5 1
2 3 4 4 1 3 3 4 3 3 5 6 2 5 4 7 5 4 6 4 8 5 5 6 2 5 5 5 3 4 5 2 5 4 2 4 4 10 12 12 11 10 10 11 3
2 2 2 3 4 5 2 3 3 3 3 4 5 4 4 4 4 5 4 6 4 8 5 4 2 1 4 7 2 2 3 7 6 3 3 3 5 7 5 5 5 5 7 12 11
1 2 4 3 4 5 5 1 4 3 3 1 5 3 3 4 5 3 0 0 1 5 4 5 0 5 4 6 6 4 5 7 5 3 6 5 8 5 5 4 8 5 5 10 8
5 3 3 3 4 3 1 4 6 7 1 6 6 5 3 3 4 2 5 5 3 1 2 3 2 3 3 3 4 6 6 6 2 6 4 4 1 2 10 11 10 8 7 5 8

GFSSW_925_spd_120.txt.gz
Wind_Speed
16 15 13 12 11 11 10 10 10 10 9 10 10 9 8 10 12 6 5 5 5 8 10 9 6 6 2 2 1 2 2 3 3 5 3 7 6 5 6 9 2 3 6 12 21
16 17 18 18 16 14 12 11 11 10 10 10 9 8 8 11 10 8 6 8 12 11 8 7 4 6 2 2 1 3 3 1 3 3 2 4 7 4 6 5 6 10 16 21 22
15 16 17 18 18 16 16 14 13 12 10 9 9 8 9 9 2 4 3 12 12 12 6 4 10 3 2 1 1 2 3 3 8 5 5 2 5 3 14 4 6 18 16 17 18
14 15 16 17 18 17 17 15 15 12 10 9 8 7 7 3 5 1 5 13 13 9 6 6 3 3 2 1 3 2 3 5 3 6 4 3 6 5 9 3 13 15 20 18 14
13 14 16 16 17 18 17 16 14 11 8 8 7 7 3 2 6 7 4 19 12 13 6 4 4 3 1 2 4 2 2 6 6 7 3 6 4 3 6 12 16 15 16 15 14
14 15 15 16 17 17 17 16 14 10 7 8 5 4 2 1 7 3 5 18 10 7 3 4 4 3 1 2 0 4 7 7 6 3 4 5 3 6 7 15 15 17 14 13 15
15 15 17 17 18 18 17 16 13 8 6 5 3 3 2 5 4 5 7 7 6 6 3 2 4 4 1 1 2 8 5 5 2 1 2 5 6 7 16 18 16 15 12 11 13
16 17 17 19 19 19 17 17 12 6 3 3 2 2 4 1 4 6 7 2 5 5 4 4 4 2 2 5 4 3 3 1 6 3 4 4 5 5 19 20 17 15 13 12 13
18 18 19 20 21 20 19 15 6 1 1 2 2 2 4 4 5 5 10 4 9 5 6 3 5 2 3 3 3 5 2 4 3 5 4 2 3 7 17 19 16 15 15 13 10
20 20 22 22 21 20 16 6 7 4 3 1 1 2 2 3 1 2 10 7 3 4 2 3 4 3 3 4 2 3 3 3 3 4 1 5 5 8 11 15 17 13 13 12 12
20 22 22 20 18 15 10 1 4 2 1 3 4 4 5 8 3 3 7 5 1 6 3 2 4 4 7 6 3 6 6 4 3 2 5 3 4 8 3 6 10 7 10 12 15
21 23 21 15 13 9 6 4 4 3 6 3 3 6 9 5 3 3 11 4 2 2 2 5 1 7 4 6 8 4 7 4 2 11 5 3 6 3 3 1 3 7 8 13 10
24 23 17 12 6 4 4 3 2 9 1 6 4 4 3 7 3 4 7 4 3 2 3 4 1 4 4 4 7 4 2 3 1 6 2 5 4 5 4 3 2 4 6 10 15
26 19 13 9 3 5 1 9 17 7 5 6 3 3 3 2 1 3 6 3 3 4 5 2 2 5 5 4 2 6 3 7 8 3 2 2 2 8 10 7 5 7 7 12 14
22 14 10 5 3 0 3 18 5 3 5 6 4 0 1 4 1 1 2 4 4 3 5 6 3 4 4 6 4 2 8 7 3 3 3 4 2 3 12 14 13 9 8 8 13
18 10 6 3 5 3 12 10 3 5 2 6 2 2 2 3 3 2 3 5 1 3 1 7 1 6 9 3 7 11 6 4 3 2 2 4 4 4 7 21 18 9 9 10 11
16 9 5 4 2 8 13 3 5 5 4 7 3 4 3 3 2 2 4 2 2 2 2 4 2 2 5 9 3 3 6 2 3 3 3 5 3 9 7 14 25 20 12 12 13
17 9 7 10 9 9 5 5 6 3 4 4 3 3 4 5 5 2 3 1 2 2 1 2 3 7 4 5 7 5 6 5 4 2 4 4 6 5 7 9 20 20 16 16 15
17 5 4 4 2 1 5 5 5 3 4 4 3 6 6 5 1 4 3 1 4 6 5 2 4 1 6 4 6 5 3 3 5 3 2 4 6 5 3 6 7 15 13 18 19
9 6 4 2 4 4 5 3 3 5 3 2 3 1 3 5 3 4 2 2 3 2 5 2 2 3 3 5 1 5 5 2 2 5 4 5 2 4 10 8 7 10 13 15 14
4 3 7 4 3 5 3 4 5 5 2 3 2 3 1 2 3 2 2 2 2 3 2 1 2 4 3 3 6 2 1 3 2 3 4 2 2 6 12 8 6 4 5 8 13
4 2 4 2 3 1 1 4 4 3 4 4 4 2 3 4 5 4 3 3 7 2 1 1 3 1 3 4 2 5 4 5 4 3 1 2 3 8 10 8 4 3 4 7 12
2 2 3 1 1 2 4 4 4 1 3 3 3 3 4 3 3 3 4 6 8 4 3 2 2 2 7 6 4 4 2 3 3 3 4 4 4 9 9 10 10 5 5 7 8
2 2 3 4 1 3 3 4 2 2 3 5 3 4 4 5 4 2 5 3 7 4 8 6 3 3 6 6 3 4 5 1 3 3 4 4 3 8 10 12 11 9 7 2 9
3 1 2 1 2 2 1 2 2 3 2 4 3 2 4 2 2 3 2 6 4 11 4 4 2 0 3 3 3 1 5 4 3 2 2 7 7 0 4 7 9 9 10 7 6
2 2 4 1 2 2 1 1 5 2 5 1 6 2 2 4 7 6 2 1 2 5 4 4 1 2 2 5 6 3 6 4 4 5 7 10 5 4 6 6 8 9 11 13 11
4 1 2 2 2 2 2 3 3 1 3 6 8 5 3 4 4 1 5 6 3 1 2 3 2 2 3 4 5 3 2 4 3 3 2 5 3 5 4 5 5 6 7 8 8

GFSSW_925_spd_123.txt.gz
Wind_Speed
14 15 15 15 14 13 12 11 10 9 8 8 7 7 7 10 10 5 5 3 5 8 10 10 4 4 3 2 1 1 2 6 5 8 6 8 7 4 5 12 5 2 10 13 20
13 14 15 16 15 14 13 12 12 10 9 8 7 6 8 11 7 6 4 5 10 14 9 10 7 5 2 1 1 3 3 4 4 2 7 8 11 5 6 11 5 11 15 19 18
12 13 14 15 15 15 14 13 12 11 8 8 7 7 9 8 2 2 5 10 14 10 8 4 9 1 2 1 2 2 3 6 5 5 6 9 9 4 11 8 6 20 18 18 18
11 12 13 14 14 14 14 13 13 11 8 8 7 7 7 3 4 3 6 14 12 8 8 11 5 2 1 2 2 3 5 4 3 4 5 6 2 11 7 2 12 17 20 19 16
12 13 13 14 15 15 14 14 13 10 7 8 7 6 3 1 3 10 2 12 11 10 5 6 6 1 2 1 3 3 4 6 3 5 7 2 3 5 9 10 17 18 18 16 15
13 13 14 15 15 15 15 15 13 9 6 6 5 4 1 4 5 6 13 14 13 6 3 4 4 0 3 4 3 4 8 8 7 6 6 4 2 8 8 17 17 19 17 16 15
14 15 16 16 17 17 16 16 13 7 5 5 4 4 1 4 5 10 12 8 8 4 3 3 6 3 1 5 5 9 5 6 8 6 4 6 6 9 15 19 18 18 16 14 15
15 15 16 17 18 18 16 14 11 3 1 2 3 2 1 1 2 3 7 4 7 5 4 3 3 4 1 8 4 3 3 3 5 5 4 6 11 7 17 19 19 17 15 14 15
17 17 18 19 18 15 13 9 5 3 3 3 3 2 4 1 1 4 6 4 6 5 4 6 0 3 4 4 3 2 3 3 4 2 3 6 4 1 17 19 18 17 15 14 13
18 19 20 19 15 11 9 5 7 4 3 2 1 1 1 2 3 7 8 9 4 6 6 3 2 2 1 4 2 3 4 2 3 3 2 2 6 4 16 13 17 17 14 13 14
20 22 19 14 9 9 5 2 1 1 0 2 5 3 3 4 3 3 5 5 3 2 4 2 3 5 7 7 2 4 4 6 3 3 4 3 4 10 15 15 15 15 14 15 16
23 21 14 8 5 7 7 3 3 2 4 0 4 5 6 1 4 4 8 3 1 6 6 4 4 4 2 4 4 4 6 5 4 6 1 2 2 6 6 12 15 17 17 17 15
26 17 10 6 5 5 5 3 3 5 1 3 3 3 1 4 3 7 9 4 3 3 4 7 2 3 5 4 6 3 2 2 2 7 2 4 3 4 3 5 8 16 18 18 17
24 14 7 4 4 2 1 8 12 7 2 6 2 2 3 1 3 2 9 2 2 4 4 2 2 5 6 5 5 5 4 9 9 7 1 1 3 6 10 11 9 13 16 18 18
20 12 4 2 1 1 2 15 4 2 3 7 1 1 1 0 3 3 3 2 3 6 4 3 5 5 5 5 8 1 6 9 7 3 3 5 3 2 10 18 17 15 16 18 19
16 9 3 1 2 0 8 4 1 1 3 2 2 2 0 2 1 2 1 3 1 3 1 4 1 3 3 3 7 13 8 5 4 2 3 6 6 4 9 27 23 18 17 17 19
15 8 3 2 0 4 8 1 1 3 2 4 2 3 2 3 3 2 3 3 1 2 1 2 2 1 5 8 10 5 7 2 3 4 1 6 6 9 10 10 26 26 19 19 18
16 9 2 4 6 5 2 1 3 2 2 1 2 1 3 5 3 2 4 2 3 3 3 3 5 9 7 4 7 13 11 3 3 3 2 4 5 1 9 6 19 25 22 21 19
13 3 2 5 2 2 0 3 1 2 2 2 1 4 3 3 2 2 2 1 2 5 3 3 1 4 7 5 8 6 9 2 0 0 3 2 4 5 14 11 1 18 16 19 20
5 2 4 3 3 1 1 0 2 3 3 1 2 1 2 5 0 1 1 1 1 2 4 1 2 2 6 7 5 3 8 4 4 3 2 4 3 4 15 14 7 9 17 19 16
3 2 8 2 4 2 2 1 3 3 3 1 2 2 2 1 2 2 2 2 6 3 2 2 2 3 6 6 7 4 4 2 4 3 2 3 3 5 8 10 9 9 14 17 16
4 2 2 4 1 1 1 2 3 2 2 2 3 2 2 2 2 1 1 1 7 2 3 2 1 1 2 4 4 3 3 8 6 2 1 3 1 4 4 6 9 3 8 13 15
2 2 2 1 1 0 2 3 3 2 1 2 2 2 2 2 0 1 2 3 7 1 2 1 1 2 4 2 3 1 2 2 0 0 8 6 1 4 5 7 8 7 7 5 8
2 1 1 2 1 2 0 2 2 1 2 2 3 2 2 1 2 1 2 2 6 4 5 1 1 2 4 2 1 1 3 2 3 4 6 7 2 1 6 8 9 9 7 1 7
2 1 3 2 2 1 2 1 3 4 1 0 2 1 3 3 1 2 1 3 0 8 2 1 0 2 0 5 1 2 3 5 1 3 4 2 4 1 5 5 8 9 9 9 7
2 2 1 1 1 3 3 4 6 4 6 4 4 4 3 3 4 3 1 1 1 3 3 2 1 1 3 3 7 5 5 5 4 3 2 1 3 2 3 5 6 10 9 11 10
3 1 2 1 2 3 3 2 2 4 2 3 8 5 3 2 3 3 4 5 3 3 2 2 1 1 4 4 6 10 6 2 3 4 3 7 2 5 2 5 7 8 9 9 7